GFSMW_250_spd_000.txt.gz
Wind_Speed
28 25 25 25 26 26 25 27 33 35 38 40 39 41 42 41 39 37 39 40 42 44 47 49 52 53 53 56 59 62 66 69 66 66 65 65 71 75 78 77 79 81 76
30 28 28 27 27 28 30 33 36 40 41 44 43 43 40 43 42 42 43 45 49 52 54 56 57 58 61 62 65 67 69 72 73 69 70 70 76 82 82 85 85 86 86
35 33 32 32 33 33 36 38 39 41 43 45 45 43 44 46 46 47 48 50 55 58 60 61 63 64 67 69 71 72 74 74 75 77 79 80 79 81 87 87 90 91 92
39 38 38 38 39 38 40 41 44 46 47 46 44 46 49 50 51 52 55 58 61 63 65 65 67 71 74 76 76 76 77 79 79 83 89 91 89 88 83 91 96 97 97
38 38 39 39 38 40 45 45 45 44 44 45 47 50 52 52 54 57 61 65 68 68 69 72 74 76 78 81 79 82 82 85 85 91 95 95 94 96 95 95 97 101 102
35 39 40 41 43 40 38 39 41 43 45 48 51 53 54 56 59 63 67 70 72 74 75 79 81 83 85 83 87 89 91 92 93 96 96 98 99 98 103 103 103 104 104
32 32 35 36 37 38 40 43 44 45 47 50 52 55 60 63 67 71 73 76 78 81 83 84 86 87 88 91 93 95 97 99 100 100 102 102 101 108 109 111 112 109 104
31 34 36 36 39 42 45 46 47 49 52 56 59 63 67 71 74 76 79 81 83 84 86 88 91 94 95 97 100 102 104 107 109 109 108 112 114 114 117 119 117 112 113
37 38 39 41 43 46 48 49 52 55 59 63 66 70 73 76 79 81 83 85 87 89 92 96 98 101 104 105 107 109 110 111 112 114 117 118 119 121 122 123 123 119 104
42 42 44 45 49 52 54 57 59 62 65 69 72 76 79 81 84 86 90 93 96 99 102 104 105 107 109 110 112 113 115 118 119 119 120 123 123 122 121 119 105 102 101
46 47 49 52 55 58 61 63 65 69 72 74 78 81 84 87 90 94 97 99 102 105 107 110 113 115 117 120 122 123 126 126 126 127 125 120 118 112 109 112 106 110 105
52 53 56 58 60 61 65 68 71 75 78 81 85 88 91 95 99 102 105 109 110 113 116 120 123 125 127 129 131 131 133 130 126 125 124 123 120 121 121 117 114 113 109
55 58 60 61 62 65 68 72 76 80 84 88 92 95 99 103 106 110 113 116 118 122 125 127 129 130 131 132 135 135 133 131 132 132 130 129 129 127 127 123 117 117 115
58 61 63 65 68 73 76 79 83 87 90 95 99 102 105 109 114 117 120 124 126 128 129 131 133 135 135 137 137 138 137 137 135 132 132 131 128 122 120 116 113 108 106
64 66 68 72 77 80 84 88 92 96 99 102 105 108 113 117 120 121 123 126 128 131 134 136 138 138 142 143 141 140 135 134 132 127 124 125 119 119 115 106 102 96 95
69 73 75 78 81 86 90 93 95 99 103 107 111 113 113 117 118 122 127 131 134 139 142 144 143 145 147 145 143 139 130 130 130 128 130 124 119 115 107 104 100 96 92
73 76 79 84 88 90 93 96 100 105 107 106 108 111 114 120 126 131 135 139 141 144 149 149 146 146 144 142 140 139 133 129 126 125 118 111 108 104 98 93 90 88 87
75 81 85 88 90 94 98 101 100 101 105 110 115 119 122 128 133 138 141 147 149 148 144 144 140 141 140 134 129 129 123 114 108 101 99 92 90 90 88 85 81 79 78
82 84 87 91 94 94 95 95 100 106 111 115 119 125 128 132 135 140 145 146 141 145 139 137 129 125 122 117 115 111 105 100 94 89 88 87 83 82 77 71 67 66 67
84 88 88 87 89 93 98 102 107 109 114 118 122 127 132 134 134 139 143 146 141 132 124 115 112 109 105 102 99 93 87 81 79 78 81 81 78 75 73 66 62 56 60
80 82 84 89 92 97 96 101 106 112 119 123 127 129 131 132 139 141 132 127 122 115 107 104 100 96 91 87 85 82 76 74 70 71 72 72 69 65 63 60 54 50 54
80 84 89 92 96 101 105 110 117 122 125 128 129 129 132 137 134 125 120 115 107 101 95 91 87 85 84 82 77 74 72 70 65 65 67 67 65 62 59 55 51 47 45
81 89 90 97 104 106 114 120 125 128 130 127 127 129 126 123 118 112 106 102 97 93 89 85 80 78 80 79 76 74 72 70 66 62 60 61 59 57 56 52 49 46 43
82 92 100 104 110 114 120 124 131 132 127 124 124 124 119 115 111 106 100 96 94 89 84 79 76 76 77 76 73 71 71 68 65 60 55 53 52 50 48 45 41 39 38
96 102 107 111 116 121 127 132 129 125 125 125 122 118 114 107 101 98 96 94 92 87 82 79 77 76 75 75 72 69 67 65 63 60 53 50 48 46 42 40 38 39 38
102 106 109 116 121 125 131 127 126 126 124 120 118 114 106 99 95 93 90 92 91 90 86 82 77 74 72 70 69 67 64 59 58 55 51 47 43 41 37 33 33 34 35

GFSMW_250_spd_006.txt.gz
Wind_Speed
23 26 30 32 31 33 32 33 32 28 28 29 31 32 34 36 39 41 45 49 52 54 55 56 61 59 58 60 61 63 65 69 71 70 73 75 80 83 86 88 89 89 91
25 27 29 32 30 30 31 32 32 29 28 28 30 32 35 39 42 45 49 53 55 56 57 61 62 60 61 65 67 69 71 74 78 79 80 80 85 89 92 95 97 98 99
28 30 30 31 31 28 30 33 34 32 32 33 35 37 40 43 47 50 51 53 57 60 61 61 60 62 65 69 73 74 77 79 83 87 89 89 89 91 93 96 99 101 103
31 34 32 32 31 30 32 32 35 37 37 39 40 43 45 48 50 52 54 55 55 55 57 59 63 66 70 73 76 79 83 85 88 92 96 98 98 98 94 95 98 102 106
30 31 30 32 34 34 33 33 35 39 42 43 43 45 47 50 52 52 54 56 58 61 63 66 69 72 75 79 83 87 91 94 96 98 101 104 107 109 111 105 106 108 109
33 30 30 32 36 34 31 32 34 39 42 44 45 46 50 50 52 55 58 59 61 64 67 71 74 78 82 85 88 92 96 100 103 106 109 112 114 116 121 122 118 117 116
37 34 34 35 38 34 31 32 33 36 39 40 43 45 47 51 56 58 60 63 67 71 74 77 81 84 87 91 95 98 102 106 108 111 114 119 121 124 126 128 126 126 126
43 40 40 38 38 36 32 34 37 38 39 41 44 48 51 53 56 61 65 68 71 75 79 83 87 92 96 99 103 106 110 114 118 120 124 125 128 132 135 136 138 134 133
47 46 42 36 35 35 37 39 40 41 43 46 48 51 55 58 62 66 69 73 77 81 85 89 94 98 103 107 110 113 117 121 125 128 132 135 135 137 139 140 142 146 140
49 48 47 40 39 39 41 43 45 47 50 52 55 58 61 64 67 72 76 80 85 89 92 97 102 106 111 113 117 120 122 125 128 130 133 137 141 143 145 148 149 145 139
54 52 50 46 45 44 46 48 50 53 56 58 61 63 67 70 75 79 83 87 90 95 100 105 108 112 116 116 116 120 126 129 134 138 142 144 147 150 149 144 142 141 142
56 56 53 51 50 49 53 55 56 57 60 63 67 70 73 77 80 85 89 94 98 102 106 108 110 110 115 119 125 129 132 136 139 139 145 149 144 144 144 143 140 135 130
59 61 56 54 57 56 60 61 62 64 67 69 71 74 78 83 87 91 96 99 104 106 106 107 111 116 123 128 132 138 141 143 148 145 145 147 144 141 136 128 121 119 115
61 60 55 58 62 63 64 65 64 67 68 73 77 80 84 88 92 96 101 102 101 105 107 114 120 126 128 131 136 141 145 144 144 150 145 135 128 123 120 118 115 107 101
60 55 56 61 62 60 60 63 67 71 74 77 81 85 89 93 97 99 99 102 105 108 113 119 123 127 131 139 144 144 147 144 139 134 128 123 119 116 110 105 101 96 93
60 59 60 59 58 61 64 69 72 75 78 82 87 90 93 94 96 100 105 106 110 115 119 125 126 129 137 138 143 147 146 136 128 120 118 115 110 106 100 98 95 92 89
60 60 58 58 60 64 68 73 76 80 85 88 91 91 92 97 101 103 104 111 113 118 124 128 131 135 140 142 142 140 131 122 116 109 104 100 99 98 95 93 89 85 84
63 58 60 62 65 68 72 78 82 85 88 91 90 92 94 98 101 106 113 115 120 127 129 130 134 137 143 137 133 126 118 110 105 101 99 94 91 91 88 85 82 82 81
62 64 64 65 69 74 78 82 85 88 89 89 91 94 97 102 108 115 119 122 128 132 130 131 138 135 132 126 122 116 107 102 100 97 93 89 85 86 84 79 74 74 78
59 61 65 70 74 77 81 85 87 88 90 89 96 101 105 110 115 120 123 130 134 130 130 132 132 129 121 118 112 106 101 98 94 91 88 85 83 80 78 73 70 67 68
62 67 70 74 78 81 83 83 87 88 90 97 102 107 112 116 118 126 131 132 130 129 129 125 122 117 115 109 104 101 98 94 89 84 80 79 78 74 70 68 64 60 61
69 72 76 78 78 79 81 83 86 91 96 102 107 113 114 121 123 129 131 133 130 128 125 118 111 111 108 104 100 98 96 92 84 77 73 70 70 67 63 59 56 53 53
74 76 75 76 77 78 82 85 91 97 104 109 112 111 119 125 129 131 132 130 129 124 115 108 106 104 102 97 95 94 93 87 77 73 68 63 63 61 56 51 49 46 45
70 71 71 74 77 82 86 92 98 104 108 109 111 119 124 128 130 132 130 128 125 116 110 103 100 98 94 91 90 89 87 78 73 72 69 62 58 54 50 44 43 40 38
68 72 75 79 83 89 94 98 103 106 106 111 118 123 128 129 131 132 127 123 118 112 105 98 94 89 87 87 84 82 78 69 66 66 64 60 53 46 43 39 37 34 32
72 75 81 86 92 97 100 103 106 108 113 118 123 127 130 132 131 123 118 116 111 109 105 99 94 87 84 80 77 77 72 64 61 61 55 51 45 39 36 33 31 27 24

GFSMW_250_spd_009.txt.gz
Wind_Speed
21 20 22 22 23 25 28 31 33 29 28 28 27 27 27 29 31 33 36 39 42 45 47 52 56 58 60 61 63 64 62 63 63 64 67 71 75 78 81 84 87 90 92
24 22 22 22 23 26 27 30 29 28 28 28 28 28 28 29 31 34 36 40 44 48 51 55 57 60 62 63 62 61 64 68 72 73 75 76 78 83 86 89 91 94 98
23 26 24 23 24 27 30 32 32 30 28 30 31 31 33 35 37 40 43 46 49 51 55 55 54 56 58 61 64 66 68 70 76 80 81 82 83 84 89 93 97 101 105
25 29 29 27 27 28 30 32 34 32 31 31 34 37 38 40 42 45 47 48 51 53 52 55 58 61 63 66 69 72 74 77 80 85 91 94 94 94 89 98 102 106 108
26 31 35 32 29 28 31 31 32 33 34 32 34 37 40 42 45 48 49 51 52 53 57 61 63 66 68 71 74 78 81 85 88 91 95 99 105 110 112 103 109 112 115
32 29 34 35 34 32 33 33 33 34 33 34 35 36 39 42 44 46 49 51 54 58 61 64 67 70 73 76 81 85 88 91 97 101 104 107 111 115 120 122 118 120 119
38 34 31 35 36 36 35 36 35 34 36 37 35 36 39 42 45 48 51 55 58 62 65 68 72 75 78 83 87 92 97 101 104 108 113 118 121 124 125 127 126 127 124
41 40 34 34 39 41 41 40 41 39 39 37 39 40 43 46 50 53 57 60 64 68 72 76 78 84 88 91 96 99 103 107 110 116 120 120 121 125 129 134 138 137 133
45 47 42 38 38 42 44 46 47 44 43 45 45 47 50 54 57 60 64 66 69 73 77 81 86 90 94 97 101 106 109 112 115 116 119 122 127 133 140 144 145 152 145
47 49 49 49 46 45 49 52 53 51 50 50 50 52 57 60 63 65 68 72 75 79 82 87 91 95 99 103 107 109 110 113 115 120 124 131 137 141 146 150 154 151 146
51 51 52 51 51 51 52 55 58 59 58 57 58 60 63 66 68 70 73 76 80 84 89 93 97 101 104 106 107 109 112 114 119 126 133 138 144 147 152 152 150 147 142
54 55 54 53 56 57 57 58 61 62 62 64 66 68 71 70 71 74 77 82 87 91 94 98 101 102 104 108 108 110 114 121 127 134 140 144 150 149 148 146 136 125 122
57 56 57 58 57 59 61 61 63 66 67 69 71 72 71 71 76 79 83 87 91 95 98 101 102 106 108 107 115 119 123 128 137 142 144 143 145 144 136 124 117 115 108
58 58 59 62 63 64 65 65 68 69 69 68 70 70 72 76 79 85 89 93 95 97 100 104 106 108 111 115 121 125 131 137 139 141 143 144 138 127 119 116 109 101 98
60 60 63 65 68 70 70 71 71 70 68 67 69 73 77 81 86 89 94 98 98 102 104 104 106 111 118 123 126 131 134 138 141 145 139 133 123 117 112 104 99 95 91
64 64 65 69 71 73 72 70 69 65 65 70 75 79 82 87 91 95 98 100 102 103 104 105 112 117 123 126 133 134 138 144 144 138 125 120 117 110 105 100 95 91 86
64 67 69 71 74 74 70 66 67 68 72 77 80 84 88 93 96 98 98 99 100 101 107 114 118 124 129 133 136 138 142 139 133 123 118 114 108 102 97 94 92 92 91
67 69 71 73 73 68 64 68 71 75 77 81 86 90 93 95 95 95 97 99 102 111 116 118 122 129 136 134 135 138 137 132 123 119 113 105 99 95 93 91 88 88 89
67 71 72 71 69 68 66 67 73 78 83 86 91 93 93 91 93 96 100 107 113 117 121 123 127 132 136 137 139 136 127 120 116 112 106 99 93 91 89 86 81 79 78
71 68 60 57 59 63 68 73 79 84 89 92 92 87 88 92 97 103 108 114 118 121 123 126 131 136 137 138 133 126 118 113 107 103 99 94 90 88 83 77 70 69 67
56 57 58 61 64 69 75 80 85 88 89 83 84 88 94 98 102 109 113 117 120 122 128 131 135 137 136 132 125 118 114 107 101 98 93 87 85 82 77 70 63 59 57
53 56 59 64 70 77 82 83 84 80 79 83 90 96 101 105 110 113 117 121 126 130 134 135 135 133 130 124 116 113 108 102 95 92 85 80 77 73 69 64 58 51 47
57 62 68 73 77 78 80 78 75 79 85 91 97 103 107 110 114 118 122 128 133 135 134 132 128 125 120 112 109 104 99 96 92 88 81 75 70 66 63 56 49 45 43
65 70 73 74 76 73 72 76 81 87 92 99 104 106 109 114 118 123 128 133 135 132 129 126 123 114 109 105 100 95 92 89 86 83 77 69 65 60 55 50 42 40 37
69 71 72 69 68 73 77 83 89 94 100 104 106 108 114 118 122 128 133 134 133 128 125 118 111 105 100 96 94 89 87 82 78 74 66 61 58 53 46 40 37 36 33
65 62 66 70 76 81 86 90 95 99 102 107 110 114 117 123 128 131 132 131 126 123 117 112 108 101 95 92 86 83 79 77 72 67 59 54 49 43 38 34 34 32 26

GFSMW_250_spd_012.txt.gz
Wind_Speed
29 29 27 23 26 27 25 23 25 26 28 29 31 28 27 27 29 30 31 36 39 41 43 44 45 48 51 56 59 63 65 65 62 59 62 63 66 69 71 75 78 81 85
29 24 21 24 25 26 25 25 25 27 29 30 31 32 29 28 29 30 32 33 36 39 42 45 49 53 57 60 62 62 61 63 64 63 63 64 70 74 77 81 85 88 92
22 25 24 25 28 29 26 26 27 29 32 31 33 35 35 34 34 35 36 38 41 44 48 52 55 57 59 62 61 62 64 64 69 72 72 72 74 76 83 88 91 95 99
21 21 24 22 28 30 30 31 31 31 34 35 34 34 37 40 40 41 42 44 46 49 52 56 57 59 61 61 65 67 69 71 73 77 81 84 83 83 79 88 95 100 104
24 22 23 25 26 32 35 34 34 34 35 35 36 37 39 40 40 42 44 45 48 51 53 55 58 59 63 66 69 72 76 78 81 82 85 90 94 98 100 94 102 106 111
26 25 24 25 27 29 35 37 37 37 37 38 40 40 40 39 40 42 44 45 47 50 54 58 62 65 68 72 76 79 81 85 89 92 95 99 102 106 110 110 108 109 109
30 30 30 29 28 32 34 37 39 41 42 43 43 45 46 45 45 47 49 52 53 57 61 64 68 71 75 78 81 85 88 92 95 100 104 108 112 114 115 115 111 111 110
35 34 35 36 36 36 37 37 39 42 45 46 48 50 52 53 54 57 59 60 62 64 67 70 73 77 81 85 87 90 93 98 102 106 109 112 114 115 117 121 124 126 125
39 39 38 40 42 43 44 45 45 46 47 50 52 53 56 60 62 63 65 66 68 70 72 76 80 83 86 88 91 96 100 104 108 111 111 112 114 118 123 129 136 143 136
42 43 44 44 45 48 48 49 50 51 51 52 54 57 61 63 66 68 71 73 75 77 80 83 85 87 89 92 97 101 104 108 110 111 112 115 120 124 130 135 140 144 151
46 47 47 49 49 50 53 54 56 57 56 56 58 60 62 65 69 73 77 79 81 83 87 86 88 89 94 98 101 107 107 108 110 112 117 122 126 130 135 141 145 148 152
50 52 53 54 55 55 56 58 60 61 62 63 64 68 72 72 74 78 80 82 83 85 84 88 92 96 99 102 105 105 106 107 112 118 122 127 133 137 142 145 147 150 144
53 56 57 58 59 58 60 62 63 64 67 68 69 71 73 75 77 80 82 79 82 86 91 94 97 100 104 103 103 105 108 114 120 124 129 134 139 144 145 145 146 134 123
59 60 60 62 62 62 63 65 68 68 70 72 72 75 77 78 77 80 78 83 90 93 95 99 103 103 101 102 105 110 115 120 125 130 136 141 145 146 145 142 129 117 114
64 63 63 66 67 66 67 69 71 72 72 73 76 78 77 75 76 78 85 90 92 95 100 102 98 99 102 105 111 117 121 126 131 137 143 146 147 143 134 121 115 113 106
68 67 69 70 68 69 70 73 74 74 74 76 77 75 75 78 85 88 87 93 98 101 97 94 98 101 107 113 119 123 128 134 139 141 143 143 138 125 117 114 111 105 101
71 71 71 70 70 71 74 74 74 74 76 75 74 76 80 81 84 89 94 97 94 89 94 96 101 108 115 120 124 131 136 139 141 141 139 134 124 114 112 107 101 100 98
71 72 71 71 72 73 72 72 74 77 73 69 71 75 82 86 90 93 90 85 89 94 97 103 110 117 122 127 132 137 140 140 140 138 133 122 115 110 100 95 94 94 91
71 71 71 70 69 69 70 73 73 67 69 72 79 81 85 90 89 84 84 90 94 101 106 114 119 123 129 133 139 141 141 139 135 132 122 115 109 100 93 89 87 86 83
68 65 64 66 67 69 70 67 69 71 73 77 81 86 87 85 81 87 91 97 103 108 115 120 125 128 133 138 141 142 138 131 124 118 113 106 100 93 89 84 81 77 72
60 63 65 65 66 65 67 65 69 75 79 82 84 86 82 84 88 93 99 105 109 116 120 123 129 134 138 140 139 135 130 122 114 110 105 99 91 88 83 79 73 66 62
59 59 61 64 63 62 64 70 76 80 82 83 83 81 86 90 95 100 106 112 116 119 124 129 133 137 139 137 131 126 119 114 108 102 98 90 86 82 77 71 65 58 54
59 60 58 57 63 67 72 77 79 80 81 78 82 85 91 96 102 108 114 117 122 126 130 133 136 138 134 128 122 115 111 107 101 96 90 87 81 75 68 62 56 51 47
56 58 61 67 70 74 75 76 75 73 78 81 86 91 97 104 110 115 118 123 127 131 134 135 134 129 122 117 112 106 103 100 95 88 85 80 74 66 60 56 49 46 40
60 62 66 69 70 69 68 68 74 78 83 88 93 99 105 111 116 120 123 127 133 135 135 132 125 116 110 107 102 99 95 91 83 80 77 72 65 57 51 46 42 38 34
59 62 64 62 61 65 69 74 79 84 89 95 101 107 112 116 119 122 127 132 134 133 129 123 114 109 105 99 96 92 88 82 76 74 69 63 54 50 44 40 36 30 28

GFSMW_250_spd_015.txt.gz
Wind_Speed
37 37 36 36 30 30 29 29 33 32 34 35 32 31 32 32 32 34 35 38 39 38 39 40 42 44 47 48 49 51 54 59 62 64 66 68 67 68 69 70 71 74 77
30 33 34 33 30 25 29 31 30 32 34 32 32 33 35 35 35 35 36 40 40 40 40 41 43 45 48 51 54 58 62 65 68 67 68 66 70 73 75 76 78 80 83
23 30 28 23 25 23 33 33 33 36 35 37 36 36 36 36 37 39 42 42 44 46 46 47 49 52 54 57 60 63 64 66 69 71 70 71 73 74 80 83 86 88 91
24 22 20 22 21 23 24 33 36 38 38 40 39 39 38 36 39 42 42 43 45 47 49 52 54 56 59 61 62 63 64 66 69 74 77 80 81 81 79 85 90 94 97
26 24 24 23 24 25 27 27 28 36 40 40 41 39 39 40 42 42 45 46 46 46 48 51 54 57 60 62 64 67 71 74 76 79 82 85 88 92 92 88 95 99 103
26 27 25 24 27 27 28 29 31 31 32 37 42 45 45 44 45 46 46 47 50 53 56 58 62 64 67 69 72 74 78 80 83 87 90 92 93 96 98 100 102 104 106
28 29 29 28 30 31 31 33 33 34 36 39 41 43 44 45 48 48 50 53 55 58 60 63 66 69 72 75 78 81 83 87 92 93 95 97 99 104 108 110 111 110 107
33 34 34 33 34 35 36 38 40 41 44 45 45 46 47 50 51 52 54 57 59 61 65 68 70 74 78 82 85 89 91 93 92 95 99 101 106 110 113 116 117 111 110
34 36 36 36 37 39 41 43 45 47 49 50 53 54 55 57 58 59 61 62 65 69 70 72 75 79 81 84 87 89 91 91 95 100 103 105 112 110 111 115 120 128 126
34 36 37 39 41 43 44 48 51 52 53 56 57 60 61 62 64 65 67 69 71 74 76 78 81 83 85 89 88 90 93 99 101 104 108 109 107 110 116 122 126 132 139
37 39 40 41 44 46 48 51 55 56 58 60 62 63 65 66 67 69 71 73 75 78 81 82 83 84 86 88 90 95 97 102 107 108 103 106 113 118 122 127 132 136 141
42 43 46 47 48 51 53 56 60 62 63 66 67 68 69 71 72 73 74 75 78 81 83 82 82 85 89 95 97 100 105 104 99 102 107 114 118 123 128 132 136 140 142
47 48 49 50 53 56 59 62 65 68 69 71 72 72 74 75 75 76 77 79 81 83 82 83 88 91 94 97 102 100 96 99 104 110 115 120 125 129 133 137 139 141 141
52 53 55 57 60 62 65 68 71 73 73 75 76 76 77 77 78 78 79 81 82 82 85 88 91 95 99 101 96 95 100 107 111 117 122 126 131 136 139 140 143 140 132
58 60 61 64 65 67 70 72 75 77 78 79 79 80 79 79 78 80 82 82 83 86 89 92 95 100 96 93 97 103 108 113 119 124 128 133 138 141 141 141 134 125 115
64 65 67 68 70 72 74 77 79 80 79 81 82 80 79 78 81 82 83 83 86 90 92 96 95 92 96 100 105 110 117 122 127 131 135 138 142 142 138 128 119 112 106
66 68 70 72 75 77 79 81 81 81 81 81 79 77 78 81 80 82 85 87 90 93 95 93 91 98 103 109 114 120 125 130 134 137 139 141 141 134 122 114 106 102 101
70 73 75 76 79 81 82 81 81 80 78 76 77 79 80 81 82 84 87 91 95 92 90 94 99 104 111 118 123 128 132 135 139 141 142 137 127 117 110 101 97 95 93
76 76 78 82 83 82 80 78 76 74 75 75 77 79 81 82 84 88 92 92 88 90 95 100 106 113 120 126 131 134 136 140 142 142 135 123 114 106 99 93 87 86 86
80 81 81 78 76 75 74 72 73 74 75 76 78 78 79 84 89 91 88 87 92 95 101 107 115 121 126 132 136 138 141 140 137 130 119 114 104 97 92 86 81 79 78
75 74 72 70 69 69 70 70 72 74 75 74 76 81 86 88 88 84 88 92 96 102 109 115 121 128 132 136 139 143 141 135 121 114 109 103 96 90 85 82 77 74 69
64 62 62 64 67 67 69 70 70 71 74 79 83 85 85 81 83 89 93 99 104 110 116 122 127 132 136 140 141 138 132 119 111 104 99 93 88 82 79 75 72 66 62
60 62 63 63 66 66 65 68 73 76 79 81 81 78 80 85 90 95 99 105 111 118 124 127 130 136 139 138 135 124 115 109 101 96 91 85 80 77 75 70 64 59 54
56 58 60 60 63 66 69 71 74 77 77 74 76 80 86 92 98 103 108 113 119 124 128 132 136 137 135 127 118 112 105 99 94 89 84 80 76 71 67 62 57 51 46
55 57 59 64 66 68 70 71 74 73 72 76 82 87 93 99 104 110 116 120 124 128 133 136 136 127 117 112 106 101 95 89 83 79 76 73 69 65 59 53 47 42 38
59 61 64 66 67 68 70 68 69 73 78 83 89 95 101 106 112 116 120 124 128 131 132 130 121 112 107 102 97 93 88 82 77 74 71 67 61 55 51 45 41 36 32

GFSMW_250_spd_018.txt.gz
Wind_Speed
37 35 35 34 33 34 35 33 35 39 34 33 35 37 39 37 37 39 38 36 37 39 41 42 42 43 45 46 47 48 50 52 52 55 58 61 66 68 72 73 75 76 77
34 32 34 35 36 35 35 38 36 33 34 33 33 36 39 39 40 40 39 39 38 40 42 42 44 47 48 50 52 54 56 58 60 61 63 66 72 74 76 76 77 77 80
34 34 32 29 31 32 36 34 29 29 36 37 37 36 38 41 40 40 41 41 42 42 42 45 46 47 48 50 52 56 58 62 66 67 67 68 70 72 76 79 83 85 87
35 35 30 26 26 27 28 26 27 26 27 30 34 38 41 42 42 42 44 45 46 47 47 47 48 49 50 53 56 58 61 63 67 71 74 75 75 77 75 80 86 89 92
38 36 31 30 30 27 27 26 26 26 26 28 30 30 32 35 38 40 42 45 47 49 49 51 53 55 56 58 61 63 65 67 69 72 76 80 84 87 87 83 89 93 93
40 34 31 30 29 29 28 27 27 29 29 29 31 33 35 37 40 43 45 47 50 52 54 54 56 58 59 61 64 67 68 70 73 76 77 81 86 89 90 88 89 90 95
39 35 32 31 31 30 29 30 31 32 34 36 37 38 41 44 47 49 50 53 55 58 59 60 62 64 66 68 70 72 75 76 80 81 84 87 88 89 91 94 96 97 98
40 36 33 34 33 34 34 35 35 35 38 40 42 44 47 50 53 55 58 60 61 63 65 66 68 69 70 72 73 77 80 82 84 86 87 88 93 97 102 104 106 101 102
38 36 35 36 37 35 35 37 37 38 42 45 47 49 52 56 59 62 64 65 68 69 70 72 74 75 75 76 78 82 85 86 86 87 91 95 99 100 107 112 112 111 104
39 36 35 36 35 34 35 37 39 43 47 49 52 55 59 62 64 68 71 73 74 75 76 78 79 80 80 81 84 84 86 87 90 93 96 100 105 109 109 107 111 118 122
38 38 37 36 35 37 39 42 45 48 51 53 57 61 66 68 70 73 75 78 80 80 81 83 83 83 84 86 87 87 89 91 93 98 102 106 106 104 108 113 118 123 130
39 39 40 40 40 41 43 46 51 55 57 60 64 67 70 74 76 79 81 83 83 85 85 86 85 86 88 89 90 91 93 97 100 104 107 103 106 111 116 120 124 128 133
43 44 45 44 44 47 49 53 57 60 63 66 69 72 75 79 81 83 85 85 87 87 87 86 88 90 91 92 94 94 97 102 107 104 104 108 113 119 123 127 131 135 136
47 48 50 50 52 52 55 59 63 66 69 71 74 77 81 84 86 87 87 88 89 88 88 90 92 93 95 96 95 99 104 104 103 106 111 117 122 126 130 133 135 136 132
50 52 54 54 56 59 63 67 70 71 73 75 78 82 85 89 88 89 90 89 88 89 91 93 94 96 96 98 102 102 100 104 107 113 119 124 129 133 136 138 134 127 117
56 56 58 61 64 67 70 73 73 74 77 80 83 87 90 90 90 91 89 88 90 92 94 95 94 95 101 101 98 101 104 110 115 120 125 131 134 138 138 130 122 117 114
59 60 63 66 69 72 74 75 78 80 83 84 88 91 91 90 89 88 88 91 92 95 93 94 98 99 97 97 102 108 113 118 123 129 132 136 138 133 123 115 113 112 109
65 67 69 71 72 74 76 80 82 84 86 89 90 90 89 88 87 88 90 92 92 92 96 97 95 93 99 103 110 115 120 125 130 135 138 136 128 119 114 109 105 101 97
66 68 69 72 75 79 81 83 86 88 90 89 88 85 85 85 87 87 89 92 93 96 94 92 96 99 105 111 116 121 126 130 135 138 136 126 117 113 109 101 91 88 85
69 72 75 77 80 82 84 86 87 86 83 81 82 81 84 86 87 89 91 93 92 91 93 97 102 107 111 118 124 128 131 134 133 130 122 117 112 106 99 89 84 79 77
74 77 79 80 82 85 83 82 80 76 77 78 80 83 84 85 87 90 91 90 91 94 99 104 110 114 120 126 131 135 136 132 122 114 109 105 101 94 88 83 77 72 69
76 78 81 82 79 76 73 73 75 75 77 78 79 83 84 86 88 89 89 92 96 102 108 112 116 121 126 132 135 136 129 120 112 105 100 95 90 85 80 75 71 66 62
77 75 71 68 67 68 69 71 72 75 76 78 81 83 85 85 85 87 92 98 104 109 113 118 122 126 131 134 133 125 117 109 103 98 93 87 81 76 72 67 64 60 55
63 60 62 65 64 64 68 70 72 74 77 80 81 80 78 81 87 93 99 105 111 114 120 124 127 130 132 128 121 112 105 100 95 91 86 81 75 68 65 60 56 52 47
58 58 58 60 64 68 69 71 74 76 79 76 74 77 82 88 94 101 107 112 118 122 125 129 131 129 123 116 107 101 95 90 86 81 78 73 68 62 57 53 47 43 39
53 56 60 65 68 70 72 74 75 71 68 72 77 82 89 95 101 107 113 120 124 128 132 134 128 120 112 103 97 92 89 84 80 75 71 66 61 57 52 46 41 36 34

GFSMW_250_spd_021.txt.gz
Wind_Speed
41 40 40 44 42 42 41 39 39 35 34 33 37 40 36 39 39 41 41 39 41 42 41 41 42 42 44 43 43 45 46 45 47 50 54 56 60 61 65 68 70 74 76
39 39 40 37 36 33 34 33 32 33 33 36 36 38 40 40 40 41 42 43 43 42 42 44 45 46 48 49 50 51 52 53 51 52 54 57 63 63 67 70 73 75 77
39 39 36 34 30 31 33 33 34 33 33 34 33 33 34 38 42 43 43 44 44 44 44 46 47 49 50 51 53 54 55 59 60 61 62 63 65 67 73 75 79 81 84
39 39 36 33 33 32 33 32 29 28 28 30 32 32 34 34 34 34 34 37 39 41 44 46 49 51 52 54 55 57 58 60 64 68 68 67 68 68 67 76 83 86 89
41 41 37 35 36 34 33 29 27 26 27 27 28 30 33 33 33 34 36 38 40 41 44 47 49 52 54 57 59 61 62 63 65 68 73 75 77 77 76 71 80 88 93
44 43 39 38 39 38 36 32 30 28 29 30 31 33 36 38 39 40 42 44 47 50 52 55 57 59 61 63 65 66 68 70 71 73 75 76 79 82 86 86 86 87 91
48 44 40 41 43 39 35 33 32 32 32 34 35 36 38 40 43 43 45 48 52 55 58 61 64 66 68 70 71 73 74 76 78 80 81 84 87 90 91 92 90 87 88
48 44 42 46 43 40 37 34 33 35 37 39 39 39 41 44 46 48 51 53 57 61 64 68 70 72 73 75 77 78 80 82 83 85 87 89 94 96 98 97 93 88 90
48 44 46 47 43 42 39 37 37 38 38 39 39 43 46 48 51 55 57 60 64 66 69 73 77 79 80 80 82 83 84 86 87 89 92 95 98 98 99 99 100 102 95
48 47 47 48 45 42 40 40 40 39 40 43 45 47 51 54 58 61 63 66 69 74 77 80 83 86 86 86 87 88 88 89 92 95 97 98 99 100 101 104 106 108 108
49 48 49 48 46 42 41 41 41 41 44 47 49 53 57 60 65 67 69 72 76 80 83 87 90 91 90 91 90 90 91 94 97 98 96 97 101 105 107 108 109 112 117
50 50 49 47 44 45 45 45 46 47 49 52 55 59 63 67 71 74 75 79 83 85 90 93 94 94 93 92 92 93 96 97 96 96 99 104 105 106 107 110 113 119 124
53 53 50 48 46 48 49 50 51 52 54 58 62 65 69 73 77 78 81 85 88 92 96 97 95 95 94 94 96 98 96 95 98 101 101 102 104 108 112 118 122 127 131
54 53 50 49 49 51 53 54 56 57 60 64 68 72 76 79 82 84 87 90 94 98 99 97 95 95 96 97 97 96 96 99 99 99 102 107 111 116 120 125 129 131 133
54 54 53 51 51 54 57 58 60 63 66 70 74 79 81 84 86 89 92 96 99 99 98 95 96 97 98 98 98 96 96 97 98 104 109 114 119 124 128 131 131 131 123
55 55 54 54 56 57 59 62 65 68 72 76 80 82 84 88 91 94 97 100 99 95 94 95 97 98 99 98 98 96 96 100 105 110 115 121 126 130 133 132 124 117 112
57 57 56 58 60 61 64 67 70 74 78 80 81 84 89 92 95 98 101 97 93 94 95 96 97 97 98 98 98 99 103 109 114 118 122 127 132 133 127 118 113 109 108
56 57 59 61 63 66 68 71 74 77 79 82 86 89 93 96 99 97 91 90 93 94 94 97 98 99 98 98 102 107 111 116 121 124 130 132 130 122 114 106 103 103 100
56 58 61 64 66 68 71 73 76 80 84 87 91 93 96 96 90 87 90 91 92 94 95 98 97 96 100 106 111 115 119 122 125 130 133 127 116 110 106 101 96 93 88
58 60 62 64 67 70 74 77 81 85 88 90 93 94 88 84 86 87 88 89 91 95 96 94 97 101 107 113 118 121 123 126 130 130 123 115 108 104 99 93 86 82 78
61 64 66 68 72 75 78 82 85 88 90 90 85 82 83 84 85 87 89 92 94 92 93 97 103 111 116 120 123 125 130 131 125 119 111 105 101 94 89 83 77 72 70
65 67 69 73 76 79 82 85 87 86 81 80 80 80 82 85 85 88 91 90 88 93 98 104 110 117 121 125 127 132 131 125 117 109 104 97 91 86 80 74 69 65 61
70 72 74 76 79 81 83 81 76 75 75 76 78 82 84 84 86 87 84 89 93 99 105 111 115 120 124 128 130 126 120 113 107 103 95 88 82 78 71 66 62 58 53
73 74 75 77 78 74 70 71 71 72 74 77 79 81 82 84 81 84 89 94 101 107 113 117 121 125 127 125 119 113 106 101 97 92 87 81 75 70 65 59 54 49 44
69 67 65 64 65 65 67 68 70 74 75 77 79 79 77 78 84 90 96 103 110 115 118 123 127 125 120 113 106 102 97 91 87 82 78 73 67 61 56 51 45 40 36
58 59 59 61 63 65 67 69 70 73 75 74 72 72 77 83 90 97 104 111 116 122 128 131 126 120 113 104 99 96 91 84 80 75 71 65 59 54 48 42 36 32 29

GFSMW_250_spd_024.txt.gz
Wind_Speed
55 52 44 42 39 39 40 45 49 50 50 49 48 48 44 43 43 44 45 44 45 45 45 45 47 50 48 49 50 51 50 50 53 56 57 59 58 61 63 66 67 70 71
56 51 42 39 38 39 41 42 40 41 40 40 41 40 42 41 42 43 43 45 45 46 46 47 49 49 48 47 49 50 51 51 52 55 57 61 64 64 66 70 72 75 78
56 51 41 38 37 37 37 38 40 38 38 38 37 38 39 43 40 39 36 37 38 39 40 41 42 43 43 44 46 49 52 54 55 55 58 59 64 68 73 75 78 79 83
57 49 42 39 37 35 35 34 35 35 33 36 37 37 39 38 37 38 38 39 39 38 40 42 43 45 46 48 50 53 56 59 62 64 65 65 65 67 67 78 83 86 89
55 48 41 40 38 35 34 36 35 34 34 31 32 34 35 38 38 38 39 41 41 42 44 45 47 49 52 54 56 59 61 63 66 70 72 73 73 74 73 71 79 87 92
55 50 43 43 40 37 37 38 39 37 35 34 36 37 37 39 41 42 43 44 44 45 47 50 52 55 58 60 62 65 68 70 73 76 76 78 79 82 83 81 80 80 85
56 51 44 44 40 41 40 42 42 41 39 38 39 39 40 41 43 45 45 46 48 49 53 56 58 62 64 68 71 73 77 81 83 83 84 85 85 85 85 84 83 85 90
56 49 44 45 44 44 42 44 46 45 42 42 42 43 43 45 46 47 48 51 53 56 59 63 66 68 71 74 78 81 86 89 91 90 89 88 88 89 91 93 95 94 92
56 49 46 49 46 46 46 48 48 47 45 44 45 45 47 48 49 51 53 55 59 62 66 70 72 75 78 81 84 88 93 95 95 92 91 91 92 96 99 100 97 93 87
54 49 49 51 48 48 48 49 50 49 48 48 49 50 50 51 52 54 58 60 63 68 72 77 79 81 85 88 91 97 99 98 95 93 94 96 99 99 99 99 99 99 98
53 51 50 51 50 50 50 51 52 51 51 51 52 52 53 55 57 59 63 66 69 75 80 82 85 89 92 95 99 101 100 95 95 97 99 99 99 98 99 99 99 101 106
54 51 52 52 51 51 52 52 53 54 53 53 55 56 57 59 62 66 69 72 78 83 85 88 92 95 98 102 104 100 95 96 98 100 101 99 98 98 100 102 105 110 117
54 53 53 53 52 53 53 52 53 53 54 56 58 60 62 65 68 72 75 80 85 88 90 94 98 101 104 105 99 95 97 99 100 101 99 98 98 101 106 112 116 121 124
55 53 53 54 53 53 53 54 54 55 57 60 62 65 67 70 73 77 81 86 90 92 95 99 103 106 104 97 97 98 99 100 99 99 99 102 106 112 116 120 125 127 129
55 54 53 54 54 54 55 56 57 58 60 62 65 69 71 74 78 83 87 91 93 97 101 104 108 102 96 98 98 98 98 99 98 100 105 110 116 121 125 128 129 130 125
55 54 53 54 55 56 58 59 60 62 63 67 69 71 75 79 83 87 90 94 98 102 105 107 98 97 98 99 99 97 97 97 102 107 113 119 124 128 130 130 127 122 114
52 52 52 55 56 57 59 61 63 65 68 70 73 77 80 83 87 90 94 99 103 106 103 97 97 98 99 98 97 96 99 105 112 117 123 126 129 130 124 117 113 109 105
51 51 53 54 56 58 60 62 65 68 72 75 77 80 83 86 90 94 99 103 104 98 96 96 98 97 97 96 96 101 107 115 121 126 129 131 125 119 112 105 100 98 94
53 52 54 56 58 59 61 64 67 70 73 77 79 82 86 90 94 99 102 99 94 94 96 97 95 96 94 98 103 110 116 123 126 130 131 123 114 108 102 98 92 89 84
54 55 55 56 57 59 61 65 69 73 75 78 82 86 90 94 98 99 93 92 91 94 94 94 92 93 99 106 113 119 123 126 128 127 122 114 108 102 95 88 83 81 76
55 57 58 59 60 63 65 69 72 74 78 82 86 90 94 96 92 89 89 91 90 91 90 89 95 101 108 114 120 126 130 129 123 118 111 105 99 93 87 82 77 73 70
56 58 59 61 63 66 68 71 75 79 83 86 90 92 90 86 86 87 88 88 86 84 88 94 101 109 115 121 126 129 128 123 116 110 104 96 90 85 80 77 72 66 61
57 59 61 63 66 68 72 76 79 83 86 88 86 83 81 82 83 84 84 82 83 89 94 100 107 113 120 126 127 124 117 112 107 103 95 88 84 80 75 70 64 59 56
59 61 64 67 70 73 76 80 82 82 81 79 77 77 78 79 80 78 79 84 89 95 101 107 113 119 125 124 117 110 106 101 98 93 87 83 79 75 70 62 57 53 48
64 66 69 71 74 76 77 76 75 74 73 73 73 74 75 74 74 79 84 91 97 102 107 113 119 122 120 114 107 101 97 92 88 83 81 78 72 65 60 56 51 46 39
67 70 70 70 70 68 67 68 69 69 71 69 70 69 69 72 78 84 92 98 102 108 115 121 121 118 112 104 98 95 91 85 82 80 76 71 64 59 53 49 44 38 34

GFSMW_250_spd_027.txt.gz
Wind_Speed
75 73 67 62 59 54 51 49 46 50 56 59 61 61 64 60 62 60 54 54 52 50 49 46 44 44 43 43 43 44 44 45 47 49 52 53 56 58 61 63 65 67 69
73 73 70 65 57 53 50 49 43 40 44 47 49 51 54 50 49 49 49 50 47 48 44 41 41 43 43 44 44 45 46 48 50 52 54 58 59 60 63 67 70 72 75
72 72 69 64 57 53 50 48 48 40 38 38 39 40 43 45 46 46 45 45 48 44 42 43 43 43 44 46 47 49 52 54 55 57 59 60 65 68 74 77 79 80 82
70 73 69 64 59 52 47 45 45 42 39 39 41 42 43 44 44 42 43 43 42 42 43 43 45 45 47 50 52 54 59 61 64 65 67 69 70 72 74 83 88 88 88
70 71 72 67 57 51 48 45 44 38 37 38 39 39 40 41 39 40 40 40 42 43 44 47 48 49 50 52 55 59 62 66 69 71 74 77 79 80 80 81 88 90 92
72 72 72 65 56 52 49 47 42 38 38 39 38 38 39 39 39 40 41 43 44 46 47 51 52 54 56 58 61 65 69 72 75 79 81 84 86 90 94 93 92 89 86
69 72 71 66 57 53 48 47 41 39 41 42 43 43 41 42 42 42 44 46 48 50 52 54 57 59 62 64 67 73 76 80 83 86 90 92 95 99 103 101 94 86 85
70 72 71 65 56 52 50 48 42 41 43 45 45 46 47 47 47 48 49 50 52 54 56 58 60 63 67 70 74 78 84 88 90 94 98 101 105 108 103 96 93 88 91
72 71 71 63 54 53 51 47 44 43 46 47 48 49 50 50 50 51 52 53 56 59 60 63 66 69 74 77 81 87 92 94 98 103 107 110 109 100 99 100 102 101 90
75 72 70 60 54 54 52 48 46 46 48 48 50 51 51 52 53 55 56 58 62 64 65 69 72 76 81 83 89 95 97 101 106 110 114 109 101 102 104 104 100 99 97
76 73 70 60 55 54 52 49 48 49 50 50 52 53 53 54 57 59 61 63 66 69 71 74 78 82 86 90 96 99 103 108 112 116 107 104 105 106 103 102 102 101 105
72 71 67 59 55 55 53 51 50 51 51 51 54 54 56 57 60 62 65 68 71 74 77 80 83 87 92 97 101 105 111 114 117 108 106 108 106 102 102 101 103 108 116
71 69 63 58 55 55 54 52 52 51 51 53 55 56 58 60 62 65 68 72 75 78 81 85 89 94 98 103 107 111 116 117 108 108 108 104 102 101 103 108 114 120 125
71 68 61 56 54 54 54 53 52 51 52 54 56 58 60 62 65 68 72 75 79 82 84 89 94 98 103 107 111 116 114 108 109 107 102 101 102 108 113 119 123 127 131
67 63 58 56 55 54 52 51 51 53 54 56 59 61 64 66 70 73 76 80 83 86 91 95 99 103 106 111 115 109 108 108 104 101 101 107 112 118 123 127 130 133 128
64 61 58 55 53 51 50 50 51 54 56 59 62 65 67 71 73 77 80 84 88 92 95 98 103 107 111 113 106 107 103 100 98 102 108 115 121 125 129 132 132 127 113
60 57 54 52 50 49 49 50 54 57 60 62 65 68 71 74 77 80 83 88 92 95 99 102 106 111 108 105 104 99 97 99 106 112 118 122 128 130 130 125 121 112 106
56 53 51 49 48 49 49 52 55 58 61 63 66 69 72 76 79 82 87 91 95 98 102 107 108 103 104 101 97 95 100 106 114 121 127 129 130 128 121 113 108 104 99
53 51 49 48 48 50 52 54 56 59 61 65 68 71 73 77 81 86 90 94 98 102 106 102 101 101 98 94 95 100 106 114 121 127 131 131 124 117 110 104 100 95 90
52 50 50 51 51 50 51 54 57 60 63 67 69 73 76 81 85 89 93 98 101 100 97 99 98 94 91 96 101 108 114 119 124 130 128 122 116 109 103 97 91 87 83
50 49 49 49 50 53 55 59 61 64 67 70 73 77 81 85 89 93 97 96 93 93 94 93 89 91 96 101 108 115 121 125 127 124 118 113 106 101 95 89 83 78 75
49 50 50 50 53 56 58 60 63 67 70 74 76 80 85 89 93 93 90 89 91 90 87 86 92 97 103 108 115 122 127 128 121 115 109 102 99 93 87 82 76 72 66
49 50 52 54 56 58 60 63 66 69 72 77 81 85 88 88 85 85 87 87 83 81 84 90 96 102 108 114 121 127 127 120 114 107 101 96 89 84 80 74 68 62 58
51 53 56 57 60 61 64 66 69 73 78 81 84 83 79 80 83 82 78 76 78 84 90 96 100 106 113 120 124 123 116 110 103 98 94 87 82 78 74 69 61 56 52
52 55 57 59 61 64 67 71 74 76 79 76 73 75 78 78 73 70 72 78 84 90 95 100 105 112 119 121 118 113 105 98 93 90 83 79 75 70 65 59 55 51 45
54 56 59 62 66 69 71 73 71 67 68 71 73 72 68 64 66 72 79 84 89 96 101 106 113 120 120 113 108 103 97 90 87 81 77 74 69 64 57 54 49 45 42

GFSMW_250_spd_030.txt.gz
Wind_Speed
68 67 67 69 73 76 75 68 64 63 59 56 53 53 53 57 60 59 60 63 65 65 64 64 56 54 51 51 45 45 46 47 49 51 52 53 56 59 62 64 66 67 69
65 68 68 68 69 72 73 70 62 59 57 52 49 48 50 53 54 57 59 59 61 58 58 51 52 50 49 47 46 46 47 49 51 53 56 58 60 63 66 69 71 73 76
62 68 70 70 69 71 71 69 63 58 53 49 47 45 49 51 51 52 51 50 52 48 48 51 49 46 46 46 46 49 51 53 55 57 58 61 65 66 74 79 80 80 84
59 62 71 70 67 70 68 67 62 56 50 47 45 44 43 42 44 45 45 46 46 46 48 46 44 45 46 47 51 53 55 57 60 61 65 67 68 71 72 84 91 92 95
55 59 68 72 67 66 69 67 60 55 50 48 47 48 47 46 45 46 46 44 44 45 43 43 46 47 49 53 56 58 60 63 66 69 71 74 76 78 76 78 88 95 102
54 57 63 71 67 66 67 65 61 56 50 47 46 45 44 44 44 41 42 43 43 43 43 45 49 51 54 58 61 63 66 69 71 73 76 80 84 88 90 90 90 93 102
54 55 60 66 66 66 67 65 62 55 49 48 46 44 44 44 42 41 41 42 45 46 48 51 53 56 60 64 66 68 72 73 76 79 84 88 90 94 99 100 102 104 109
56 54 58 66 66 64 66 66 61 54 50 48 46 45 45 45 47 47 47 48 49 51 54 56 59 63 66 69 72 75 77 79 82 87 91 95 98 103 107 109 112 114 110
59 58 58 65 67 64 66 65 61 54 51 49 46 46 47 47 48 47 48 49 51 55 58 60 64 68 71 74 77 80 83 86 89 93 98 102 105 111 115 119 123 113 102
57 61 61 63 69 64 65 63 60 54 51 49 47 47 48 49 49 49 51 53 55 58 61 65 68 72 75 78 81 84 87 91 94 98 104 107 112 117 121 125 116 117 111
59 62 64 64 69 63 64 62 59 55 52 50 48 48 50 50 50 51 54 56 59 62 66 69 72 75 78 81 84 88 92 95 100 104 108 114 118 123 124 116 114 109 108
60 62 67 66 65 61 64 63 61 54 51 50 48 49 50 51 52 54 57 60 63 66 70 72 75 78 82 85 88 93 96 101 105 110 115 118 123 119 117 111 108 110 114
59 62 66 65 63 63 64 59 56 53 52 50 49 50 51 52 55 57 60 63 66 69 73 76 80 83 86 90 94 97 101 106 111 115 119 122 114 113 108 108 112 117 121
58 61 63 64 63 61 60 56 54 53 51 50 49 51 53 55 58 60 63 66 70 73 77 81 84 88 92 94 98 102 107 112 116 120 118 114 109 105 109 114 119 123 127
57 60 58 65 60 58 57 55 53 52 50 49 50 53 56 59 62 64 67 70 73 78 81 85 88 91 94 98 102 107 111 115 118 113 112 104 105 112 117 122 125 128 131
56 54 59 58 57 57 54 52 51 50 49 50 53 55 60 63 65 68 70 74 78 81 84 87 90 93 97 102 106 111 115 113 110 107 101 105 112 119 124 128 131 134 126
48 54 57 55 55 52 50 50 48 48 49 51 55 58 61 64 68 71 74 78 80 83 86 89 93 97 101 106 111 112 107 108 101 101 106 112 119 125 128 131 132 125 114
46 53 53 54 51 50 49 48 47 47 50 53 56 59 62 65 69 72 76 79 82 85 89 93 97 102 107 110 106 105 102 96 101 108 114 119 125 130 132 125 116 111 104
48 51 52 52 50 48 47 47 47 50 53 56 58 60 63 67 70 73 76 80 85 89 93 97 102 106 106 102 101 94 94 101 107 114 121 127 131 129 119 111 106 101 97
49 50 50 47 46 45 46 46 48 51 53 55 59 62 65 69 72 77 80 84 88 92 98 103 104 98 98 92 89 95 100 106 111 119 127 130 127 115 110 103 99 95 89
47 45 44 43 42 43 45 47 48 51 54 58 61 65 68 72 75 80 83 87 92 97 99 96 95 91 85 89 95 101 107 113 118 125 129 124 113 108 103 99 94 86 81
43 42 41 42 43 44 46 48 52 55 58 60 64 68 71 76 80 83 88 93 96 93 90 89 84 85 90 96 102 108 115 120 125 127 122 112 108 103 97 93 85 79 73
43 43 44 45 46 48 51 53 55 58 61 64 68 72 76 79 84 89 92 89 86 86 81 79 84 90 98 104 109 116 122 127 127 120 112 106 100 95 89 82 77 71 65
43 43 43 45 47 49 51 54 57 61 65 69 73 75 80 84 87 86 82 84 79 74 77 82 88 96 103 109 115 123 127 124 115 110 103 96 91 84 79 76 70 63 58
45 45 45 46 48 50 53 57 61 64 68 71 75 80 81 80 79 79 77 71 72 76 81 88 96 102 109 115 122 124 118 109 103 95 91 86 80 75 70 64 60 56 51
44 46 48 50 52 55 58 61 64 67 71 75 75 73 74 74 74 69 69 71 77 82 88 96 102 108 116 122 121 115 110 98 91 88 83 77 73 69 63 57 51 47 46

GFSMW_250_spd_033.txt.gz
Wind_Speed
61 60 57 57 63 71 75 72 71 72 71 69 67 61 58 57 56 55 52 50 51 54 58 60 62 61 63 65 66 63 57 56 55 54 52 51 53 56 59 61 62 63 65
62 62 60 55 62 69 74 72 71 70 69 69 67 62 56 56 57 54 49 48 50 53 56 58 60 61 62 62 58 55 55 54 53 53 54 55 57 61 64 66 67 69 72
63 66 63 57 58 67 72 73 70 69 67 66 65 63 57 54 53 50 50 50 52 54 55 57 58 57 55 53 53 54 53 50 52 55 57 60 62 65 71 73 75 76 79
63 64 64 59 56 62 70 73 70 66 65 65 64 61 58 52 51 49 49 48 50 52 52 53 51 50 51 51 52 51 50 52 55 58 61 64 67 69 72 81 85 84 88
63 64 66 59 57 59 65 71 70 64 63 64 62 60 56 51 50 48 49 48 48 48 46 47 49 49 49 50 51 51 53 56 60 63 66 70 72 74 75 77 86 92 95
65 63 63 56 55 56 60 67 69 65 62 62 62 58 53 49 50 50 51 51 50 48 46 44 45 47 49 50 53 56 59 62 66 69 73 76 79 82 82 82 85 88 96
67 64 57 56 56 56 57 60 67 64 61 61 61 58 53 50 50 50 48 50 48 46 43 45 47 49 52 54 58 61 64 68 71 75 78 82 84 86 88 88 88 88 93
68 61 56 56 57 56 56 56 61 62 59 61 60 56 53 50 50 48 48 49 49 49 49 51 52 52 56 59 61 65 69 72 76 79 82 85 87 90 92 94 94 94 100
67 59 53 55 55 55 54 55 58 60 59 59 59 57 52 51 50 49 49 51 51 52 52 53 54 57 59 62 65 68 72 76 80 83 87 90 92 95 97 99 102 103 103
61 53 49 51 53 56 53 53 56 59 58 59 59 57 53 51 51 51 52 52 53 53 55 57 59 60 63 66 69 73 77 82 85 88 92 95 96 100 103 106 111 116 118
63 56 48 51 54 57 54 50 54 58 58 59 58 56 53 51 52 52 53 54 55 56 57 60 62 64 67 70 73 78 82 87 91 94 96 99 101 105 109 114 119 123 120
62 56 51 52 54 55 53 50 53 58 59 59 58 55 53 52 53 54 55 55 57 58 60 63 66 68 71 74 79 83 87 92 95 97 99 102 106 111 116 120 122 115 114
61 56 51 51 53 54 51 50 54 57 58 59 57 54 53 53 54 55 55 56 57 60 63 66 69 72 76 79 83 88 92 96 98 100 103 107 112 117 121 117 112 106 110
61 54 51 51 53 53 51 53 54 56 58 58 56 53 53 53 55 56 55 57 59 63 66 69 73 77 81 85 89 92 97 99 101 105 109 114 119 118 111 105 105 112 118
56 51 51 49 50 51 51 51 55 57 57 57 55 54 54 55 56 56 56 58 61 66 70 73 77 82 86 89 93 96 98 102 107 111 116 118 112 106 102 107 113 120 126
52 50 50 49 49 50 50 49 54 54 55 54 53 54 54 55 55 56 57 60 64 69 72 77 81 85 88 91 93 97 102 107 111 116 113 107 99 104 109 116 123 129 131
47 50 50 50 52 47 43 45 52 52 54 54 54 53 52 54 55 57 58 62 66 70 74 79 83 85 89 93 97 102 106 112 113 108 102 100 105 111 117 123 130 134 133
44 48 49 49 45 41 40 46 50 52 52 52 50 50 51 54 55 57 60 65 69 74 77 80 84 88 92 98 102 107 112 110 105 97 101 106 112 120 124 127 131 127 116
37 36 36 34 33 37 41 46 48 50 48 48 48 49 51 53 55 59 64 69 73 76 80 83 87 93 98 102 108 109 104 96 95 102 108 116 122 127 128 128 117 110 104
22 25 25 27 32 37 40 43 45 44 44 45 47 49 52 55 58 63 67 71 75 79 83 87 93 97 103 107 104 98 88 95 100 109 118 124 128 129 127 112 104 101 98
17 20 24 28 32 36 39 41 41 41 43 45 47 50 53 57 61 66 71 74 78 83 88 93 97 102 101 98 89 89 95 100 108 116 124 127 129 122 108 102 99 95 91
16 21 24 29 33 36 38 38 39 40 42 45 48 51 55 60 66 70 74 78 83 87 91 97 100 97 93 85 89 95 103 110 117 123 128 129 117 105 102 98 94 88 81
15 21 27 32 34 35 37 38 39 41 44 46 50 55 61 66 70 73 77 81 85 91 95 93 92 87 86 90 96 103 110 117 123 129 130 114 104 101 97 90 84 79 72
20 24 29 33 35 36 38 40 41 43 47 52 57 61 65 68 72 76 79 84 89 88 88 85 80 83 89 95 102 109 116 122 128 127 114 104 99 94 87 81 76 70 65
24 28 32 36 38 39 41 43 46 50 54 57 60 63 68 71 75 80 84 83 82 82 79 77 82 88 95 101 107 114 120 124 121 108 99 95 89 81 77 71 65 63 58
26 30 34 38 41 44 46 49 52 55 58 61 64 67 71 76 79 77 76 78 77 74 75 80 87 94 101 106 113 120 123 116 104 96 91 85 78 75 70 64 58 53 50

GFSMW_250_spd_036.txt.gz
Wind_Speed
58 62 65 67 66 63 62 64 62 62 63 65 68 69 72 70 67 65 63 59 58 55 53 56 54 55 57 58 59 60 62 64 66 67 68 64 60 58 58 59 59 60 63
57 59 64 69 66 63 62 63 64 62 58 61 65 67 69 69 67 64 64 62 59 54 55 56 53 54 55 55 56 58 60 63 64 65 61 58 58 58 59 60 62 65 68
66 62 63 67 70 66 64 65 64 63 60 58 61 65 66 68 67 65 63 61 59 55 55 55 54 54 54 56 57 59 59 59 58 59 58 58 58 57 61 65 67 69 73
74 69 69 67 68 66 68 68 68 63 61 59 59 64 64 65 65 62 60 61 61 56 54 55 55 54 55 57 56 56 55 55 57 57 57 57 57 59 64 71 74 78 80
80 77 69 68 69 66 63 65 65 61 63 60 61 64 64 63 63 59 61 62 58 57 56 56 55 55 55 54 53 53 51 52 54 55 56 60 63 65 67 73 79 82 85
87 85 77 70 69 66 62 64 62 60 60 61 61 65 64 61 58 59 62 61 59 58 57 58 58 58 58 55 54 48 50 53 56 58 61 64 67 70 72 73 78 82 90
86 86 80 73 69 65 62 64 61 59 59 60 61 62 62 59 54 60 62 60 58 58 58 58 58 57 57 55 51 52 55 57 58 62 65 68 71 74 76 79 81 84 90
78 77 78 72 68 65 60 63 60 55 55 58 59 59 60 59 59 59 59 58 58 58 58 59 58 58 58 56 56 58 59 60 63 66 69 73 76 79 82 85 87 89 93
83 77 76 72 65 63 60 61 56 53 53 55 55 57 58 58 57 61 60 60 59 59 59 59 59 60 60 60 61 62 62 65 68 71 75 78 81 85 88 92 95 94 92
92 79 76 68 64 61 59 56 51 50 50 49 54 56 57 58 60 61 61 61 60 59 59 60 61 62 62 63 64 65 67 70 73 77 81 84 88 91 94 97 100 102 101
86 77 74 67 62 58 57 53 49 49 46 45 52 56 58 57 59 62 61 60 59 59 60 61 62 63 64 65 67 69 72 75 79 81 86 90 93 96 99 102 104 107 111
80 73 72 68 62 56 55 50 47 45 44 44 47 55 58 57 59 62 61 60 60 60 61 62 63 65 66 68 69 72 76 79 83 87 90 93 96 99 103 106 110 113 118
73 70 67 65 59 54 49 43 43 45 48 47 46 53 57 59 61 62 62 62 60 60 61 62 64 66 69 71 73 76 80 83 87 90 94 97 100 104 107 111 116 121 120
66 64 60 62 56 52 47 43 43 47 48 48 49 52 57 61 62 63 64 62 60 61 61 63 66 68 70 73 75 79 83 86 90 94 97 100 103 108 112 118 119 115 112
59 56 56 55 52 50 47 43 43 46 47 48 49 51 57 60 62 63 62 61 60 60 62 65 66 70 72 75 78 81 85 90 94 97 100 105 109 114 119 115 112 106 112
54 51 50 49 49 45 42 44 46 47 48 49 48 50 57 60 62 63 61 58 59 61 64 66 69 72 75 77 81 85 89 93 97 101 107 111 115 119 114 107 109 116 121
49 47 45 47 46 44 43 45 46 47 48 49 49 50 57 59 59 59 59 58 60 62 65 68 71 74 77 81 85 89 93 98 103 108 112 116 116 112 105 108 116 123 128
46 43 41 43 43 44 46 45 47 47 46 47 46 48 54 55 56 57 57 58 60 63 66 69 72 76 80 85 88 93 98 103 108 113 118 113 108 104 110 116 123 128 133
48 44 44 45 45 45 46 46 47 45 42 41 41 46 50 52 53 55 56 58 61 64 67 71 76 80 84 88 93 98 102 107 113 116 111 105 105 113 119 123 127 133 134
39 42 45 47 46 44 43 43 40 40 38 37 39 43 46 48 50 53 56 59 62 66 71 75 78 83 89 93 98 102 108 112 111 107 101 105 112 120 126 129 132 129 113
16 30 35 36 36 34 33 33 33 32 30 32 36 40 41 44 49 53 57 60 64 69 73 77 82 87 92 97 102 108 110 107 102 99 105 113 119 125 129 132 123 109 103
8 8 11 16 18 18 17 17 18 21 26 30 34 36 40 46 50 54 58 62 66 71 77 82 87 91 96 101 105 105 103 98 98 105 113 120 125 129 132 118 108 102 97
10 8 6 7 8 10 13 16 19 24 28 32 36 39 43 48 53 57 61 66 71 76 81 86 91 97 100 101 100 96 95 100 107 114 122 127 130 129 113 105 99 94 86
5 2 4 6 9 12 15 19 23 28 33 36 39 44 48 53 57 61 66 71 76 80 85 90 95 96 96 93 89 95 101 107 114 121 126 129 122 110 103 97 90 84 79
5 6 7 9 12 16 21 25 29 33 37 41 46 50 54 59 63 68 72 76 80 84 88 90 90 87 84 88 94 100 106 113 118 123 124 113 104 99 93 86 79 74 69
10 12 14 16 19 23 28 32 36 41 45 49 53 57 61 65 69 73 76 79 83 84 83 78 77 82 87 93 98 104 112 117 121 117 107 98 94 88 83 77 70 64 61

GFSMW_250_spd_039.txt.gz
Wind_Speed
64 62 62 59 62 61 60 62 63 65 68 64 61 60 60 61 63 65 67 69 72 73 70 68 66 64 61 59 59 59 57 56 56 53 54 57 60 62 63 63 65 60 60
69 67 65 64 64 64 62 62 63 64 68 66 62 59 55 59 60 60 62 65 68 72 72 70 68 65 61 60 59 58 56 56 55 54 55 57 60 62 62 61 59 59 61
73 71 69 66 65 65 66 62 60 64 67 66 63 60 59 58 56 58 61 62 65 66 67 68 68 64 63 61 59 58 58 57 56 58 59 60 59 57 58 58 57 60 61
77 76 74 72 69 66 68 66 60 60 66 67 63 61 60 59 58 59 60 63 63 68 70 68 69 65 63 61 60 61 59 59 59 58 57 55 55 53 55 58 60 62 65
85 79 79 77 75 71 70 72 67 61 63 66 63 64 63 62 60 60 61 64 65 68 70 71 69 64 62 61 62 61 62 61 62 61 58 59 55 55 56 61 64 65 70
92 89 86 84 81 77 72 71 71 65 64 67 62 63 60 61 61 60 60 64 66 68 69 68 67 63 62 61 63 63 63 63 63 61 61 58 59 61 62 62 67 70 76
97 96 91 89 86 83 79 73 74 72 68 68 62 61 59 58 57 57 57 62 67 67 69 68 66 64 63 62 63 64 64 65 65 64 64 65 66 67 69 69 71 74 80
97 98 97 91 89 85 81 78 77 72 69 67 61 58 60 57 56 56 56 59 66 67 68 68 66 64 65 63 64 64 65 67 67 68 68 69 71 73 74 76 77 79 83
86 88 90 84 81 79 77 80 78 74 72 67 60 59 58 56 57 54 53 58 65 66 66 68 67 66 66 65 65 65 67 68 70 71 73 73 75 77 79 82 85 86 86
92 89 89 89 77 73 69 68 71 71 69 61 57 58 58 57 54 53 54 57 65 67 67 68 68 66 67 67 66 67 70 70 73 75 76 77 79 81 83 86 89 92 93
87 87 85 89 81 76 70 66 63 64 64 56 56 56 57 56 53 50 50 56 62 66 67 70 70 69 68 68 68 70 71 73 75 77 79 82 83 85 88 91 93 95 97
71 76 79 77 76 75 72 68 64 61 60 53 53 55 57 53 50 48 50 56 61 64 66 68 70 70 69 69 70 72 74 75 77 79 82 84 86 88 91 94 97 99 102
52 56 68 68 66 65 64 67 68 60 56 54 51 56 56 53 48 48 49 53 61 64 66 68 69 69 69 70 71 71 74 77 79 82 85 87 89 92 95 98 101 104 107
43 44 55 57 58 51 53 60 59 57 53 49 52 55 53 51 49 51 51 53 61 65 66 67 67 68 70 71 72 74 76 78 81 84 87 90 92 96 99 102 105 109 113
31 34 45 48 46 41 50 52 54 52 47 48 51 50 49 51 52 53 52 54 59 64 67 66 68 69 71 72 74 75 78 81 84 87 90 93 97 100 104 107 111 116 121
24 30 41 39 37 44 47 50 47 46 47 46 47 47 51 52 52 53 54 54 57 62 65 67 68 70 72 73 74 77 80 83 86 89 93 98 101 104 107 112 116 123 125
19 33 35 32 36 41 44 44 44 45 43 44 46 48 49 51 52 53 55 54 54 59 63 66 68 69 71 72 75 79 82 85 89 93 98 101 105 108 111 117 122 123 123
28 27 28 31 34 37 38 40 41 41 44 45 46 47 49 51 54 54 54 54 53 56 60 64 67 68 70 74 77 80 84 88 93 97 101 105 108 113 118 121 121 118 119
25 25 28 32 35 36 37 38 40 39 40 42 44 46 48 49 50 50 50 48 50 55 58 62 65 68 71 76 79 83 87 92 96 101 105 109 113 119 121 117 115 119 123
23 25 26 28 30 31 33 34 34 37 39 44 45 46 48 48 47 45 43 45 48 52 56 60 63 68 73 77 82 86 90 95 99 105 111 115 118 117 113 115 120 121 127
16 18 20 21 24 27 29 32 35 38 39 41 45 43 41 40 38 37 38 42 46 51 55 60 65 70 75 80 84 90 95 100 105 111 115 117 111 110 116 120 124 128 132
8 19 23 25 27 29 31 33 36 36 35 34 32 31 30 30 31 34 38 42 47 53 59 64 68 73 78 83 91 96 101 106 109 113 109 105 111 117 121 125 129 132 118
12 13 13 13 15 16 18 19 18 18 18 20 21 23 26 29 33 38 43 48 54 59 64 68 74 79 85 90 96 101 105 109 105 101 105 112 117 122 126 129 125 109 101
12 11 11 9 8 8 8 9 11 15 18 21 24 28 31 36 40 45 50 55 60 65 70 76 81 87 92 96 100 102 99 95 99 106 113 118 122 125 127 115 103 95 87
7 8 7 8 9 9 11 14 16 20 23 27 31 35 39 44 49 53 58 63 68 73 78 83 87 90 93 94 91 91 94 99 104 113 118 122 125 120 106 97 90 82 78
9 9 11 12 13 15 17 19 22 26 31 35 39 44 48 52 57 61 66 70 75 79 82 84 85 85 83 84 89 94 99 105 112 117 121 121 109 99 93 86 78 73 70

GFSMW_250_spd_042.txt.gz
Wind_Speed
65 70 69 68 65 63 63 62 61 52 57 51 53 56 58 56 59 60 57 58 58 64 64 66 68 69 71 74 74 73 73 69 65 62 59 60 58 58 57 56 56 57 58
69 66 69 73 71 68 66 66 65 61 57 56 53 54 51 56 60 59 57 58 56 60 61 64 66 67 69 71 73 74 73 71 65 64 61 58 58 57 57 58 58 58 58
74 74 75 72 78 73 70 68 69 68 62 59 55 54 52 54 58 59 59 59 58 60 58 61 66 66 67 69 69 70 71 69 66 65 62 60 58 59 61 61 61 61 61
79 79 78 75 76 79 76 72 68 68 68 62 59 54 53 52 55 58 60 58 57 59 59 58 65 68 69 69 68 67 66 66 65 65 63 62 60 62 63 65 64 63 63
85 84 84 81 76 82 81 76 72 68 69 65 66 59 60 53 50 55 58 60 61 63 64 61 64 68 70 70 70 69 69 68 68 66 65 64 63 64 63 65 64 64 63
90 91 91 89 84 83 83 81 76 72 72 68 71 63 66 60 57 60 59 58 58 61 63 64 62 68 70 70 71 71 72 71 69 67 66 66 67 66 65 65 67 68 72
97 97 97 94 89 87 85 86 82 78 74 72 71 69 69 63 63 63 59 59 57 55 59 63 63 65 70 72 72 72 71 71 69 68 67 68 69 70 68 68 69 70 75
95 92 92 92 91 90 87 89 84 81 81 78 78 75 66 67 64 63 61 60 56 54 57 60 61 64 68 72 74 73 71 71 71 70 70 71 71 72 72 73 73 75 77
90 87 86 85 87 91 89 88 85 83 86 82 83 73 65 66 65 62 63 62 57 55 58 58 58 61 66 71 72 73 73 73 73 73 73 74 74 75 76 77 78 78 78
84 82 80 81 86 90 86 88 86 85 83 82 78 72 70 71 65 61 62 60 57 56 57 57 59 61 67 71 72 73 73 74 75 76 76 77 77 78 80 81 83 85 84
85 80 76 85 86 90 79 81 76 74 73 72 67 65 66 65 63 59 60 57 57 57 56 56 59 60 66 73 74 75 75 76 77 77 78 79 80 81 83 85 87 88 90
69 66 63 74 80 81 74 77 78 71 64 58 60 58 55 57 58 57 58 57 55 56 56 56 57 58 62 68 73 76 78 80 81 82 82 82 84 85 86 87 89 92 95
54 50 56 63 66 63 69 75 68 66 66 66 62 54 47 51 54 55 56 54 56 56 55 54 52 56 60 65 70 73 76 78 80 82 83 84 85 87 89 90 93 96 99
38 41 55 60 56 61 65 62 54 60 69 68 63 51 47 48 51 53 55 56 59 57 53 54 56 57 60 64 70 73 75 77 80 82 83 85 86 87 90 93 96 99 101
28 31 36 36 40 45 44 46 46 51 58 61 58 49 47 47 49 52 56 58 56 55 56 58 57 60 62 63 68 72 75 76 79 81 83 85 86 89 92 94 98 101 104
12 13 16 21 28 33 37 37 37 41 49 54 50 47 47 46 49 53 54 55 54 53 57 60 61 63 66 65 65 70 73 76 79 81 83 85 87 90 93 96 100 104 108
9 11 14 19 22 24 24 25 32 38 42 41 41 43 44 47 49 50 51 47 53 55 59 63 67 68 67 65 62 65 69 73 77 79 82 85 88 91 95 99 104 110 116
27 26 23 21 20 21 23 25 27 29 30 33 37 39 42 43 43 45 46 50 53 58 61 64 66 65 63 60 59 62 66 70 75 78 82 86 91 95 99 103 109 115 121
21 19 19 22 24 25 24 23 24 26 29 31 33 34 35 38 43 45 48 55 58 59 62 63 61 57 53 55 57 61 66 70 74 79 85 90 94 99 104 108 114 120 125
26 25 23 21 19 17 15 17 20 22 24 26 28 30 34 38 40 49 51 53 57 59 58 53 50 49 51 54 59 63 67 73 79 85 91 96 100 105 110 115 118 120 115
18 14 15 14 12 11 9 14 17 17 19 24 25 22 32 41 45 51 55 56 52 49 46 46 48 51 55 59 65 70 74 79 85 91 97 102 107 112 115 117 113 113 117
24 8 10 11 3 13 3 5 16 15 14 18 34 33 43 49 51 47 45 42 41 44 47 50 54 58 62 67 72 78 83 88 93 98 103 106 109 110 111 112 115 120 124
9 8 8 11 15 15 19 25 24 26 29 34 38 34 31 32 33 35 38 42 45 49 53 57 61 66 70 75 80 85 90 95 99 102 104 103 104 108 113 116 121 123 120
5 4 4 5 6 8 11 14 14 13 15 18 21 23 28 34 37 41 44 48 51 56 60 65 69 74 79 82 87 91 94 96 97 98 99 103 109 114 117 122 122 111 99
2 4 4 5 7 7 7 9 11 14 17 20 23 27 32 36 41 45 49 54 59 64 68 72 76 79 82 84 88 88 88 91 95 98 103 110 115 117 120 112 100 92 85
7 7 7 7 8 9 11 13 15 17 18 21 25 30 35 41 46 51 55 59 63 66 69 72 74 77 78 79 82 86 90 94 99 104 110 115 116 114 103 94 87 79 75

GFSMW_250_spd_045.txt.gz
Wind_Speed
80 78 75 75 71 69 68 68 68 64 63 64 62 58 54 50 51 52 51 57 59 54 58 58 59 59 59 60 61 64 67 71 73 72 75 75 76 74 71 69 65 64 62
80 76 74 73 71 70 67 66 67 70 69 68 65 59 56 52 51 51 53 52 51 53 56 59 61 62 61 61 59 60 64 67 69 71 73 74 75 73 72 70 67 66 64
78 76 73 70 70 71 74 73 72 70 70 69 72 67 61 57 55 55 55 54 54 51 49 54 59 62 62 61 62 62 62 63 66 68 68 69 71 70 70 69 68 67 67
80 77 75 74 72 73 77 76 78 77 75 74 73 77 69 63 61 58 56 54 52 45 43 49 55 62 62 62 65 65 65 65 65 66 67 66 65 67 67 69 70 70 71
80 79 80 80 80 78 78 82 82 80 79 76 71 76 76 68 63 59 57 54 54 50 49 52 56 62 64 66 67 70 70 69 67 68 68 66 65 67 69 71 73 73 72
84 85 87 87 87 86 86 85 86 86 85 81 74 71 75 76 69 61 59 54 53 53 56 59 58 58 62 64 66 69 71 72 73 71 71 70 68 69 71 74 76 76 75
91 91 92 91 92 92 92 92 92 91 91 87 79 73 72 78 77 64 62 62 63 64 63 62 61 58 60 64 66 67 68 71 70 73 74 74 73 72 72 74 76 76 76
98 100 99 98 97 98 100 100 98 93 92 92 84 76 75 77 75 68 67 66 63 66 66 65 63 61 60 62 64 63 63 65 68 71 75 78 78 78 77 76 77 76 77
96 97 99 100 100 101 105 106 104 101 93 85 77 71 73 75 70 69 69 71 67 68 66 66 64 61 62 60 61 62 63 65 67 70 74 78 79 80 80 80 81 80 78
99 99 101 99 98 98 98 95 94 90 83 76 71 67 68 70 73 74 74 70 68 67 66 66 64 62 61 61 61 64 64 66 70 72 76 77 80 81 81 82 83 83 83
89 88 89 93 95 96 93 89 86 87 79 69 65 70 70 72 73 73 70 68 67 69 66 64 61 62 61 61 61 63 65 66 65 67 72 76 81 84 85 85 86 88 88
85 79 76 84 90 91 88 87 85 86 84 71 69 68 66 74 74 72 69 66 64 63 62 60 60 62 60 62 64 64 66 65 65 68 70 74 78 81 85 88 89 91 92
68 64 61 66 74 74 70 75 72 68 67 76 79 76 69 63 59 56 53 54 54 55 57 56 59 61 61 61 64 64 65 66 68 68 71 74 77 81 83 84 87 89 92
48 45 44 45 44 48 57 58 56 57 56 62 75 75 67 62 54 48 46 48 48 50 54 56 58 59 62 63 63 64 67 70 72 72 73 75 76 77 79 83 87 88 91
32 31 32 30 34 38 40 42 41 47 52 61 64 64 62 56 53 47 44 45 45 48 52 55 57 57 60 64 64 67 70 74 74 75 75 75 73 72 74 77 81 87 91
15 11 10 12 15 19 26 32 35 40 43 41 49 51 50 50 50 48 45 43 44 48 50 53 52 58 62 60 65 70 73 74 76 75 73 69 67 68 71 75 80 85 90
13 7 3 5 8 9 12 14 16 21 28 34 36 40 42 41 43 43 42 42 45 48 50 49 51 58 63 66 70 73 75 77 76 71 67 67 68 70 74 79 83 89 95
29 28 26 24 23 23 24 24 24 22 22 24 27 29 32 36 37 38 40 44 47 47 47 51 55 59 65 69 71 74 75 72 68 67 67 69 72 76 80 84 90 96 102
28 29 28 27 26 26 26 25 23 20 19 19 20 22 24 28 32 35 40 44 45 45 46 55 59 61 65 69 71 67 65 65 66 69 72 75 78 83 89 92 97 102 107
29 32 33 33 32 28 26 25 23 20 17 16 15 19 22 26 30 36 37 44 48 49 45 52 57 62 67 66 63 62 65 68 72 77 81 84 88 93 97 99 102 106 109
20 21 24 21 17 18 18 14 12 11 12 10 14 17 23 28 33 35 39 41 43 50 55 58 59 59 58 59 63 66 70 75 80 84 89 93 96 99 101 103 104 105 106
17 13 11 19 12 11 11 15 9 11 9 11 16 19 23 29 31 34 38 44 52 57 61 61 60 60 62 66 70 74 78 81 85 90 93 96 98 99 101 103 106 107 109
7 4 3 9 15 12 4 3 12 4 9 14 20 23 26 27 30 35 46 47 47 51 53 55 58 62 67 71 75 79 82 85 88 90 91 92 95 99 103 106 109 112 114
1 6 5 3 10 12 12 12 13 15 17 18 22 29 33 38 41 43 40 40 43 48 53 57 62 66 68 71 73 76 79 81 84 87 90 93 99 104 109 112 114 114 110
5 2 2 3 4 6 9 11 14 14 14 15 18 21 24 27 31 35 40 45 49 53 57 61 65 69 72 72 74 76 78 82 88 93 98 103 108 110 113 112 106 98 92
5 3 4 4 5 6 7 8 9 11 13 16 19 23 29 34 39 43 47 51 55 59 63 66 68 67 66 69 73 79 85 91 96 101 105 108 110 108 101 94 89 83 77

GFSMW_250_spd_048.txt.gz
Wind_Speed
74 73 75 77 77 76 74 73 72 74 76 72 69 67 68 64 63 61 61 63 62 61 57 55 58 56 58 62 64 65 64 63 64 64 64 65 67 67 70 72 73 73 74
77 77 79 79 79 82 81 80 80 80 72 71 72 69 71 65 64 63 61 65 67 62 57 57 55 54 56 59 61 64 63 63 65 66 65 65 64 64 67 69 70 71 71
80 80 81 82 83 84 84 85 86 81 76 69 66 70 69 64 62 63 62 66 70 59 58 62 60 56 56 59 60 58 60 62 64 66 67 67 67 67 67 66 66 68 69
85 86 87 89 88 87 89 90 88 83 79 73 67 69 73 73 70 68 66 65 70 68 63 59 57 56 60 58 56 59 61 66 67 66 69 70 70 70 70 69 68 69 69
88 91 93 93 93 92 92 89 88 86 83 78 74 71 71 75 75 73 71 65 59 60 62 63 62 63 63 62 56 61 66 69 67 66 66 68 69 71 72 72 72 71 72
93 93 93 94 94 94 93 91 89 89 88 88 83 78 75 75 76 76 77 71 68 61 67 68 69 68 70 66 65 70 69 71 70 68 67 67 68 68 68 71 73 73 76
96 97 96 93 93 94 95 95 95 94 94 93 90 85 81 80 79 80 82 80 73 64 68 72 71 72 71 68 72 72 69 72 73 70 67 65 63 65 67 69 71 74 78
97 98 97 97 98 99 99 99 101 101 101 98 93 90 86 83 81 79 85 83 76 69 70 73 72 71 72 74 71 70 68 72 75 72 69 67 67 67 67 68 71 73 75
91 94 96 97 98 100 101 103 104 104 103 101 100 97 92 88 85 84 85 83 80 76 73 71 70 69 69 70 70 70 70 73 75 73 70 69 69 69 69 71 71 72 73
89 93 94 96 101 104 107 108 106 102 98 96 94 93 90 87 86 84 82 76 69 68 69 71 68 69 66 69 70 72 73 74 73 74 71 69 69 71 70 70 72 72 73
87 90 93 98 101 103 105 105 103 98 96 95 93 93 92 88 81 73 69 66 62 62 65 69 67 66 67 68 72 74 73 72 74 73 70 70 71 70 71 70 71 73 74
83 87 88 88 91 95 98 101 101 100 98 91 90 85 82 77 71 69 68 67 64 61 61 64 67 66 67 70 72 71 69 71 71 72 71 72 71 72 73 72 75 78 79
78 82 81 77 78 79 86 91 94 94 97 94 92 90 87 84 77 70 66 62 59 61 62 64 65 65 66 67 68 63 69 68 72 71 70 72 72 74 76 79 80 81 81
60 59 55 52 53 55 60 63 69 74 77 76 72 70 71 73 70 72 74 62 53 51 54 55 56 58 60 62 61 62 67 70 73 72 72 71 74 78 81 82 82 80 76
52 45 40 40 42 40 42 45 48 54 54 53 52 55 54 52 54 60 69 64 54 47 44 48 50 53 53 58 57 62 66 70 71 74 70 75 78 83 85 83 79 75 77
34 37 32 26 22 25 26 26 29 32 34 33 38 41 42 47 53 57 59 57 51 51 50 47 50 48 50 55 59 65 70 70 70 68 71 76 83 84 80 78 78 80 82
24 24 22 15 11 5 4 5 11 16 19 26 28 32 39 46 49 44 42 43 45 47 47 46 47 49 53 57 64 66 69 66 70 74 78 82 81 79 79 82 84 88 93
18 19 22 20 16 11 11 12 16 15 14 15 17 19 21 22 26 31 32 34 39 42 44 45 43 53 57 62 65 64 65 67 71 72 75 78 79 81 86 89 92 96 99
18 17 21 25 27 28 29 29 27 25 24 23 20 19 20 18 21 23 26 30 36 40 42 46 51 57 60 61 61 62 64 68 70 73 77 81 86 88 92 94 97 100 102
12 17 20 25 26 29 30 31 30 30 31 28 20 20 17 18 20 28 30 33 40 42 46 49 50 52 55 53 57 60 61 66 70 75 80 85 87 90 92 93 94 95 97
10 15 16 14 20 19 19 23 26 25 20 18 20 16 16 18 22 27 31 35 36 38 40 45 51 53 49 53 58 62 68 74 80 84 86 87 90 91 92 92 95 100 104
9 7 13 6 6 10 12 10 10 9 9 14 11 12 15 18 20 26 29 32 34 38 40 42 49 52 57 60 64 67 71 76 80 85 86 86 87 90 95 99 103 107 111
12 7 5 6 4 12 8 8 8 4 3 2 5 8 12 17 20 21 26 31 35 39 43 50 50 52 57 62 67 72 76 80 79 78 82 86 92 96 101 106 110 112 113
4 4 1 4 9 11 10 8 7 7 9 13 13 12 15 18 22 25 30 35 39 43 45 49 55 59 63 68 73 74 71 72 80 85 89 94 98 103 107 108 106 103 98
6 4 4 6 6 7 8 7 8 10 11 12 13 15 18 21 24 28 33 38 44 48 53 57 61 65 67 64 62 69 75 81 88 93 98 102 103 101 99 96 92 88 85
9 7 6 4 4 4 5 6 8 10 12 15 17 20 24 29 34 38 43 48 54 57 57 55 51 51 58 65 70 76 82 89 95 98 99 96 91 86 83 81 77 74 70

GFSMW_250_spd_051.txt.gz
Wind_Speed
84 82 81 82 83 82 79 79 78 75 74 74 73 73 74 73 70 72 70 67 73 73 74 71 64 61 63 63 61 61 62 62 61 61 60 62 65 67 68 69 71 71 70
81 82 81 79 77 78 78 75 76 79 76 76 78 78 79 76 75 76 75 73 72 74 72 68 65 64 66 65 64 64 68 70 66 64 61 61 57 57 63 67 70 71 70
79 81 79 77 78 79 82 81 80 80 80 80 81 82 83 82 80 78 76 71 67 66 67 64 64 64 65 67 69 70 69 66 63 64 63 56 58 64 65 65 67 69 71
76 77 78 77 78 79 80 82 85 85 84 84 83 84 86 86 85 84 81 76 74 76 73 70 69 70 71 71 68 67 74 70 69 63 64 68 70 71 70 68 68 68 68
79 80 81 82 83 84 85 87 89 91 93 92 91 92 91 89 88 88 86 82 77 72 76 72 71 72 72 70 68 70 72 74 74 71 72 74 75 79 77 74 73 71 70
83 82 84 86 89 91 93 95 94 94 96 99 99 97 97 95 92 90 87 82 82 75 71 72 75 75 74 74 75 77 78 78 76 76 74 75 77 82 79 77 76 75 72
87 87 89 92 95 97 98 99 100 102 104 104 103 102 98 96 93 88 87 83 80 82 82 81 79 77 79 80 79 78 81 81 82 80 79 80 82 82 81 78 76 76 75
93 95 97 99 101 103 104 105 107 109 110 110 109 108 103 98 94 90 87 88 86 85 86 84 80 78 79 80 80 83 79 83 84 81 80 80 82 81 81 78 75 74 73
101 103 104 106 107 108 109 108 108 108 107 108 107 105 101 98 96 95 93 90 87 85 85 89 88 83 80 82 81 80 80 80 77 78 78 78 81 83 82 81 76 76 73
93 93 94 94 97 100 102 103 106 107 109 110 108 106 103 100 98 96 93 91 92 93 91 89 87 83 81 80 81 81 79 77 75 74 75 77 80 85 85 81 79 79 77
78 81 87 92 95 98 101 102 105 107 107 107 106 104 103 102 100 97 93 89 88 88 86 82 82 82 80 75 73 75 73 70 71 73 74 79 82 85 83 79 79 81 77
70 75 82 88 92 96 97 97 99 101 98 96 97 98 101 99 95 91 85 80 78 76 72 74 72 68 67 64 64 65 64 64 68 72 78 80 84 83 79 78 82 81 83
68 74 78 83 87 88 91 89 88 91 96 99 98 98 98 98 93 90 86 82 78 70 66 62 60 60 62 62 62 62 63 68 71 70 66 80 80 80 80 82 82 81 80
66 69 69 72 72 66 67 70 70 69 73 78 81 85 85 85 82 79 79 77 78 74 70 68 62 55 54 58 63 64 65 66 70 70 71 75 76 80 82 84 83 85 87
52 52 52 55 52 53 47 43 47 50 53 56 62 63 63 65 66 63 64 67 68 65 62 61 66 61 54 53 53 54 57 60 66 69 68 72 77 81 82 82 86 87 86
37 43 46 51 49 42 38 35 33 32 34 38 41 44 47 49 50 52 53 52 50 54 53 54 56 55 49 49 51 56 57 59 65 67 73 76 78 83 84 84 85 84 86
33 35 40 42 40 37 28 20 17 14 14 19 24 26 28 31 33 36 39 38 39 43 45 45 42 44 48 51 56 57 59 62 68 70 73 77 80 80 84 84 84 87 92
30 28 29 29 27 25 19 12 7 2 2 5 8 11 9 11 15 16 18 18 20 25 28 29 34 32 44 51 56 61 65 66 68 71 74 79 81 82 80 83 87 92 96
23 21 27 25 24 20 18 15 12 10 15 17 15 21 19 17 15 13 12 16 14 11 14 25 30 39 51 52 57 61 64 66 70 75 79 79 78 80 84 88 93 99 103
17 17 23 26 22 23 19 19 21 24 28 26 24 27 30 24 24 19 15 19 22 19 24 40 42 45 50 53 56 60 64 67 72 75 75 76 79 85 91 96 97 95 96
13 17 16 18 22 23 25 25 26 23 17 14 18 14 13 14 17 12 15 16 22 28 37 45 44 46 49 54 57 61 63 63 67 72 77 81 86 89 90 90 95 99 103
17 20 19 11 11 13 13 17 19 20 18 15 12 8 6 5 4 8 12 17 23 29 34 40 44 46 50 52 53 57 61 67 72 77 81 82 84 89 94 98 102 107 110
15 18 18 6 4 6 8 7 10 11 9 10 7 1 3 6 10 14 17 22 26 28 32 35 38 42 48 53 58 64 68 69 69 72 78 85 89 94 99 103 108 111 112
10 15 15 14 10 7 6 7 8 9 10 10 10 10 11 12 14 17 21 24 28 32 36 41 46 51 56 58 58 57 61 67 72 78 85 89 95 99 102 104 103 97 91
10 11 13 13 11 9 8 7 8 9 11 11 12 14 16 18 21 24 28 32 36 39 42 42 40 41 47 52 56 61 65 73 81 86 91 94 96 96 93 87 85 81 75
13 11 12 14 14 13 11 10 10 10 12 13 16 20 23 26 29 31 32 31 30 32 37 43 44 46 52 57 62 68 73 81 87 91 93 91 85 78 76 72 67 63 60

GFSMW_250_spd_054.txt.gz
Wind_Speed
84 84 83 82 82 84 84 84 83 83 84 84 83 84 82 82 73 74 69 68 69 73 74 74 74 75 77 75 72 72 69 67 66 68 66 68 70 67 65 59 60 58 52
80 82 81 80 80 81 82 83 85 84 83 84 83 80 77 73 73 73 73 75 72 76 78 76 77 79 79 75 73 72 68 67 68 69 69 71 72 72 69 65 61 60 63
84 83 81 81 80 80 83 85 84 83 81 81 81 79 79 79 81 80 80 82 83 74 75 79 81 82 77 76 76 78 78 77 76 77 76 75 73 74 73 71 70 70 71
84 85 84 82 81 82 84 83 84 84 84 82 79 80 81 82 85 86 85 86 84 84 77 81 81 81 78 77 77 80 78 78 78 80 79 77 75 77 77 77 76 76 76
81 81 81 80 79 80 81 82 82 83 85 86 85 85 86 87 87 90 92 91 91 90 87 87 86 82 80 79 77 77 76 76 76 78 80 81 79 79 79 79 80 80 80
80 80 80 82 83 84 85 86 86 88 90 91 93 93 92 92 92 94 95 95 96 96 95 91 88 84 79 78 80 80 80 78 80 80 81 83 83 84 84 85 83 83 82
80 81 82 83 85 87 88 91 93 94 95 95 97 97 97 98 97 98 99 100 100 99 97 96 93 87 82 77 80 81 82 83 81 80 80 82 83 84 85 86 86 83 82
83 83 85 88 90 92 94 97 99 100 102 103 105 105 105 105 104 104 104 103 105 104 99 95 91 84 87 82 81 82 84 83 81 81 85 86 85 85 86 87 86 82 81
90 90 91 92 94 97 100 102 105 107 109 111 113 114 114 114 114 113 113 112 109 103 96 95 89 88 86 87 85 84 82 84 88 90 83 85 86 85 85 84 83 82 81
93 96 99 101 102 104 107 111 115 118 120 122 123 124 122 120 117 113 110 105 100 95 94 93 92 90 87 87 86 87 87 84 82 83 83 84 85 84 81 81 80 81 84
96 98 98 99 101 103 103 104 106 108 109 110 111 111 109 106 103 102 100 97 97 96 95 91 88 89 89 90 88 84 84 81 82 84 83 82 79 76 75 75 78 84 87
85 87 89 90 90 90 91 93 96 97 98 100 103 106 103 99 97 95 93 93 93 92 91 90 90 89 88 86 81 80 76 74 72 72 73 73 72 71 73 74 79 86 90
71 71 72 75 77 79 82 86 87 89 89 87 89 93 97 96 91 89 91 91 92 89 86 84 83 79 76 74 71 69 65 65 67 70 71 71 71 72 75 79 83 85 86
56 58 60 64 67 72 75 75 74 75 73 72 71 73 76 75 78 76 74 75 81 85 85 83 82 81 79 77 76 73 70 62 61 61 65 68 71 73 77 81 80 79 82
49 53 57 57 51 53 55 51 53 50 47 47 52 55 57 59 63 67 69 71 69 71 69 65 64 63 61 65 69 63 62 64 61 61 64 66 67 71 75 77 77 80 83
39 43 42 35 39 46 47 46 47 45 38 34 35 36 38 43 48 51 52 57 63 64 61 59 59 57 56 59 56 54 57 60 63 68 67 67 68 70 75 76 79 84 89
37 38 27 30 36 37 46 45 45 41 31 26 23 20 20 24 28 33 38 42 46 49 50 52 49 51 45 41 44 49 50 45 49 56 65 69 70 71 75 79 83 89 93
36 29 24 28 30 29 35 37 37 37 28 22 16 7 2 4 7 11 15 18 16 16 20 23 20 20 22 28 28 33 36 46 56 60 65 67 71 74 79 85 89 93 95
32 23 21 22 25 23 26 32 32 35 34 25 15 15 15 15 17 18 17 17 14 12 7 9 3 11 22 29 38 37 43 51 57 61 64 69 75 82 85 87 87 89 95
25 22 19 20 24 19 17 26 26 27 29 28 25 22 19 21 18 20 19 16 15 10 9 10 17 22 26 33 41 41 43 50 57 63 69 75 79 80 83 87 90 91 92
21 19 18 17 19 17 16 15 20 22 18 18 22 23 20 21 16 10 9 5 3 8 13 18 23 28 31 34 40 42 49 56 61 66 71 73 77 81 81 82 85 91 98
13 13 14 16 15 14 16 17 18 17 17 19 19 19 17 13 12 12 10 9 11 13 17 22 27 32 37 42 47 52 57 58 61 65 68 70 75 80 84 88 94 100 106
10 11 11 12 12 14 16 20 13 11 11 11 10 10 11 13 14 13 13 14 16 19 22 24 26 30 33 37 41 44 49 54 59 65 70 77 82 86 90 95 101 106 108
10 12 14 13 10 10 10 11 11 10 11 12 14 15 17 18 19 20 21 23 25 28 31 33 34 35 36 38 42 50 55 58 65 71 76 83 90 90 94 100 104 100 93
12 13 14 16 19 15 15 16 15 14 15 15 14 14 17 20 23 26 28 28 28 29 29 31 34 37 40 43 49 53 59 65 71 78 83 88 92 94 99 98 89 82 78
15 14 15 16 18 18 16 16 16 16 15 14 17 19 22 24 26 28 29 29 30 31 32 35 39 42 45 50 55 60 65 71 76 81 87 92 94 94 89 82 75 71 64

GFSMW_250_spd_057.txt.gz
Wind_Speed
88 86 84 84 82 82 82 83 82 81 82 81 80 80 81 82 81 82 82 80 80 74 72 70 70 68 68 69 71 73 74 75 75 72 76 76 73 76 77 76 74 72 68
88 90 88 85 82 81 80 79 81 82 82 80 79 80 82 82 82 82 83 81 81 80 79 77 77 75 77 78 77 79 78 75 76 77 81 77 78 78 77 76 75 74 72
92 89 86 83 81 80 80 80 80 81 80 81 81 80 82 83 84 85 85 84 82 82 80 77 77 78 79 79 78 77 78 80 84 84 81 76 76 78 77 74 74 74 76
87 87 89 87 84 82 81 80 81 83 83 84 84 85 84 84 85 85 86 85 83 83 81 77 76 76 81 82 85 85 84 86 84 82 82 79 75 76 74 76 79 79 78
84 84 85 84 83 83 83 85 87 87 88 89 87 86 84 85 87 87 88 89 88 89 89 88 85 86 84 84 86 87 87 87 89 87 82 79 77 78 79 78 80 77 77
81 82 84 84 84 84 85 87 89 89 89 90 90 90 91 91 92 92 93 95 94 94 94 94 93 90 89 89 89 89 88 89 86 82 81 77 77 78 79 82 81 82 80
83 83 81 82 83 85 86 87 87 88 89 91 93 95 96 97 97 97 98 99 99 99 97 98 94 94 93 94 95 92 83 82 81 81 82 81 81 80 81 82 81 85 87
83 84 84 84 85 85 85 87 90 93 95 97 98 98 99 100 101 103 103 103 103 104 104 103 103 102 100 97 95 89 76 84 87 82 84 82 81 83 83 83 87 86 85
82 82 84 86 87 89 92 94 96 98 99 101 104 106 107 109 110 110 110 110 109 111 111 111 110 110 108 105 102 94 89 91 89 90 86 83 84 86 85 88 88 87 86
88 88 88 90 92 93 95 96 99 102 105 109 111 113 115 117 119 120 119 119 119 120 120 119 115 111 107 102 96 91 87 88 89 89 87 84 86 88 91 91 91 90 89
90 90 91 93 96 98 100 104 108 112 114 114 115 116 117 115 112 110 109 108 108 106 107 108 106 103 98 95 93 91 90 91 91 89 87 89 90 91 90 88 86 82 80
100 99 99 100 102 104 105 105 105 103 101 100 102 104 103 103 103 103 101 100 99 99 98 95 94 93 93 93 92 91 90 89 90 90 92 89 84 80 77 75 78 79 78
74 74 75 77 79 82 83 83 83 84 85 88 95 99 98 99 98 98 98 95 87 85 88 90 88 86 86 87 89 89 89 87 87 85 85 82 79 80 76 70 74 73 73
60 61 65 68 68 65 63 66 69 73 78 80 84 84 84 86 87 86 84 83 80 77 72 74 79 81 80 82 84 83 82 82 82 82 81 82 75 77 74 77 76 75 74
50 51 50 50 50 49 55 58 57 56 59 58 57 58 59 59 60 62 62 62 61 63 65 61 63 66 70 73 75 74 76 75 73 71 71 72 71 69 69 75 78 78 78
40 40 40 44 42 46 47 43 45 44 44 43 43 38 37 36 36 38 40 43 43 44 46 53 57 59 58 60 63 63 61 61 58 58 57 59 61 65 67 73 78 78 81
35 33 35 38 39 41 34 32 33 36 36 36 37 35 30 27 24 21 21 23 25 28 31 37 42 45 49 52 50 47 49 54 57 52 50 55 59 64 69 70 73 73 75
31 30 34 36 38 30 21 22 25 29 32 30 32 37 33 26 20 14 8 6 8 11 15 19 24 28 32 37 39 40 39 38 40 43 47 51 57 65 68 69 73 77 81
26 31 37 35 28 24 16 19 22 26 29 28 30 30 34 38 37 30 22 15 10 6 2 4 7 14 18 21 28 31 32 36 40 45 47 50 55 58 62 67 75 82 88
32 31 31 29 23 25 20 17 22 24 24 24 24 27 27 29 29 27 26 28 22 18 16 14 6 13 14 17 21 25 31 35 40 42 46 51 57 63 69 77 83 89 91
30 25 26 22 18 21 20 18 18 22 21 20 17 18 21 24 25 26 24 21 21 19 17 17 18 21 23 25 28 31 35 39 43 48 53 59 63 70 75 79 84 87 87
19 19 15 10 12 14 15 18 17 14 11 13 17 19 20 21 22 22 23 22 21 19 19 19 20 22 25 27 31 35 39 43 47 51 54 57 64 71 76 81 88 91 93
17 16 12 11 11 12 11 13 13 11 11 12 12 12 16 18 20 21 21 22 22 22 23 24 25 27 28 29 32 35 40 45 50 55 60 65 70 76 83 88 94 93 96
21 19 16 14 13 14 14 15 15 14 15 14 12 13 16 18 20 22 24 26 28 28 27 27 28 29 32 34 37 41 46 50 53 59 66 71 76 82 89 93 93 95 100
20 21 19 17 16 16 16 16 16 15 14 13 13 14 18 21 23 24 26 26 27 29 29 30 32 35 37 40 44 46 50 56 60 64 68 74 81 87 92 96 97 98 92
17 21 21 19 18 20 19 18 18 17 16 15 17 19 21 25 27 29 30 29 29 31 32 32 33 35 37 41 46 49 52 57 63 69 76 82 87 92 95 95 87 80 77

GFSMW_250_spd_060.txt.gz
Wind_Speed
83 80 79 78 79 79 79 80 80 81 81 81 81 82 83 84 84 84 84 83 83 83 83 84 83 82 80 80 78 76 76 75 75 76 77 75 73 76 78 78 78 78 76
87 86 84 82 83 84 83 83 83 85 86 86 85 84 84 82 82 83 82 84 84 83 84 83 85 85 85 82 80 76 74 75 77 76 74 76 80 80 78 78 81 79 76
91 89 89 88 86 86 86 86 87 86 85 87 88 86 84 82 83 83 84 85 86 85 86 87 87 85 85 83 83 75 76 77 80 83 82 79 80 82 81 82 81 80 79
94 93 90 90 90 90 91 90 87 86 87 87 87 87 86 84 84 86 89 91 91 90 89 89 87 85 86 84 84 80 82 81 82 84 84 84 79 80 83 83 82 83 78
97 96 95 93 89 88 87 86 87 87 87 88 89 89 89 90 91 91 92 95 95 95 93 91 90 88 87 86 86 87 86 89 87 82 82 82 82 87 83 91 88 81 77
95 94 92 89 86 86 84 86 85 87 88 88 88 90 91 93 94 95 96 98 98 97 97 96 95 96 95 94 93 92 91 91 88 89 89 93 92 92 90 88 80 79 83
91 88 88 89 91 92 90 88 86 85 87 87 90 91 93 94 95 99 98 98 98 100 101 102 101 100 99 97 95 92 91 92 93 93 94 95 94 88 85 87 80 82 87
88 89 88 88 87 87 87 87 87 87 88 90 92 94 96 98 99 100 101 102 104 105 106 106 107 106 105 103 101 100 99 99 98 98 96 95 95 93 85 88 90 90 89
94 91 89 90 90 88 87 86 87 89 92 93 95 97 99 102 104 106 107 109 110 110 111 111 112 113 113 111 110 109 107 105 102 101 90 82 92 93 92 91 88 89 90
90 89 87 86 85 87 87 88 90 90 92 95 97 100 103 107 110 114 116 118 119 119 119 121 124 124 124 122 120 119 117 113 109 100 90 89 87 89 90 85 81 93 96
91 89 89 90 91 90 91 91 92 96 98 100 103 106 111 117 120 123 124 122 119 117 115 115 115 116 116 116 117 115 112 107 99 94 91 88 87 82 92 97 100 100 97
94 95 94 94 93 93 93 96 100 102 103 104 110 113 108 108 109 108 107 106 105 105 104 104 104 104 105 105 105 104 102 99 94 89 86 86 87 90 95 96 96 99 99
93 93 93 93 92 93 96 101 103 102 98 90 90 91 93 96 98 100 98 97 90 85 83 81 82 84 89 96 99 99 96 93 91 87 85 84 86 88 90 92 94 95 97
74 78 82 82 79 75 75 75 76 76 76 76 75 78 80 83 85 85 84 83 83 83 79 75 71 71 77 82 87 87 87 86 84 82 81 81 82 85 86 88 88 89 91
61 62 63 63 63 64 66 66 62 62 61 66 64 63 65 66 64 62 56 55 54 56 58 57 55 57 59 64 69 73 73 74 75 76 75 75 78 78 79 82 82 83 80
52 55 55 56 54 52 52 49 51 54 57 54 51 49 44 44 37 34 34 35 36 37 34 34 36 39 42 46 52 55 56 62 65 67 69 68 69 69 71 75 78 78 77
44 45 43 42 42 44 44 45 44 43 43 41 38 33 33 32 33 35 32 29 22 19 18 19 19 21 24 30 35 39 45 52 53 53 54 56 62 68 69 70 72 73 75
36 35 34 35 39 42 44 42 38 32 37 32 34 28 28 28 29 32 32 31 30 25 19 17 11 8 11 17 25 29 35 39 42 47 54 59 56 52 50 53 55 59 64
31 31 32 37 39 39 38 36 30 31 34 32 28 26 23 20 24 27 29 29 28 28 26 26 22 18 17 13 8 9 14 20 25 31 37 36 37 41 46 51 57 63 68
27 32 36 41 38 38 34 30 31 31 32 30 23 17 17 19 20 20 23 26 27 27 26 22 19 18 16 14 14 15 17 20 24 29 34 38 43 48 52 59 64 69 74
30 34 38 35 31 32 28 27 28 26 29 26 21 18 16 17 19 22 24 27 29 30 29 27 25 24 23 23 24 26 29 32 35 39 42 46 49 53 59 64 68 74 79
25 28 29 26 26 26 24 23 23 19 18 19 19 19 18 17 19 21 22 24 25 26 26 25 24 24 24 26 27 27 30 32 36 40 44 48 53 58 63 69 74 80 87
21 22 24 24 23 23 23 20 19 19 19 19 20 20 19 19 21 23 25 27 28 27 27 27 26 26 27 28 30 32 35 37 40 44 48 53 58 64 70 76 81 86 91
23 21 25 25 25 24 24 23 22 23 23 22 22 22 22 22 22 24 27 30 32 31 29 29 31 31 31 32 33 35 38 42 46 50 54 59 65 71 77 82 87 90 93
20 20 23 26 27 26 25 25 25 24 23 22 22 24 25 24 25 27 30 32 33 31 30 31 32 31 32 33 35 38 41 46 51 56 61 67 73 78 83 86 89 88 86
22 22 21 24 26 28 27 26 27 27 25 24 24 26 26 26 27 30 33 35 35 34 32 32 35 37 39 41 42 45 49 54 59 63 69 75 79 83 85 83 80 78 78

GFSMW_250_spd_063.txt.gz
Wind_Speed
83 81 80 78 77 77 77 77 75 73 76 76 76 79 79 79 79 82 85 86 87 87 88 87 87 85 85 84 83 83 82 83 83 81 83 78 77 75 74 75 75 77 76
89 87 86 85 84 83 83 82 83 82 82 82 81 80 83 84 85 87 87 87 88 90 89 88 89 87 86 85 86 88 87 86 87 86 80 80 77 76 78 76 77 79 78
89 88 87 86 85 84 83 82 82 82 82 83 85 85 90 90 92 94 93 94 93 92 92 92 92 93 91 91 91 90 91 90 88 86 82 81 79 80 79 78 81 79 77
92 91 90 87 85 85 86 86 86 87 89 91 92 93 93 96 97 99 97 98 98 95 96 96 96 94 93 94 93 94 94 93 88 88 84 85 83 84 82 84 80 79 81
98 96 94 92 92 91 91 91 91 92 93 94 94 95 96 97 97 100 101 101 102 103 100 98 97 97 96 95 96 95 96 94 95 94 93 92 87 83 82 81 82 84 85
102 101 99 97 96 96 95 95 95 93 94 96 98 98 99 100 98 99 100 101 99 98 100 102 102 100 99 99 100 101 99 99 98 97 96 90 86 84 82 84 86 88 89
105 102 100 97 96 96 95 94 96 96 96 97 98 100 100 101 99 99 99 98 99 99 101 103 105 106 107 105 104 103 102 102 100 96 93 91 88 88 89 91 90 88 87
108 107 105 104 103 101 99 97 98 98 99 99 100 99 103 101 100 101 99 99 101 102 103 105 108 110 112 113 113 110 108 107 106 103 101 99 98 99 98 97 90 87 92
112 112 110 108 107 106 106 104 102 102 104 105 105 101 99 100 98 98 99 101 104 106 108 110 113 116 118 120 120 119 117 116 116 115 113 110 110 109 104 100 92 86 85
109 110 109 109 107 104 102 103 101 99 99 99 99 98 97 98 98 100 103 106 109 113 117 119 123 125 126 128 128 129 127 127 126 123 120 116 108 100 95 92 88 92 89
104 103 101 97 98 99 99 98 99 97 95 95 94 92 96 100 102 108 111 114 117 119 119 119 116 115 113 113 114 114 114 113 113 111 108 104 100 95 94 92 91 94 93
92 93 94 91 90 92 94 94 93 93 93 96 99 99 106 105 106 107 108 108 105 109 106 105 105 103 101 100 98 101 104 105 106 106 104 100 96 93 91 90 88 87 87
100 97 93 91 90 91 95 96 101 103 103 101 103 103 100 99 98 91 92 92 97 99 96 92 90 88 87 84 81 82 86 93 95 95 94 92 90 88 86 86 86 86 88
90 92 96 99 101 102 105 104 101 99 97 99 98 91 85 82 81 79 79 77 80 84 81 74 69 67 67 64 59 59 63 73 82 84 86 86 85 84 82 79 80 80 82
76 78 82 85 88 91 93 92 87 82 80 77 74 73 73 70 67 65 62 62 63 62 56 50 49 50 50 46 43 43 47 53 59 64 70 77 79 78 74 72 73 73 75
67 65 66 68 68 66 66 66 64 65 64 62 62 62 63 61 54 53 50 50 44 42 41 39 39 33 34 35 31 29 28 32 36 43 51 60 65 65 63 64 67 68 69
56 58 57 55 56 56 56 56 55 56 56 54 56 57 57 50 44 45 41 36 34 34 32 32 33 29 23 18 16 14 15 17 22 28 34 41 48 53 55 58 61 62 63
49 49 51 50 48 48 49 49 49 51 50 49 51 52 48 41 38 35 35 36 34 34 35 34 33 32 30 28 21 16 14 12 13 18 25 31 36 39 41 39 41 44 48
46 44 42 41 43 43 44 46 48 45 44 45 47 44 41 36 35 33 33 34 32 32 34 35 33 31 30 28 26 23 20 16 14 13 13 17 22 28 33 39 43 48 53
38 38 36 35 36 40 44 46 46 45 45 44 41 41 36 33 32 33 31 31 31 33 34 34 34 32 28 25 23 22 22 22 23 23 24 26 30 35 40 46 51 56 62
29 31 31 33 38 44 45 42 42 38 40 38 35 33 32 31 31 31 31 30 30 31 33 34 33 32 30 29 27 26 26 27 28 29 32 35 38 42 47 51 56 62 67
29 30 31 35 39 43 40 36 35 35 33 31 28 28 30 30 31 32 31 30 31 32 35 35 33 32 33 31 29 29 29 30 31 33 36 40 44 49 53 59 65 70 75
29 30 33 36 38 41 36 32 30 28 29 27 27 28 31 32 33 34 31 32 33 33 36 37 36 34 34 33 33 33 34 35 37 39 44 48 52 57 62 67 71 75 79
30 32 30 32 37 38 34 31 29 29 31 31 31 33 33 33 34 34 33 34 35 35 36 37 36 36 37 38 39 40 42 44 46 48 51 55 60 64 68 72 77 81 85
31 32 28 27 29 31 32 32 32 31 31 31 32 33 33 34 36 36 34 35 36 37 39 40 39 40 41 42 43 45 47 48 51 55 58 63 67 72 76 79 83 86 79
32 32 27 25 25 26 28 29 31 32 33 33 34 34 34 36 37 37 36 36 37 39 41 42 43 43 44 46 48 50 53 55 58 60 64 69 73 76 80 83 88 80 72

GFSMW_250_spd_066.txt.gz
Wind_Speed
90 88 84 86 86 83 82 82 82 83 82 76 71 70 76 76 73 77 82 82 81 85 85 86 88 90 91 94 93 96 96 92 91 91 91 87 85 84 83 83 80 78 75
88 86 87 85 83 81 78 76 78 79 79 80 79 75 76 81 82 81 83 84 82 84 87 90 94 97 98 97 98 98 98 98 97 95 93 86 86 86 85 83 84 81 79
88 85 83 83 83 82 80 78 78 79 80 80 81 82 80 82 84 86 85 87 88 91 93 94 97 98 99 100 102 100 100 101 98 98 95 89 88 87 87 87 85 85 83
90 88 85 84 84 83 82 81 82 82 82 81 82 83 86 82 85 90 91 95 97 98 99 100 102 104 107 107 107 110 105 103 98 96 95 95 90 88 89 90 89 88 85
93 92 90 88 87 87 86 84 84 85 86 87 88 88 90 91 90 93 98 100 103 105 108 113 115 115 115 113 109 105 103 96 96 95 97 98 98 93 90 91 92 90 88
96 95 94 93 91 89 88 88 89 89 91 92 93 93 95 96 98 101 102 104 109 110 112 113 117 118 118 112 111 108 105 102 99 99 101 102 102 100 98 93 89 87 83
100 99 98 96 96 95 95 94 95 95 95 96 98 98 100 102 101 104 106 108 112 112 112 114 116 115 116 116 116 111 111 110 108 105 104 105 106 105 103 99 97 95 92
104 103 102 102 102 102 103 102 102 102 102 103 102 102 103 105 104 106 109 110 112 114 114 114 112 113 113 114 116 117 119 120 119 118 115 115 114 116 115 114 113 109 105
109 108 107 106 105 105 105 105 106 106 106 105 105 105 105 109 111 112 114 112 115 112 110 112 109 113 114 119 122 121 121 120 118 117 115 113 112 114 115 113 110 107 99
114 113 111 110 110 109 109 110 110 110 110 110 110 111 112 115 115 112 113 109 107 107 107 110 115 118 122 116 114 112 112 113 111 110 108 108 109 106 105 104 101 99 93
114 115 114 113 114 114 113 113 114 114 114 113 109 111 109 111 107 106 106 104 103 106 112 115 113 116 110 105 104 103 102 100 99 99 99 98 98 98 98 95 93 94 91
110 110 111 111 110 111 113 112 109 108 105 106 104 105 100 101 101 99 98 101 109 111 108 105 98 101 98 93 90 94 94 89 87 83 81 81 85 91 93 87 83 84 86
101 102 106 107 105 106 106 105 102 101 103 103 99 100 103 103 101 105 109 111 104 100 90 88 86 84 87 86 82 78 75 66 62 63 62 61 64 69 79 85 86 85 81
100 98 99 101 101 100 98 98 97 97 98 98 101 103 106 109 110 110 101 92 86 81 76 74 70 72 74 70 67 66 63 57 53 49 47 44 44 49 60 70 79 84 84
95 96 97 97 97 96 95 95 96 97 98 98 98 98 97 95 89 86 80 76 71 69 65 61 60 62 62 58 55 54 55 53 44 35 31 31 31 34 43 54 64 70 73
83 85 86 86 83 81 84 86 84 84 85 86 83 80 78 75 73 71 66 62 61 60 55 53 53 52 48 47 46 46 46 40 33 24 18 17 18 22 28 37 47 56 63
75 76 76 78 78 77 78 76 76 75 71 70 69 68 67 63 61 61 60 56 51 53 46 46 46 43 43 43 42 39 38 38 35 30 26 22 17 15 17 23 29 36 43
63 66 66 67 69 69 70 69 64 63 62 60 60 59 56 54 54 54 54 49 48 45 42 43 44 42 42 42 41 41 37 32 29 25 22 20 19 17 17 18 22 27 32
60 61 61 62 61 62 58 55 54 52 53 55 55 51 50 51 52 52 51 46 45 41 39 42 40 41 41 40 41 42 39 38 35 32 29 27 25 24 24 27 30 34 40
54 53 53 53 51 50 49 46 48 51 52 50 48 47 49 50 49 48 46 43 41 39 38 39 39 40 40 40 39 38 36 35 35 35 35 35 36 37 39 41 44 47 51
45 44 46 44 42 40 41 44 47 49 46 43 44 44 44 44 42 41 39 37 39 38 37 39 39 41 40 40 40 39 40 39 39 38 38 38 39 41 44 47 50 55 59
40 39 36 35 34 36 40 43 44 45 39 38 38 39 38 36 36 36 36 38 40 39 39 41 40 41 41 40 41 41 41 41 42 43 44 46 47 49 52 56 59 63 67
35 32 31 33 35 35 38 42 45 40 37 35 34 31 32 34 35 37 39 41 42 41 41 42 42 43 42 42 43 43 43 44 45 46 48 50 52 54 58 61 64 69 72
29 30 32 30 33 36 37 38 40 38 36 35 32 32 34 36 37 37 39 40 41 42 43 43 44 44 45 46 46 47 48 48 49 52 54 57 58 61 64 67 71 75 78
30 31 30 33 33 33 31 32 34 34 33 33 33 33 34 35 36 37 38 40 42 43 44 45 46 47 48 50 51 52 52 52 53 56 58 60 62 66 69 72 76 80 81
31 31 31 29 33 28 27 27 29 30 29 30 32 34 35 35 37 39 41 43 44 45 47 47 48 49 51 52 54 55 56 56 58 60 63 65 68 70 73 78 81 84 85

GFSMW_250_spd_069.txt.gz
Wind_Speed
89 86 84 84 84 83 82 80 79 80 79 78 77 79 80 80 80 79 82 83 83 79 78 80 83 83 84 84 87 90 94 96 98 99 102 103 103 101 100 98 91 84 84
88 87 86 87 87 86 85 84 82 82 82 81 80 81 82 82 82 80 77 73 75 79 80 80 81 84 86 90 94 97 101 104 106 108 108 108 109 107 102 96 89 85 84
89 87 86 87 88 87 86 85 85 85 84 82 80 78 75 74 75 76 79 82 82 80 78 81 85 89 93 97 100 103 106 110 112 114 116 115 113 104 96 91 88 87 86
90 88 88 89 89 88 86 84 83 82 80 80 80 78 75 74 78 79 82 85 86 89 89 89 92 95 99 101 105 108 112 114 115 119 118 111 106 102 99 98 96 95 91
92 91 90 89 88 87 86 87 86 86 84 83 84 83 82 84 85 85 86 92 94 94 98 100 103 103 107 110 113 114 117 119 120 114 109 107 105 106 103 100 100 101 97
95 94 90 90 89 88 87 86 86 86 86 86 87 88 88 89 91 93 91 93 98 100 103 106 111 110 113 114 116 118 122 120 116 115 108 108 114 115 114 112 115 116 110
97 98 96 93 92 91 90 89 89 89 90 90 91 91 93 93 93 96 98 100 101 105 108 109 111 115 117 120 122 123 122 121 118 118 117 113 112 113 114 111 108 108 106
104 101 99 98 97 96 95 94 93 92 93 93 92 93 96 97 98 100 103 104 107 109 111 114 116 116 118 119 119 114 114 119 120 119 113 109 106 107 105 107 104 102 100
108 105 103 101 101 100 99 98 97 97 98 97 97 98 99 100 103 104 107 109 110 113 115 116 119 116 113 112 112 114 114 120 116 110 107 104 100 99 96 96 98 98 97
113 110 107 104 103 102 101 100 100 101 101 101 101 102 103 104 106 108 109 113 115 116 116 113 112 112 112 112 113 116 116 111 107 103 99 93 97 98 95 90 89 93 97
115 113 111 109 107 106 105 105 105 104 103 104 104 105 107 108 111 113 115 116 117 114 110 110 108 108 109 110 109 103 98 98 97 91 86 88 87 80 78 74 71 72 74
113 113 114 114 113 111 110 110 109 108 108 108 109 109 112 113 114 114 115 117 111 106 104 105 106 109 108 101 93 89 86 84 87 89 87 82 75 64 59 59 55 55 57
112 113 113 113 113 113 113 113 112 112 111 110 112 112 112 114 113 112 106 102 106 106 106 106 104 100 91 85 79 76 72 74 76 80 83 76 68 61 52 46 46 45 48
111 114 114 114 113 113 113 113 113 112 111 111 109 110 107 109 110 103 100 103 104 103 100 96 87 83 77 72 68 64 63 65 62 63 63 63 62 53 43 37 33 34 37
99 101 105 106 108 108 108 108 108 107 107 105 105 107 99 98 99 98 96 95 93 89 85 80 74 70 65 61 58 57 58 56 53 52 53 53 49 41 35 28 22 21 23
92 96 98 99 99 98 96 96 95 98 100 97 94 95 92 90 87 85 84 80 80 76 72 67 63 60 56 52 51 52 51 49 48 47 47 45 42 40 38 32 27 22 19
84 87 89 91 91 91 92 92 92 91 88 88 84 82 83 79 78 76 73 72 69 66 63 60 57 53 50 48 48 48 47 46 45 44 44 44 43 41 37 34 32 30 27
72 76 79 81 82 84 84 82 79 77 78 78 79 74 72 71 70 71 67 61 59 60 59 56 53 48 47 47 46 46 46 45 44 43 42 42 40 39 36 34 32 31 31
62 66 67 67 65 66 68 71 74 75 71 67 68 66 63 66 65 59 56 55 57 57 53 52 48 45 44 45 45 46 47 46 46 46 44 44 44 43 43 43 43 43 43
50 53 56 59 62 62 62 62 61 62 63 62 59 60 60 59 53 52 53 54 52 48 47 44 41 41 43 45 45 46 47 49 49 48 48 47 46 44 45 45 46 47 49
45 46 48 50 51 53 55 56 54 53 53 54 56 55 51 48 49 48 47 47 44 42 40 39 40 42 45 45 46 48 49 50 50 51 50 50 50 50 50 51 52 53 55
44 44 46 45 44 46 46 46 46 46 50 49 48 45 46 43 43 41 41 39 38 39 41 42 44 44 44 46 48 50 52 52 53 54 54 54 54 54 55 56 57 59 62
42 41 41 42 43 41 39 41 41 41 43 46 46 44 40 39 38 37 36 36 38 40 43 44 44 45 46 48 49 52 53 54 55 57 58 58 59 58 58 60 62 64 66
39 37 33 33 34 35 35 36 35 40 44 45 42 38 38 36 36 37 36 36 39 41 43 43 45 47 48 50 51 53 54 55 57 59 60 60 61 61 62 63 65 66 69
36 34 35 33 32 32 33 33 36 39 39 40 38 36 34 34 35 36 37 37 40 42 44 46 47 48 49 51 52 52 53 56 59 60 61 62 62 63 65 66 68 71 73
36 34 33 31 31 32 31 34 34 32 32 33 32 33 33 33 34 36 38 41 43 45 46 47 48 49 51 52 54 55 56 59 60 60 62 62 65 67 68 69 70 72 73

GFSMW_250_spd_072.txt.gz
Wind_Speed
87 85 84 84 83 83 82 82 80 78 76 75 74 73 74 74 75 75 75 76 77 79 79 81 79 75 74 78 81 84 85 87 92 94 96 97 100 103 107 107 108 109 102
89 86 84 85 85 85 85 83 82 80 79 78 77 77 77 77 77 78 79 80 81 81 79 76 75 79 80 83 86 89 91 92 96 99 103 103 108 109 112 114 111 106 97
90 90 88 86 85 84 84 83 83 82 81 81 81 81 81 80 81 80 81 82 80 77 74 76 79 81 85 89 91 94 97 98 102 107 111 115 115 115 112 113 106 100 96
93 90 91 89 87 86 84 84 85 84 84 83 83 83 84 84 84 84 83 83 82 83 84 85 87 90 91 93 96 97 102 106 109 112 116 119 123 116 113 104 103 106 105
92 93 92 91 91 90 88 86 86 86 85 85 85 84 83 82 80 79 81 84 87 88 90 92 92 93 94 95 100 104 108 112 114 117 122 123 118 114 110 106 108 111 107
99 96 95 94 93 93 91 89 88 87 86 86 87 86 85 85 85 85 84 85 88 91 92 95 96 97 100 101 106 109 114 116 118 122 121 112 110 112 113 109 100 97 98
105 101 99 98 97 95 93 91 90 89 89 90 89 89 88 88 87 88 90 90 90 94 95 98 100 103 105 108 110 115 117 119 123 116 112 110 111 111 107 102 99 95 94
109 107 104 102 100 97 95 93 91 91 91 91 90 91 91 92 91 92 94 95 94 95 97 100 103 107 110 113 116 119 123 123 117 113 110 109 108 105 102 98 94 88 86
110 108 109 107 104 101 99 97 94 92 92 92 92 93 94 94 95 96 96 96 98 99 101 103 106 109 113 117 119 122 121 118 111 108 108 104 100 100 97 92 89 88 85
113 111 109 108 107 106 103 101 99 98 97 96 96 96 97 97 97 97 98 100 100 102 104 108 111 114 116 118 119 119 116 112 108 105 99 95 93 92 89 87 89 84 73
116 114 111 110 110 109 107 105 104 103 102 100 99 98 99 99 99 100 101 103 105 108 108 111 113 116 118 117 117 112 109 106 101 93 88 84 81 82 85 87 88 80 69
112 113 114 114 113 112 110 108 106 105 105 105 104 103 102 103 103 104 105 107 109 111 113 115 114 114 111 114 108 106 101 95 88 82 78 72 71 75 77 77 76 77 67
104 104 107 109 112 113 112 110 108 108 108 107 107 106 106 106 107 108 110 112 114 114 114 113 108 107 110 107 102 93 88 82 77 73 67 64 64 64 65 68 65 62 59
104 104 103 103 105 108 111 110 110 110 110 109 108 108 108 109 109 111 111 113 111 111 109 104 106 103 100 95 87 81 76 71 68 64 59 59 60 59 59 57 58 54 49
93 99 106 107 105 103 104 105 106 106 106 106 106 108 109 110 111 110 107 104 102 98 100 100 97 92 88 81 76 71 66 66 61 56 56 57 56 55 57 57 53 52 49
86 88 91 94 99 102 102 103 104 105 105 106 107 107 108 104 97 93 94 94 96 97 94 91 87 80 76 71 66 65 63 59 54 53 55 54 53 54 55 56 54 51 48
80 84 86 87 88 91 92 94 94 93 93 91 91 92 91 87 86 89 91 91 90 86 84 79 73 69 67 63 62 62 58 51 50 53 55 54 53 54 55 55 56 55 51
72 76 79 81 83 84 85 86 86 88 88 89 86 84 87 89 88 86 86 83 81 77 73 68 64 63 61 60 59 54 48 46 49 53 54 54 54 55 55 55 56 57 57
65 68 70 73 76 78 79 80 81 83 84 84 84 83 83 83 81 77 78 74 72 69 63 60 60 60 57 55 48 43 44 47 50 53 55 56 56 57 58 59 59 58 57
58 61 62 64 65 67 68 70 71 71 75 77 76 74 72 75 71 69 68 64 62 58 55 57 57 55 51 43 42 43 47 50 51 53 56 58 58 60 61 61 61 61 60
51 53 54 55 56 56 56 58 59 62 63 63 65 64 62 64 63 61 59 54 52 52 52 53 52 47 43 42 44 47 48 50 52 54 56 58 60 61 62 63 65 64 63
45 45 45 45 44 42 42 43 45 47 50 53 54 56 56 54 52 50 48 49 51 49 48 46 43 42 43 45 47 49 50 52 53 55 57 59 60 61 62 63 64 63 64
39 37 37 37 38 38 41 42 43 44 44 46 47 48 47 47 46 47 48 47 46 45 42 43 42 41 44 47 48 50 52 54 54 55 58 59 61 61 62 62 62 64 65
37 39 41 41 40 40 40 42 44 44 42 41 40 41 44 46 46 43 42 42 43 40 41 42 43 44 47 49 51 53 53 53 54 56 58 59 61 62 63 64 66 68 70
39 37 37 39 39 38 37 35 35 36 34 37 37 43 45 44 41 40 39 38 39 40 42 44 46 47 49 51 51 50 51 54 56 58 60 62 63 65 67 68 70 71 71
39 38 39 38 35 35 36 35 35 33 34 35 38 40 40 39 38 35 33 34 36 39 42 43 44 44 44 44 45 46 48 51 54 56 59 61 63 64 65 66 66 68 71

GFSMW_250_spd_075.txt.gz
Wind_Speed
90 86 85 86 86 85 83 82 80 79 77 77 77 76 76 74 74 74 73 72 73 73 73 75 75 77 79 80 81 81 78 79 83 87 89 93 96 97 100 104 108 110 114
92 89 86 87 89 88 86 84 83 81 79 78 79 79 79 78 77 76 76 76 76 77 77 78 79 81 81 81 82 78 81 86 90 91 94 95 97 102 104 108 112 115 118
91 90 89 88 88 90 89 87 85 84 82 81 81 81 81 80 79 79 80 80 79 79 80 81 82 82 83 80 81 87 89 90 92 96 100 100 102 104 108 114 119 122 118
99 95 94 92 90 89 88 89 88 87 86 85 84 84 84 83 83 83 83 81 81 82 83 83 82 82 82 83 86 89 91 95 98 102 103 107 108 110 111 118 121 119 114
104 101 97 95 93 92 91 90 87 85 86 86 85 84 85 86 86 85 86 85 85 85 85 85 84 85 86 87 90 93 98 101 104 104 107 109 113 117 121 121 117 114 109
108 106 101 98 97 97 95 94 91 88 87 85 84 84 84 84 84 85 86 87 87 88 89 90 91 92 94 95 97 98 100 102 104 106 110 113 117 123 124 120 114 108 102
108 109 107 104 102 99 97 95 93 92 91 90 88 88 87 86 86 86 86 87 89 91 92 92 93 95 96 96 98 97 99 103 107 111 114 118 123 121 118 112 107 101 94
107 110 108 107 106 103 101 98 95 93 92 92 91 90 89 89 90 90 90 91 90 90 91 92 94 95 97 99 99 101 106 108 111 114 120 123 117 118 111 105 100 92 85
107 109 112 112 109 107 104 102 100 98 97 95 94 92 91 91 91 90 91 92 92 93 94 94 97 97 98 100 102 106 109 112 117 120 122 115 113 108 102 98 91 84 76
108 107 107 109 112 111 109 107 104 102 100 99 97 96 95 94 93 93 93 93 93 93 95 95 96 98 100 103 107 110 114 119 120 118 111 109 106 99 93 86 79 75 72
103 103 104 105 107 111 112 110 108 107 105 103 102 101 100 98 97 97 97 97 97 98 99 100 102 103 105 108 110 115 118 119 112 108 106 102 97 87 80 76 72 69 69
99 100 98 99 104 109 112 112 110 108 107 106 106 105 104 103 102 102 103 103 103 103 103 105 106 108 110 112 115 116 114 107 104 103 98 92 84 78 72 70 67 66 66
102 100 97 95 98 99 101 106 110 110 109 107 106 105 104 105 107 106 106 106 107 107 108 109 109 110 112 112 111 108 103 101 99 94 88 81 74 70 68 65 62 63 64
91 95 99 99 96 97 98 100 103 104 105 104 105 105 107 106 107 107 107 107 108 107 107 106 107 109 107 104 99 98 99 96 90 84 78 73 70 68 65 61 60 62 62
84 86 92 96 101 101 101 101 103 104 105 105 107 107 107 105 105 107 107 105 106 104 105 104 104 97 93 92 95 97 93 86 81 75 71 69 67 65 60 59 60 61 62
79 81 83 85 88 95 100 100 100 100 101 102 100 97 99 100 98 100 102 99 99 101 101 93 86 86 87 91 96 91 83 79 73 68 67 66 64 57 55 58 61 63 62
75 75 77 79 79 84 90 94 94 93 91 92 95 99 102 102 100 97 97 97 90 83 83 81 81 86 89 91 86 79 74 70 65 64 63 59 53 53 57 60 60 62 61
69 71 71 72 75 77 81 84 86 86 85 84 84 85 84 85 83 80 78 73 76 84 78 79 85 86 86 80 74 69 66 64 60 60 54 51 54 56 59 59 60 61 61
62 64 66 68 70 71 74 76 77 78 79 78 76 73 73 75 74 71 76 82 81 75 80 85 89 81 73 67 63 62 63 59 56 51 51 53 55 56 58 60 61 61 62
57 60 62 63 65 66 69 71 73 75 76 76 76 77 78 77 77 79 80 78 82 86 81 75 70 65 63 59 59 60 57 52 49 50 52 54 55 58 59 60 61 62 62
51 54 57 59 60 62 63 65 67 69 69 71 72 72 70 68 68 66 64 66 68 66 64 61 59 57 55 58 58 56 51 50 50 51 53 56 57 58 58 59 60 61 63
46 47 49 51 53 54 56 58 59 60 59 59 61 57 54 52 52 55 56 57 57 55 54 52 53 55 56 56 55 51 50 51 51 52 55 56 56 57 58 60 62 64 65
45 45 45 44 46 47 48 48 49 48 45 43 41 42 44 47 47 48 48 50 50 49 49 52 51 51 53 52 50 50 50 50 51 54 54 53 53 54 56 58 60 63 64
43 43 42 39 39 39 39 37 36 35 35 37 40 40 39 41 42 44 45 46 46 48 46 46 47 48 48 48 47 47 49 50 50 49 49 51 54 57 59 62 64 66 68
43 41 38 36 35 34 32 33 36 36 36 36 38 39 37 37 39 42 45 46 42 39 41 42 41 40 41 42 44 46 45 44 46 47 50 54 58 61 62 65 68 70 72
40 37 35 35 34 35 36 36 36 35 34 34 33 34 34 36 37 41 43 43 40 39 37 34 34 35 37 38 38 39 43 46 49 53 55 59 62 63 65 68 71 74 74

GFSMW_250_spd_078.txt.gz
Wind_Speed
97 92 89 87 79 76 77 73 76 74 70 69 69 68 68 67 65 65 67 67 70 72 73 73 74 74 74 75 77 77 79 80 82 83 82 83 85 89 91 96 99 101 103
97 94 90 88 86 85 82 82 80 82 79 78 75 73 72 73 75 73 72 73 74 75 77 77 78 77 77 78 79 80 82 83 84 84 84 83 88 94 96 99 99 103 108
99 96 93 91 89 86 85 85 86 85 84 83 81 80 79 80 79 78 77 77 77 78 79 79 79 80 80 81 82 84 84 85 86 89 91 91 92 94 98 99 103 107 111
106 102 98 95 94 91 88 86 84 85 86 87 85 84 83 82 82 82 81 80 80 80 81 82 83 84 83 83 83 85 87 90 91 93 95 97 97 97 96 100 106 111 119
110 108 105 100 96 94 91 88 87 85 86 85 85 85 85 84 85 84 84 84 84 83 83 83 83 83 83 84 86 87 88 90 94 96 98 99 101 101 103 106 109 117 121
109 114 108 105 101 98 96 94 91 90 88 87 87 87 86 87 86 85 84 83 83 83 84 85 84 85 87 87 89 90 93 95 97 98 99 100 101 104 109 111 117 120 115
103 106 113 110 107 105 101 97 96 94 93 91 90 90 89 89 90 90 89 88 86 87 86 86 87 88 91 93 94 95 95 95 94 95 98 102 106 109 113 119 119 118 109
104 101 107 110 114 109 106 103 100 98 96 95 93 91 91 90 89 90 89 90 90 88 89 90 91 91 92 93 92 92 92 94 97 100 104 107 111 114 120 118 117 108 101
109 107 101 102 108 109 110 109 107 106 102 100 98 96 95 94 92 91 90 91 91 91 91 90 89 91 93 93 94 95 97 100 103 106 109 113 115 118 117 112 105 99 93
112 111 109 105 101 101 105 111 111 108 106 104 102 100 98 97 96 94 93 93 93 93 92 93 94 94 95 97 99 101 103 105 108 110 112 113 115 112 105 102 99 94 87
118 118 111 105 103 101 101 101 103 110 109 109 107 105 102 101 99 98 99 99 99 98 98 98 99 100 102 102 103 107 109 111 112 111 112 113 109 102 98 99 94 87 79
116 118 116 108 104 104 103 102 100 100 104 110 111 110 108 106 105 104 104 104 103 103 103 103 105 104 105 105 108 107 110 111 109 110 109 104 97 95 97 94 86 80 73
105 107 107 106 104 102 102 102 103 101 100 101 103 105 107 107 109 109 109 107 107 106 106 105 105 105 105 105 105 106 106 105 105 102 97 92 92 94 93 86 79 73 69
100 99 94 93 94 94 94 92 92 92 94 95 96 97 100 102 103 104 106 107 106 105 106 105 104 103 104 104 102 101 102 100 96 88 87 89 93 93 84 77 71 68 63
93 92 91 88 88 85 88 89 86 86 89 91 92 92 91 94 96 96 96 97 99 99 101 101 102 101 100 99 103 100 95 87 86 85 86 92 92 83 74 69 67 61 56
85 83 82 80 80 77 79 85 86 87 89 88 87 88 87 87 91 92 92 93 96 98 99 102 101 100 98 97 91 83 78 85 81 84 89 92 81 74 67 66 60 57 57
76 76 77 78 76 75 75 75 77 79 82 83 84 87 90 93 97 96 95 95 93 93 92 92 89 89 84 78 72 75 81 80 83 88 91 79 72 66 64 60 57 58 58
70 71 72 73 75 74 73 72 72 73 75 76 78 80 82 87 89 89 88 87 86 82 81 80 75 73 69 70 74 82 82 83 88 82 76 69 63 62 59 57 57 57 58
56 61 64 68 70 70 69 70 69 69 69 71 73 75 76 77 78 79 80 79 77 73 67 65 70 69 72 78 81 83 81 78 73 70 66 63 60 59 58 58 57 58 60
49 52 56 60 63 66 66 67 67 66 65 66 67 68 67 68 68 67 65 65 64 64 66 72 75 78 75 69 69 72 67 66 63 63 63 60 59 58 58 58 59 60 59
46 47 51 53 55 58 60 62 63 63 63 62 62 62 62 62 62 63 66 67 68 73 73 76 71 68 66 64 63 61 58 59 61 62 60 57 57 56 58 59 57 56 58
40 42 43 46 49 51 53 56 56 57 56 57 58 60 61 64 65 65 65 68 72 72 61 57 57 57 57 55 54 55 58 57 59 58 55 54 54 56 56 54 54 56 60
40 41 42 41 41 41 44 46 48 51 53 55 56 58 59 60 58 57 53 50 49 48 49 51 50 49 49 52 53 54 54 54 54 51 53 53 53 52 52 53 57 60 63
38 39 40 39 41 42 41 41 42 43 45 46 45 45 45 42 41 40 40 44 44 45 46 46 45 48 46 45 47 48 48 47 47 49 49 48 49 52 55 59 61 64 66
39 39 40 41 39 38 37 37 37 37 36 36 35 34 35 35 37 39 40 41 41 42 44 44 44 42 41 42 41 40 41 42 42 43 45 49 52 56 59 61 64 67 70
38 38 38 39 40 39 36 35 35 35 33 32 32 33 35 35 37 38 37 39 40 40 42 43 42 40 39 39 39 38 39 40 43 46 51 54 57 60 62 65 68 71 73

GFSMW_250_spd_081.txt.gz
Wind_Speed
100 96 91 88 89 70 59 61 70 71 72 74 71 70 70 69 68 68 67 67 65 64 64 64 63 65 68 70 71 73 75 76 76 77 80 82 83 84 87 89 92 95 98
104 102 96 92 87 90 81 75 71 71 70 72 73 73 72 69 71 70 68 67 67 67 66 67 70 72 73 75 76 76 76 78 82 82 82 81 85 88 90 93 95 96 95
102 105 102 97 92 89 90 89 83 77 75 73 74 72 72 72 70 68 67 68 69 69 71 73 75 77 78 78 79 80 81 83 85 84 84 85 85 88 93 96 94 94 98
97 104 106 103 98 94 91 90 88 88 85 76 76 79 77 76 79 79 77 76 76 75 76 78 79 80 78 77 82 84 84 81 82 85 86 88 90 90 85 87 94 100 105
97 98 105 107 105 100 97 96 93 92 90 88 84 80 76 77 79 80 81 80 79 78 76 76 78 82 83 83 82 81 82 84 85 87 89 90 89 89 91 92 98 104 110
95 100 101 107 109 107 102 100 99 97 95 92 89 87 86 84 83 82 82 82 82 82 83 84 84 84 83 82 85 86 86 86 88 89 88 88 90 96 98 102 105 110 114
95 97 98 103 109 111 108 104 101 100 97 95 93 91 88 87 86 85 84 83 82 83 82 83 84 85 87 88 87 87 88 89 88 88 90 93 95 101 104 108 112 114 114
97 96 99 102 107 109 113 109 104 102 100 98 96 94 92 90 88 88 88 88 88 87 87 88 88 89 89 90 89 90 92 91 92 94 97 99 102 105 108 112 113 109 112
100 98 98 99 102 107 107 114 113 108 105 102 99 97 96 94 92 91 91 91 90 90 90 89 89 89 90 91 91 93 94 96 98 100 103 105 105 108 112 111 108 109 101
99 100 101 99 100 100 103 108 112 115 110 107 104 101 98 97 96 95 95 93 91 91 92 92 93 93 94 94 95 97 99 101 103 105 105 106 108 110 107 107 107 104 97
97 101 102 104 100 100 98 98 104 113 113 110 109 106 104 103 101 101 101 99 97 96 97 96 96 97 98 98 101 102 104 106 106 105 106 104 108 104 105 104 102 97 89
97 100 103 106 105 100 98 95 93 97 105 110 110 111 112 110 109 109 108 106 104 105 103 103 104 103 104 105 106 106 105 105 106 104 103 105 104 106 102 99 93 88 88
93 97 104 103 102 99 97 96 92 92 92 95 99 103 105 105 106 107 105 106 103 103 105 105 108 108 107 105 106 105 104 103 103 105 101 105 104 100 95 88 88 87 86
89 90 93 96 100 98 96 95 96 97 96 94 95 96 95 96 95 96 98 99 98 99 101 103 103 103 104 105 102 101 100 96 96 99 99 95 93 89 81 85 86 86 87
85 85 87 88 89 90 90 91 93 92 92 96 94 94 94 95 94 92 90 90 91 91 94 96 95 93 96 96 95 94 94 95 94 91 86 85 81 77 82 85 88 88 80
80 80 81 84 84 84 83 85 84 80 81 79 80 83 83 85 86 85 85 84 84 84 87 88 89 91 89 92 89 93 90 87 85 81 80 76 77 79 83 89 86 77 69
75 78 80 80 81 81 80 79 77 75 73 73 73 75 81 83 79 80 79 80 82 84 84 86 88 92 89 91 86 86 82 80 77 73 72 75 79 83 86 77 74 69 64
70 73 75 77 77 75 74 73 72 71 71 70 69 70 72 73 74 75 76 78 78 80 80 80 81 81 86 85 79 76 74 69 70 73 75 79 81 75 76 71 66 63 61
52 58 61 66 70 73 72 70 66 64 63 62 64 65 65 65 65 66 67 69 72 73 74 76 75 75 73 70 67 65 65 68 74 78 82 76 73 69 66 65 63 60 57
43 45 46 50 55 61 63 66 65 63 61 60 58 58 60 60 61 62 64 66 66 66 67 67 64 61 57 57 60 64 69 75 78 76 70 67 66 63 62 61 59 56 55
34 35 37 41 43 47 52 57 60 62 61 60 60 59 59 60 60 60 61 60 58 56 53 51 53 56 60 66 69 73 75 70 64 64 62 60 61 60 58 57 54 54 55
31 33 33 34 36 38 42 45 50 53 55 59 60 60 60 59 59 57 56 54 54 54 55 56 59 65 68 70 68 62 60 59 57 57 57 56 56 55 54 52 52 52 52
32 32 34 34 33 32 34 36 39 42 46 48 50 52 53 53 53 52 51 52 54 56 58 59 63 60 52 52 54 53 51 52 51 50 51 50 49 49 49 49 48 50 54
35 34 34 35 35 35 34 34 35 36 37 39 42 44 46 48 49 49 49 50 54 57 56 47 43 46 48 49 47 47 47 45 45 45 44 44 45 46 46 48 51 55 59
34 36 35 35 35 36 36 36 35 34 37 37 38 40 42 42 42 43 43 43 42 40 40 41 42 45 45 44 44 42 39 41 42 41 41 42 43 46 50 53 56 59 62
32 33 34 35 37 37 37 38 38 36 33 34 35 37 37 37 35 34 35 36 37 39 40 41 43 42 43 42 41 40 40 40 39 41 44 45 48 51 54 56 58 60 64

GFSMW_250_spd_084.txt.gz
Wind_Speed
93 96 96 95 91 87 82 75 70 65 64 68 68 67 68 69 69 68 66 66 66 66 67 66 65 65 67 66 66 66 65 69 73 74 75 76 80 83 85 84 87 89 89
91 94 97 96 95 91 87 86 78 73 66 64 62 68 71 69 70 70 68 69 69 69 71 71 70 69 71 68 66 68 71 73 76 71 76 79 86 86 85 88 91 89 91
93 93 95 97 96 96 94 92 88 81 73 62 58 60 68 74 71 70 72 73 71 71 70 70 69 64 64 68 72 73 72 70 75 80 82 84 83 84 86 90 91 93 95
95 93 94 95 97 98 99 95 90 87 80 75 75 70 71 74 74 74 74 74 71 71 71 71 70 69 73 74 72 72 77 77 79 85 85 84 85 85 84 88 92 96 98
95 95 93 96 98 98 99 100 98 95 91 89 83 75 71 71 72 73 73 74 73 73 74 74 74 74 73 75 77 78 79 82 83 83 85 86 87 86 86 89 92 98 103
93 96 96 94 94 96 98 102 104 102 99 95 94 94 88 83 81 79 75 73 72 73 73 75 77 78 79 80 81 82 82 83 84 86 86 84 86 89 92 94 97 99 102
91 90 92 94 94 95 99 102 105 107 106 104 101 98 97 95 94 92 89 88 88 86 84 84 84 85 86 86 86 85 85 85 86 87 87 87 91 94 97 99 101 104 106
89 89 91 93 95 96 98 99 101 105 110 110 107 104 102 100 98 98 96 95 93 92 91 89 87 87 88 88 87 87 87 87 88 88 90 92 96 97 99 101 104 107 110
87 88 91 93 94 95 97 100 103 104 105 109 112 110 107 104 101 100 98 98 97 96 94 93 91 89 89 89 89 88 89 91 92 94 96 98 100 102 102 106 110 111 113
86 87 92 95 95 96 99 100 103 105 106 106 109 110 112 110 107 104 102 101 100 99 97 96 95 94 94 94 93 94 95 96 98 99 101 103 105 104 106 109 111 110 107
90 91 92 94 96 99 100 100 101 101 103 106 108 109 111 111 111 109 106 102 101 101 99 99 98 97 98 97 98 99 100 101 101 103 106 108 108 109 108 108 109 109 103
88 92 93 95 97 100 101 100 100 102 103 104 105 107 108 110 111 112 112 107 105 103 103 102 102 101 101 101 100 102 104 103 104 106 107 109 107 102 103 106 105 99 99
81 87 92 94 95 97 99 99 98 99 100 102 103 104 105 105 108 107 107 110 113 112 108 106 106 107 105 106 107 106 103 103 106 107 108 101 99 102 100 96 94 92 89
79 84 88 90 92 95 96 96 95 94 94 94 97 99 100 100 100 100 101 103 104 105 107 109 110 106 104 105 103 103 104 102 101 100 98 98 99 95 93 92 88 86 84
77 80 84 87 89 91 93 94 93 92 91 90 89 88 88 89 93 92 91 95 97 98 98 101 100 103 102 100 99 100 95 93 94 96 95 97 93 95 91 84 82 81 77
76 79 80 83 84 86 88 87 87 87 86 84 83 82 82 84 82 84 88 87 89 90 92 95 95 92 90 92 91 94 92 89 89 91 89 88 91 87 81 80 78 77 80
72 73 75 77 78 79 79 82 82 82 82 83 83 82 80 81 82 83 83 85 84 84 83 82 82 83 87 87 85 86 86 88 87 85 83 82 80 76 77 74 75 79 84
67 69 70 73 74 74 75 76 78 78 77 78 76 74 74 76 78 78 78 78 78 79 79 80 81 79 79 79 81 84 82 80 78 78 76 74 72 71 70 74 78 83 75
57 59 63 68 69 70 71 72 72 72 72 71 71 69 70 72 73 72 71 70 71 70 71 69 72 73 74 73 75 74 74 73 70 69 68 65 65 70 73 78 77 70 67
48 48 50 53 55 58 62 65 68 70 70 68 66 65 64 63 62 63 63 63 64 64 64 64 65 66 67 67 67 66 65 65 62 60 64 67 71 74 73 67 65 62 63
39 40 41 40 42 45 46 50 54 57 60 62 62 62 61 61 57 56 57 57 56 58 60 60 59 60 60 59 57 56 53 55 61 64 68 71 70 62 61 60 59 58 57
36 34 34 35 36 35 37 38 41 44 46 48 50 52 53 58 59 57 57 57 57 57 56 56 57 56 55 53 52 51 55 60 63 68 64 58 57 57 57 54 53 50 48
38 37 36 35 35 35 34 33 34 35 37 40 42 43 46 49 52 55 56 56 55 56 57 55 54 50 53 56 55 57 60 64 54 53 54 52 53 51 50 48 46 46 46
38 39 39 38 37 37 37 37 35 32 31 32 33 36 39 41 44 47 50 52 53 53 54 55 54 55 55 57 56 59 50 49 50 49 48 46 45 44 44 44 45 47 50
39 38 38 39 40 38 38 39 38 37 35 33 34 34 36 38 40 42 44 46 48 49 50 50 51 51 51 50 46 46 47 47 46 45 43 41 42 43 44 46 49 52 54
35 37 38 38 38 38 37 39 39 38 38 38 39 38 37 39 40 41 42 42 43 44 44 43 41 41 41 41 44 47 47 45 43 43 43 42 42 44 47 50 53 55 56

GFSMW_250_spd_087.txt.gz
Wind_Speed
97 96 96 97 97 95 91 89 84 81 74 72 71 68 66 63 61 58 58 62 65 65 64 64 64 64 65 66 67 68 70 71 71 70 66 69 70 75 76 78 79 83 84
98 96 97 96 97 98 95 93 90 85 83 78 74 66 68 68 66 67 66 65 63 66 69 69 69 69 69 69 70 69 67 69 70 66 67 71 75 77 77 82 84 86 88
98 98 98 97 95 96 98 97 95 91 87 83 75 70 65 65 70 69 70 70 69 68 67 69 70 70 69 70 70 70 70 70 70 73 75 76 76 78 83 87 90 88 90
98 98 97 97 96 94 94 97 97 94 87 85 80 80 75 71 68 68 68 71 70 71 73 72 71 71 70 71 71 71 71 73 76 78 80 81 82 83 85 88 90 90 90
95 95 94 99 99 97 97 95 95 95 94 91 89 90 88 82 79 76 77 75 73 73 74 75 76 74 72 71 70 71 73 74 75 78 81 85 86 88 88 87 89 89 94
89 93 93 97 99 98 97 96 95 95 97 97 96 92 93 92 91 86 82 77 77 75 77 75 74 73 73 75 74 73 75 78 81 85 87 89 90 90 90 89 89 92 94
85 89 92 94 97 97 99 98 97 95 96 99 101 100 99 97 93 90 87 80 79 79 80 78 75 81 82 81 83 84 86 87 89 90 91 90 91 92 91 92 94 97 99
82 86 89 91 95 96 98 97 97 96 95 98 101 103 103 103 101 99 97 97 95 92 89 90 90 90 89 91 91 93 94 94 95 94 94 96 97 96 97 98 99 102 104
80 82 86 87 91 93 96 97 97 98 98 98 100 102 104 106 105 104 103 103 102 102 100 100 99 99 99 98 98 98 98 99 98 98 99 100 101 101 100 102 106 106 110
82 82 83 85 88 91 94 96 97 98 98 98 98 102 104 105 107 110 111 109 107 106 104 104 105 104 103 101 102 102 103 103 102 102 101 101 102 102 105 108 107 110 111
82 83 82 85 88 92 91 93 96 98 99 100 101 102 103 104 105 108 110 113 113 111 109 107 107 108 108 108 108 105 105 104 104 104 104 105 105 108 109 109 109 112 115
81 84 84 84 89 92 91 92 93 95 97 99 101 103 104 104 105 105 106 107 110 112 115 116 114 112 112 110 108 107 106 105 107 107 107 109 109 111 109 110 111 110 107
80 82 86 86 88 88 90 93 95 96 97 98 100 101 102 104 105 105 106 108 110 110 110 109 109 108 110 112 112 110 111 110 111 111 110 108 106 106 109 114 112 106 105
75 77 82 87 89 91 92 93 94 97 97 99 101 102 103 103 104 104 105 107 108 108 108 108 110 112 112 113 112 112 112 111 110 108 106 107 109 110 108 108 103 101 96
74 76 79 82 86 90 93 96 97 100 102 102 105 104 105 106 105 104 104 104 104 104 104 105 105 106 106 105 105 105 103 103 103 102 103 105 103 98 95 95 96 94 89
71 74 75 78 82 85 89 93 95 97 100 103 104 103 103 103 101 99 98 95 95 95 97 99 100 100 100 99 102 100 97 96 99 98 94 91 94 95 92 91 84 84 79
69 71 74 76 79 82 85 88 90 93 95 96 97 97 95 95 94 92 91 89 88 87 87 88 87 88 89 88 88 92 92 87 88 85 86 89 84 84 83 82 79 74 71
68 69 70 73 76 77 81 83 86 87 89 91 91 91 91 91 90 88 87 86 84 83 83 85 85 84 83 84 85 87 85 85 85 84 81 82 80 78 76 72 68 68 69
61 65 67 69 70 73 74 76 77 78 78 79 80 82 83 83 82 80 81 81 80 80 80 79 79 80 79 78 80 81 80 79 79 76 71 70 70 67 63 61 65 67 69
54 58 60 59 59 62 65 69 70 72 73 73 74 74 75 75 75 75 74 74 73 73 73 74 74 73 73 72 73 72 71 68 66 65 64 61 61 59 58 60 65 69 71
51 53 54 54 55 55 57 58 60 61 63 64 66 67 68 68 68 68 67 68 68 67 64 64 64 64 65 64 63 61 61 60 58 56 55 54 52 54 60 65 68 64 58
44 46 48 48 48 50 52 53 52 52 53 53 54 56 56 56 56 56 57 60 58 59 61 59 57 57 57 56 54 54 53 52 51 51 51 52 53 58 62 61 55 54 54
41 42 44 44 44 45 46 45 44 44 43 43 44 45 46 47 46 45 45 47 48 50 53 55 54 55 53 53 54 52 50 50 51 52 55 57 59 59 52 51 51 50 48
37 39 42 44 45 45 45 45 45 44 44 42 40 40 39 40 41 40 40 41 42 45 48 50 52 52 53 53 53 53 53 53 54 57 58 59 55 49 49 47 45 44 44
34 36 38 41 43 45 45 46 47 46 44 45 43 40 37 36 35 36 38 41 43 44 46 48 49 50 51 53 52 53 54 56 55 55 50 47 47 47 47 45 44 44 46
32 33 34 35 38 40 42 44 45 45 46 45 46 44 43 40 40 40 39 40 41 43 44 46 47 49 50 51 53 54 51 46 42 42 44 46 47 47 48 49 50 51 52

GFSMW_250_spd_090.txt.gz
Wind_Speed
113 110 109 108 104 102 100 98 92 90 85 81 76 71 67 67 60 64 63 65 64 58 57 57 60 65 66 65 66 66 67 67 67 69 69 69 67 66 67 70 75 75 78
104 105 109 108 105 103 101 99 98 94 89 85 81 70 64 64 63 59 56 61 64 64 58 60 62 60 59 59 60 63 66 69 69 69 67 68 67 69 72 74 76 77 79
102 99 101 101 100 100 96 95 95 93 93 89 84 73 68 64 63 59 61 63 65 68 69 68 67 66 67 68 69 68 67 67 69 70 67 66 69 72 75 76 78 81 84
103 100 99 99 97 99 99 97 94 91 90 92 90 82 76 76 71 69 62 56 60 69 75 76 75 73 74 75 73 74 72 72 70 68 72 73 72 73 73 78 81 87 90
100 99 99 100 99 96 98 99 95 92 93 81 90 92 88 84 82 81 78 76 70 72 74 75 74 73 74 74 75 76 74 75 74 78 73 73 75 76 79 85 90 90 93
94 97 92 96 101 99 97 97 98 95 93 97 96 92 94 92 90 87 86 84 86 85 83 79 78 78 77 79 81 78 77 77 77 76 80 82 83 87 90 91 94 97 98
89 94 92 90 96 98 97 98 98 99 99 96 94 95 96 97 98 96 95 93 89 89 89 88 88 88 87 86 85 84 82 80 78 82 89 91 93 92 93 96 99 102 103
89 88 91 89 90 94 95 96 98 100 100 98 96 96 96 96 99 101 101 101 101 98 97 92 91 91 90 88 84 81 82 85 89 93 97 99 99 99 102 102 104 103 105
88 88 90 87 85 91 93 94 96 99 99 97 97 98 97 97 98 102 103 104 104 103 101 100 98 96 95 93 92 93 96 100 100 100 103 104 106 106 105 106 105 108 107
88 88 88 84 83 86 88 90 91 95 98 98 97 98 99 99 100 101 103 105 106 106 106 106 107 105 103 103 102 102 103 104 104 103 104 104 104 105 106 107 109 110 109
88 89 88 81 80 82 86 87 88 91 96 98 97 98 100 100 100 101 102 102 105 106 107 109 110 109 109 109 107 109 108 108 109 106 106 108 109 110 108 109 111 111 112
87 88 85 81 79 80 83 85 86 91 95 96 97 98 100 100 100 101 101 103 105 105 105 106 109 110 111 112 113 116 116 115 117 116 117 118 116 113 111 110 112 112 116
82 83 82 81 81 79 80 82 85 87 90 92 95 97 98 99 100 101 103 105 104 104 104 104 104 106 108 109 109 109 108 108 108 111 112 113 114 113 116 115 116 115 112
78 79 80 80 80 82 82 84 86 88 90 91 92 92 95 98 100 101 102 103 104 105 105 106 107 106 107 106 106 107 106 108 110 111 109 109 110 110 111 110 110 108 107
75 78 77 77 80 83 85 86 87 89 91 91 92 93 95 98 99 101 101 101 102 103 102 102 103 102 102 103 103 104 104 105 106 106 107 107 106 106 108 106 104 103 101
72 74 73 75 76 78 80 83 88 91 92 93 93 94 94 97 99 101 103 105 105 103 103 103 103 101 101 103 103 103 102 102 101 100 101 102 98 96 96 97 100 101 99
71 70 69 72 73 74 74 76 79 84 88 92 95 96 97 98 100 100 101 100 102 102 103 103 104 105 104 103 101 99 96 93 93 90 89 89 94 96 94 94 91 89 82
68 67 67 69 70 71 73 74 76 79 81 84 87 89 92 95 97 98 99 101 101 102 101 100 99 98 96 94 94 91 89 91 91 90 87 88 88 87 86 83 79 76 72
64 63 64 66 68 70 72 74 75 76 76 78 80 82 84 87 90 90 92 93 94 94 94 93 93 92 91 91 91 88 87 88 84 84 84 83 80 77 75 72 70 63 59
58 58 60 58 62 66 69 70 71 71 72 74 76 78 80 84 85 85 85 86 86 86 86 86 86 85 84 83 81 81 81 81 80 79 79 76 71 67 64 61 56 54 51
50 52 54 56 58 61 61 61 64 64 64 68 69 71 74 74 74 75 76 78 78 79 79 78 78 76 75 74 73 72 72 71 70 67 64 63 60 57 53 52 47 47 51
45 47 50 53 54 55 55 57 57 59 62 63 64 64 64 64 64 64 64 63 64 64 65 66 68 69 69 68 67 65 65 62 60 58 54 51 49 48 46 44 49 52 56
40 42 43 44 46 48 51 53 54 55 55 56 56 56 56 56 55 55 54 53 53 52 52 52 52 52 52 54 57 57 56 54 50 49 47 48 47 45 47 49 52 55 59
41 41 42 43 44 45 46 47 48 49 49 50 51 50 50 49 48 47 47 45 45 45 44 43 43 44 46 47 48 48 48 47 47 48 47 47 48 50 52 54 55 58 53
38 39 40 41 42 43 45 46 47 49 50 50 50 51 50 49 48 48 45 42 40 41 42 42 43 44 45 46 46 46 46 46 47 48 51 51 52 52 52 54 49 47 47
36 37 37 38 39 41 43 45 46 47 49 51 51 51 51 52 51 50 48 46 44 41 41 40 40 44 46 47 48 50 50 50 51 53 54 54 54 52 47 43 44 47 49

GFSMW_250_spd_093.txt.gz
Wind_Speed
102 102 102 101 97 94 90 90 87 79 80 85 84 80 78 72 68 64 63 65 65 65 63 65 66 65 65 65 65 61 59 57 55 57 60 59 60 62 65 68 67 70 71
100 101 102 104 104 100 97 93 92 90 89 87 85 83 82 80 75 70 70 68 50 46 49 53 56 59 60 65 64 61 62 63 62 61 63 67 71 71 71 74 75 69 71
101 100 101 103 106 106 104 100 97 96 95 94 92 90 85 82 75 72 71 70 63 52 40 42 43 53 60 65 63 61 62 64 68 68 71 73 76 77 77 76 70 71 75
96 100 101 102 105 107 107 107 102 99 97 98 97 90 88 89 80 81 83 79 73 67 67 64 64 66 67 67 68 70 73 74 76 77 78 77 72 74 76 75 76 78 78
96 97 101 103 101 104 106 107 107 105 102 103 103 99 98 96 92 84 83 84 81 74 67 71 75 77 75 69 69 72 74 73 74 75 75 75 75 77 79 79 82 84 84
94 96 97 98 101 101 101 104 108 108 103 100 86 88 101 99 95 90 89 85 86 86 84 86 87 83 82 85 81 77 80 80 80 83 83 84 83 86 84 85 87 85 89
94 95 94 96 97 98 102 104 103 103 103 101 100 97 90 93 95 94 90 85 88 93 96 92 89 87 87 90 91 90 90 90 89 89 90 90 91 90 91 87 86 91 98
96 95 93 93 95 98 99 101 103 103 102 100 99 99 99 93 93 97 98 94 94 92 93 95 98 99 99 97 96 95 93 93 92 91 91 91 89 89 87 91 98 100 98
93 95 93 92 90 92 96 97 98 97 98 99 101 101 102 99 97 96 96 96 98 102 100 101 102 103 104 104 102 101 101 102 101 98 98 102 102 99 96 98 100 104 107
92 94 93 93 89 89 91 93 94 94 93 95 98 100 100 99 99 100 97 98 99 102 103 104 108 108 108 108 108 108 107 106 106 106 105 104 102 103 104 106 106 109 112
86 89 90 90 90 88 87 89 91 90 89 91 94 95 96 97 98 98 101 101 101 101 102 104 106 104 106 108 108 111 111 111 111 110 110 108 109 109 110 112 113 115 111
82 85 86 86 87 89 89 87 86 86 87 87 88 91 94 95 98 99 99 102 103 103 102 103 104 104 106 107 107 106 106 108 109 111 109 111 112 114 115 117 115 110 108
78 79 80 82 86 89 91 87 85 85 86 86 87 88 91 92 94 96 97 99 101 102 104 106 104 103 104 104 104 105 105 104 105 105 105 105 103 103 105 105 105 105 105
74 76 78 80 84 88 90 86 85 84 84 84 86 86 88 90 92 94 96 98 100 101 102 104 106 105 104 102 102 102 103 103 102 103 103 104 105 103 102 102 101 103 105
74 75 77 79 82 84 85 83 82 82 83 84 85 85 86 87 90 92 94 95 97 98 98 100 102 103 102 102 102 100 100 100 100 98 98 100 99 99 99 100 100 94 95
73 75 78 78 80 81 80 78 78 79 80 83 84 85 85 86 88 89 91 93 93 94 95 96 97 99 98 99 100 99 99 100 101 100 99 99 99 100 98 96 95 95 90
73 73 73 75 76 77 77 74 73 74 76 78 81 84 86 88 89 91 93 94 95 96 97 97 97 98 98 99 99 100 99 100 99 99 98 99 99 98 95 94 93 87 91
69 72 71 72 72 71 73 72 72 71 71 72 74 78 81 85 88 90 92 94 95 96 96 97 97 99 100 100 100 101 101 101 101 101 98 96 93 94 93 90 89 90 85
59 63 65 67 67 68 69 67 67 68 68 69 68 71 74 76 77 80 84 86 88 90 91 91 92 93 94 94 94 94 93 93 93 92 90 89 88 87 86 86 83 79 78
50 52 54 57 57 59 63 64 65 66 68 66 67 70 70 71 73 76 78 81 84 85 86 86 87 89 90 90 89 89 89 87 86 85 82 80 80 77 75 73 70 67 65
47 49 50 49 51 55 57 60 62 64 64 65 67 67 68 70 72 74 75 77 78 80 81 82 83 83 83 83 83 83 82 81 80 78 75 72 70 67 67 62 60 56 54
44 46 46 47 49 54 55 56 59 61 62 63 65 66 67 69 70 71 72 72 73 72 72 69 69 69 67 66 66 65 66 67 66 65 64 62 60 58 55 52 50 47 45
42 44 44 47 49 51 53 55 56 58 59 61 62 63 64 65 65 66 66 65 64 63 60 58 56 54 52 52 51 51 52 53 54 53 52 52 50 49 48 46 44 46 45
39 40 40 41 43 43 44 44 46 47 50 54 56 58 59 58 57 56 54 55 55 54 53 52 49 47 45 45 44 44 43 44 44 44 45 46 45 46 45 45 46 47 46
37 37 37 37 38 39 40 41 43 44 45 47 48 50 51 51 51 51 52 53 52 52 51 49 47 44 42 41 41 42 41 41 43 44 44 45 45 46 47 47 48 49 50
37 37 36 36 38 39 40 41 42 43 44 45 47 48 50 52 53 53 53 53 54 54 52 50 48 45 44 41 40 39 42 44 46 46 47 46 47 47 48 51 52 51 50

GFSMW_250_spd_096.txt.gz
Wind_Speed
98 101 105 100 99 102 99 98 96 94 89 84 81 82 80 78 76 73 72 70 67 65 59 60 61 61 60 59 55 55 59 60 60 63 67 69 67 64 66 66 65 66 69
98 98 98 99 101 96 91 100 101 94 93 88 88 86 82 80 78 76 71 70 67 67 69 64 62 64 63 66 64 62 64 68 69 70 66 62 62 63 65 69 70 72 72
99 98 97 96 98 96 89 95 101 103 95 92 83 85 77 77 78 77 79 76 73 69 63 65 69 74 73 73 74 76 77 78 77 73 68 63 66 69 72 75 75 73 73
103 101 98 96 97 98 101 99 97 95 98 100 95 90 86 77 80 80 78 78 79 74 74 77 76 76 74 73 75 75 78 74 69 65 67 67 69 71 69 72 74 77 80
102 101 101 100 99 100 100 100 100 99 95 93 98 94 88 86 85 93 88 88 87 86 84 85 83 84 80 78 78 83 82 79 77 77 75 73 72 77 77 78 84 88 88
97 97 99 101 100 99 99 101 96 96 97 99 98 95 95 91 90 89 88 93 96 95 96 97 95 93 89 87 85 87 88 84 82 82 85 84 89 91 91 93 92 89 90
91 93 97 98 101 102 102 102 103 102 95 91 88 90 84 92 105 100 100 97 95 94 98 101 102 98 95 96 97 90 87 88 90 90 90 92 92 91 94 94 94 94 92
89 89 90 94 99 102 104 104 104 104 102 101 98 97 100 97 87 80 84 95 102 103 95 93 95 101 97 97 95 96 97 97 97 99 97 96 97 98 98 99 100 97 93
82 85 88 93 98 99 101 104 105 105 104 102 101 101 101 103 104 104 107 107 106 103 105 102 100 96 95 98 99 99 97 98 100 101 101 101 102 103 104 104 104 104 104
83 85 88 91 96 98 100 101 101 101 100 100 100 101 102 102 104 104 103 105 103 103 104 102 99 99 97 97 101 102 105 105 106 106 106 107 108 110 111 112 113 113 113
84 84 84 86 91 95 97 98 99 98 98 98 98 99 100 101 100 100 102 103 103 105 105 106 105 102 101 101 102 102 103 104 106 107 110 111 110 109 110 111 111 109 108
80 81 84 85 88 90 93 95 97 97 97 97 96 95 95 95 96 99 99 99 101 103 103 103 103 102 102 102 103 103 103 102 104 105 105 105 104 104 104 106 104 104 103
77 78 80 82 83 85 88 91 93 93 93 94 95 94 92 91 91 92 94 95 98 96 98 100 101 102 103 103 102 104 104 103 103 102 101 101 102 102 102 101 100 101 102
73 73 75 78 79 81 82 86 90 91 91 92 92 92 90 89 88 88 89 91 94 92 93 95 98 100 100 101 102 104 103 101 100 99 100 99 99 98 98 96 97 97 95
71 71 72 73 75 78 79 81 84 86 87 88 89 89 87 87 87 86 86 88 90 91 90 91 93 95 96 97 98 98 98 98 98 99 98 98 98 97 96 95 95 95 94
70 71 73 75 75 75 76 78 79 80 81 82 82 82 83 83 85 85 85 86 88 89 89 90 91 92 94 95 95 96 95 95 96 95 97 97 96 97 96 95 95 94 93
72 72 74 73 72 73 73 75 76 77 79 80 77 77 78 79 80 81 83 85 85 87 88 89 91 92 92 92 93 94 94 95 97 97 97 97 97 97 96 96 96 96 96
68 70 72 72 72 72 73 73 74 76 77 78 76 74 74 74 75 76 78 80 83 86 88 90 91 92 93 94 94 96 97 99 99 100 99 98 97 97 96 95 93 91 88
62 64 66 67 69 71 72 72 73 74 74 74 73 71 70 70 71 71 71 74 78 81 83 85 88 89 90 90 90 90 90 91 91 91 91 90 90 89 87 86 84 83 82
56 58 59 61 62 64 65 66 68 69 70 70 68 66 66 68 68 68 69 71 73 74 77 78 80 82 83 84 85 85 86 86 87 87 86 86 85 83 81 78 76 75 73
50 50 50 53 55 56 58 59 59 61 62 62 63 64 65 66 67 69 70 71 72 73 75 76 78 79 79 81 83 83 82 81 81 80 78 76 75 74 74 71 69 67 64
46 45 46 48 49 51 53 52 54 57 60 62 64 65 66 67 68 69 70 71 72 73 73 73 73 74 74 73 72 71 68 66 64 64 63 62 60 59 57 55 54 53 52
47 47 48 49 50 52 53 54 55 58 59 61 62 63 64 64 64 66 67 68 69 69 69 68 68 67 66 62 60 55 53 52 50 50 48 48 48 47 44 43 43 45 45
44 43 45 47 48 49 51 53 53 55 56 56 56 56 57 58 60 61 62 64 64 63 63 62 61 58 55 52 51 48 47 45 44 43 41 40 40 39 38 38 40 41 41
43 43 43 45 45 46 47 48 49 49 49 50 51 50 50 51 51 52 53 53 54 53 52 52 51 50 49 49 47 46 45 45 42 40 39 37 36 38 36 38 40 41 42
41 41 40 40 42 43 43 43 43 45 46 46 46 46 47 47 48 48 49 49 49 49 49 49 50 51 51 50 48 48 47 46 45 42 40 37 36 37 38 40 42 43 45

GFSMW_250_spd_099.txt.gz
Wind_Speed
104 99 98 101 89 85 94 96 98 101 96 87 90 91 91 85 80 80 79 73 73 69 64 62 61 65 68 63 62 61 65 71 72 73 74 77 74 71 69 71 70 67 67
107 102 103 96 99 99 93 96 98 94 94 96 89 81 83 84 84 80 78 77 74 71 68 67 69 70 65 65 66 74 80 81 77 76 75 79 81 77 70 66 65 66 66
104 107 110 109 101 103 107 106 108 107 103 103 101 99 96 92 87 87 87 88 84 79 77 74 74 72 76 78 78 78 77 77 80 79 80 78 79 74 74 72 71 69 71
105 103 103 109 116 113 107 108 108 100 99 100 104 100 94 96 90 95 84 78 80 78 78 73 73 75 79 81 80 83 81 80 84 82 83 80 78 75 77 81 81 80 79
105 104 104 105 107 114 116 114 111 105 93 83 86 87 83 94 88 81 86 80 67 65 71 78 81 84 84 80 84 83 85 84 87 91 93 91 89 86 87 87 87 84 84
102 103 104 105 105 105 105 105 107 110 115 112 91 92 86 79 81 89 91 88 87 82 78 77 84 89 89 90 92 91 88 83 80 88 97 98 97 96 94 95 91 86 85
100 101 102 103 106 107 105 105 104 104 104 97 98 97 90 83 82 85 87 92 94 94 93 98 99 99 98 90 90 94 96 97 99 100 98 100 99 97 98 97 94 93 91
99 100 100 102 105 107 107 105 104 103 102 101 92 91 97 95 94 88 92 91 89 90 97 101 103 107 110 106 102 99 100 102 101 104 100 99 99 99 99 97 99 98 96
94 97 99 98 98 103 105 105 107 107 105 104 103 103 101 97 95 93 89 86 86 93 95 95 99 105 105 105 105 99 96 95 98 98 101 101 98 100 101 103 103 102 100
90 91 93 98 98 96 100 103 107 108 108 108 108 107 107 106 105 102 101 98 99 99 101 100 100 102 104 104 105 105 105 105 106 106 105 104 103 103 103 103 102 102 103
85 87 89 91 93 93 96 97 99 102 106 108 110 111 111 109 109 107 106 105 103 103 104 105 106 109 108 108 109 109 108 106 104 106 105 105 105 104 103 103 102 101 100
82 84 85 86 88 91 94 96 98 99 101 102 105 107 108 107 107 108 106 105 105 105 105 107 107 107 106 105 106 106 105 106 105 105 106 106 104 104 103 101 98 99 100
77 78 79 81 83 86 89 92 96 98 100 103 104 105 106 106 104 104 103 103 103 102 103 105 106 107 108 108 108 108 106 104 103 102 102 102 102 102 102 100 98 98 98
77 78 80 82 83 84 86 89 90 91 92 95 98 99 101 102 101 100 99 99 98 98 98 99 99 100 101 102 101 100 102 102 101 100 99 97 97 98 98 97 96 94 94
78 78 78 78 78 79 80 82 84 86 88 88 89 92 93 94 96 96 95 95 94 92 92 94 94 95 95 95 95 95 95 95 95 96 96 95 94 93 94 95 94 94 91
72 74 73 75 76 78 82 81 80 81 81 83 86 86 88 89 90 90 89 87 87 87 88 89 90 91 93 94 94 94 94 94 94 94 93 92 92 92 93 92 92 94 94
71 72 72 72 73 75 75 76 77 77 77 78 79 81 82 82 82 82 82 83 83 83 84 85 86 87 88 90 90 91 92 92 93 92 92 92 92 92 94 95 95 97 99
70 71 72 72 73 72 71 72 72 73 75 76 76 77 77 76 77 77 77 77 79 79 79 80 82 83 83 85 86 88 89 90 90 91 92 93 94 96 96 96 96 94 91
67 68 69 71 71 72 71 70 72 73 73 74 75 75 74 73 73 73 73 74 74 75 75 77 79 80 81 82 83 85 86 87 88 88 88 88 88 88 88 87 86 84 84
63 65 67 68 69 69 69 70 71 72 72 73 73 71 70 71 72 71 71 69 69 71 73 76 77 77 78 80 81 82 83 83 84 83 83 83 83 82 81 80 80 79 77
60 63 63 63 64 64 64 64 66 69 69 69 69 70 70 69 69 69 69 68 68 71 73 75 76 76 76 78 78 78 79 79 80 80 79 78 78 75 73 70 68 65 63
56 59 60 60 60 60 60 59 60 60 60 62 63 63 63 65 67 68 68 69 70 71 73 73 74 75 75 75 74 74 74 74 71 70 69 64 61 59 57 55 53 51 48
52 55 56 56 55 55 56 55 54 54 56 58 59 61 62 65 67 68 70 70 71 72 73 72 72 71 71 69 68 68 67 65 64 61 55 51 47 46 46 44 42 40 38
50 53 54 54 53 52 54 54 55 56 57 59 61 63 64 66 66 66 67 66 66 67 66 65 64 64 64 62 62 60 58 55 53 50 47 45 42 41 40 38 36 33 32
47 51 53 54 54 54 54 55 55 54 56 58 59 59 59 60 60 60 60 59 59 59 58 57 58 57 55 54 53 51 50 49 48 47 47 47 44 42 40 38 36 36 36
42 47 49 52 52 51 50 49 49 51 52 53 53 53 54 54 54 54 53 54 53 53 52 51 51 51 52 52 51 50 50 50 50 49 47 46 47 45 43 41 38 36 36

GFSMW_250_spd_102.txt.gz
Wind_Speed
94 80 71 62 72 84 80 77 85 84 84 79 66 71 85 85 79 86 83 76 73 76 80 73 68 71 73 72 66 65 66 67 69 75 77 77 75 75 76 72 74 73 74
94 82 80 73 70 78 82 79 77 70 79 60 78 55 59 57 63 68 65 65 71 71 74 76 74 73 72 71 75 76 78 80 84 84 82 77 80 80 77 77 78 79 80
106 88 85 91 76 70 69 83 80 77 73 75 66 75 74 64 66 73 74 79 70 69 71 71 75 73 73 75 77 77 78 81 82 80 80 79 81 81 81 82 83 84 84
111 110 100 91 100 89 91 83 81 88 87 79 82 75 70 75 79 83 86 83 73 78 70 73 65 64 66 73 74 74 77 79 80 83 80 86 84 86 83 86 85 91 87
113 111 111 105 100 100 96 99 95 87 92 96 86 90 78 94 87 86 74 78 77 75 80 80 80 83 79 78 72 73 78 82 78 84 84 80 85 89 88 89 97 88 91
115 114 114 113 112 109 106 100 97 98 100 94 99 96 97 95 94 96 96 94 91 87 86 85 82 76 83 86 85 90 91 89 85 86 88 87 91 93 95 96 100 99 96
109 113 112 112 113 118 115 114 113 112 112 109 110 109 106 111 106 99 97 102 95 84 72 74 73 82 86 90 90 89 101 101 103 101 98 98 100 102 105 105 100 99 95
101 106 109 111 112 113 117 122 114 115 115 116 116 114 114 110 102 105 107 107 108 91 87 92 90 91 95 90 91 98 104 106 108 107 107 104 104 103 97 91 87 93 100
96 103 105 108 109 112 113 113 116 120 121 117 116 117 119 117 118 115 115 116 115 117 113 111 103 101 100 101 102 101 102 104 108 105 103 97 96 95 98 103 103 103 103
91 98 102 105 105 106 107 109 110 111 114 118 121 122 119 120 121 119 117 114 113 111 103 104 104 104 107 108 106 106 106 106 102 102 105 103 104 104 104 103 105 103 101
88 92 97 102 103 105 107 108 109 111 113 112 112 111 112 112 113 114 116 115 113 111 110 110 110 107 103 104 104 103 101 107 111 109 109 109 108 107 105 105 104 104 103
87 90 94 101 105 107 108 111 111 112 112 112 112 113 114 113 115 115 114 115 116 114 113 112 110 109 106 105 107 108 111 111 111 110 109 110 109 108 107 107 107 104 102
85 86 89 92 97 103 106 109 110 112 113 112 112 112 114 118 118 118 118 120 119 120 117 117 114 110 108 108 109 110 110 112 113 113 112 110 109 109 109 106 105 102 99
82 83 86 87 89 92 95 99 103 108 110 111 112 113 113 113 111 113 115 117 117 118 116 114 112 111 110 109 109 109 108 109 109 110 109 110 107 106 104 102 100 98 97
80 80 83 85 86 86 87 90 93 96 100 102 106 107 110 111 112 112 115 115 113 112 111 109 108 107 106 104 103 104 104 105 105 106 105 106 104 102 99 99 98 97 95
75 75 77 79 82 83 86 87 88 91 91 92 96 96 97 102 106 107 107 107 105 103 104 102 102 100 98 96 95 96 97 98 98 97 97 97 96 96 96 96 95 94 93
77 77 78 78 82 82 82 85 85 84 82 84 84 86 89 91 92 95 96 94 94 95 94 93 93 93 92 91 90 91 90 90 90 90 91 92 91 91 90 89 89 89 89
71 75 77 80 83 82 81 80 79 78 79 79 81 82 86 86 87 86 85 86 85 86 87 88 88 87 87 86 86 86 85 85 85 85 86 86 85 85 84 84 85 84 84
70 75 78 78 79 78 78 76 74 72 72 75 78 81 83 83 83 84 83 83 83 82 81 81 80 80 80 82 83 82 81 81 81 81 81 82 82 81 82 81 81 81 82
65 68 70 71 72 73 73 73 73 72 73 75 76 76 76 75 76 77 76 77 78 77 77 76 75 75 77 77 78 79 78 79 80 80 81 81 81 81 79 79 79 77 76
55 61 65 67 69 70 70 71 70 70 71 70 70 72 72 72 72 72 72 72 72 73 73 73 74 75 76 76 76 78 79 79 80 80 80 79 79 77 75 72 71 69 67
47 52 59 62 66 69 69 68 65 65 65 66 68 69 68 69 70 70 70 71 72 72 72 74 75 74 73 75 76 76 77 76 76 76 76 76 74 70 67 64 59 56 53
41 48 54 60 62 64 65 64 63 62 62 64 65 65 65 65 65 66 68 69 70 71 71 72 74 73 74 73 73 74 73 73 73 72 70 67 66 63 60 54 49 46 45
37 41 45 52 57 59 59 59 59 58 57 58 60 61 62 62 63 64 65 66 68 69 69 69 69 68 69 69 70 70 68 68 66 65 64 61 58 54 50 47 46 46 44
34 39 42 46 52 54 56 57 56 55 56 57 58 59 59 60 61 62 63 65 64 64 64 64 64 64 64 64 63 62 61 60 60 58 56 54 52 50 47 46 47 46 45
33 37 40 43 48 52 54 56 57 57 58 58 59 61 60 59 59 60 61 61 60 61 60 59 59 57 56 56 57 57 57 56 55 53 52 52 51 49 48 48 47 47 46

GFSMW_250_spd_105.txt.gz
Wind_Speed
85 73 75 78 79 69 67 63 62 61 54 50 47 48 54 56 60 57 63 64 62 60 56 58 66 71 58 53 57 58 60 60 62 64 67 71 71 69 68 71 72 73 74
96 100 86 91 86 86 68 72 64 61 63 63 63 57 49 55 57 58 67 65 69 67 68 57 52 50 52 54 56 61 60 63 63 68 70 73 74 74 77 76 78 77 77
97 92 93 93 97 100 95 85 84 68 68 61 56 58 60 59 60 56 36 52 58 58 66 63 55 52 56 56 62 65 68 71 75 75 77 84 88 89 89 83 78 74 74
98 93 88 86 82 80 91 92 94 77 70 61 57 55 44 53 54 46 30 42 45 50 60 57 53 54 62 68 68 68 72 77 83 86 81 88 89 85 86 89 85 85 89
101 96 97 93 88 84 80 77 81 82 65 69 71 60 70 68 52 57 53 69 59 67 66 58 50 55 60 63 67 67 72 59 76 84 83 87 80 81 87 93 93 92 91
119 117 110 105 103 90 89 85 85 96 86 69 58 67 71 75 82 85 82 84 83 66 72 63 65 69 72 72 68 73 78 81 79 88 86 94 93 93 93 89 90 94 95
123 118 114 115 117 111 95 98 95 98 95 94 91 90 79 81 88 88 79 77 78 79 82 82 82 82 85 85 88 91 94 90 92 96 98 99 103 106 105 101 101 98 96
120 121 120 114 110 106 107 98 94 89 103 107 99 95 97 86 88 91 94 91 92 90 90 92 90 91 89 94 100 100 95 93 98 102 105 109 111 107 111 110 106 104 104
120 121 122 119 118 112 106 104 106 102 95 94 96 94 96 97 99 97 97 97 97 98 97 100 102 104 109 106 108 104 99 101 105 112 118 123 117 111 112 111 110 106 104
113 121 123 120 119 114 113 114 106 98 102 104 103 103 101 103 100 101 104 108 111 111 114 113 118 120 118 117 110 111 114 117 121 122 119 113 110 110 111 112 113 110 108
99 111 121 125 124 122 119 121 119 120 117 118 117 115 114 115 116 115 116 115 118 122 122 124 126 124 126 125 124 125 129 132 125 121 117 115 115 117 118 116 112 112 108
84 90 108 118 127 128 124 125 129 129 126 125 124 122 121 121 120 120 123 124 126 126 125 126 128 132 130 132 133 134 132 127 125 122 120 117 116 116 116 115 114 115 114
80 84 89 98 110 118 122 126 132 131 130 129 129 128 127 126 128 129 128 128 130 134 134 135 137 137 137 138 138 134 130 128 123 120 117 118 116 115 115 116 115 114 114
79 81 85 91 96 104 109 116 119 120 123 126 129 130 130 130 130 133 136 135 133 135 134 134 135 136 135 135 132 131 127 125 120 119 116 115 114 113 111 111 111 112 109
81 82 85 87 91 96 104 109 113 115 118 119 121 122 123 124 126 127 127 128 130 128 130 131 130 130 129 129 127 127 124 119 117 114 112 112 110 109 108 107 106 105 103
83 84 84 86 90 94 96 100 103 108 113 118 119 119 121 122 123 123 125 127 126 128 128 129 128 129 128 129 126 126 123 120 117 113 109 107 105 102 100 99 98 94 92
81 83 85 88 90 91 92 93 95 97 100 106 110 114 117 120 123 123 124 123 126 126 127 128 129 127 127 126 122 120 117 113 109 105 102 97 96 94 93 92 90 88 85
79 85 89 91 93 93 91 91 92 92 94 95 96 97 103 107 109 112 111 113 113 116 118 122 121 119 117 114 109 107 102 97 95 93 92 90 89 89 88 87 85 83 81
72 77 83 89 92 93 92 91 91 90 90 92 94 95 97 101 102 102 102 102 104 104 105 106 106 105 102 99 96 94 91 90 89 88 87 87 87 87 86 84 82 81 79
59 67 75 81 84 86 88 90 90 90 90 88 87 88 91 95 95 96 97 98 99 97 97 96 95 94 94 93 91 89 88 87 86 85 84 82 82 82 82 81 79 79 76
50 57 65 72 76 78 81 83 84 84 83 83 83 86 88 90 92 94 95 96 95 91 89 89 88 88 89 90 87 85 85 83 80 80 80 80 82 81 79 78 76 74 72
46 49 53 60 67 73 76 78 78 78 79 80 80 81 83 84 86 86 83 81 81 81 83 83 84 83 83 81 81 79 79 79 78 77 79 79 78 76 74 72 71 70 68
43 46 48 51 53 57 62 69 74 75 76 77 77 78 77 77 77 77 75 75 76 76 75 76 76 78 77 77 78 77 76 76 75 75 75 73 72 70 68 67 66 64 62
36 40 44 45 47 51 56 60 64 67 70 72 73 73 72 72 71 70 70 70 70 71 72 73 73 73 73 73 72 72 71 70 70 69 68 67 66 65 63 62 60 57 53
31 33 38 40 43 45 51 56 57 59 61 63 64 65 66 67 67 66 66 67 67 68 69 69 69 69 68 68 66 66 65 65 66 64 62 61 59 58 57 55 54 52 49
27 31 33 37 39 42 44 49 54 57 58 59 60 61 62 63 64 64 65 65 65 65 65 64 63 62 61 62 62 62 61 61 60 57 56 56 55 54 53 53 53 52 51

GFSMW_250_spd_108.txt.gz
Wind_Speed
104 95 89 72 67 58 55 57 65 66 60 61 59 61 60 56 54 55 56 56 51 50 53 55 58 58 61 56 53 55 58 68 54 55 55 58 58 57 60 65 70 72 74
106 94 97 83 73 70 67 67 68 60 55 61 65 62 63 56 58 58 55 56 57 57 60 60 62 64 66 62 63 62 52 55 54 57 60 67 63 62 70 73 73 80 65
112 101 101 96 94 78 73 74 67 67 69 66 68 65 66 66 65 60 56 57 62 64 62 64 66 67 64 60 55 55 52 52 59 61 69 70 68 73 81 82 86 81 79
116 110 106 105 99 105 85 81 75 68 69 68 67 70 67 60 55 54 55 59 57 62 66 67 71 73 71 59 56 56 54 60 64 66 67 69 73 83 85 90 89 86 83
126 112 124 116 98 101 106 84 80 77 65 64 67 63 60 52 52 55 55 55 60 60 55 54 52 53 59 57 54 55 54 59 65 67 72 78 83 79 90 97 90 93 87
110 101 104 114 114 115 87 96 86 76 62 64 69 66 63 58 59 58 56 54 56 53 54 52 51 57 57 56 56 63 62 68 77 72 74 79 84 90 92 94 96 90 95
112 111 107 109 112 122 108 100 102 83 82 78 66 70 65 62 61 63 61 63 59 61 63 61 57 59 63 61 59 61 70 71 74 80 84 87 91 98 103 93 96 100 101
118 113 113 107 113 111 102 101 109 96 82 76 84 79 73 69 68 71 73 69 61 63 69 73 76 78 75 77 78 82 84 84 84 86 89 91 99 104 103 98 113 110 110
124 122 115 108 114 113 111 110 105 107 107 100 85 82 85 87 83 84 85 85 84 80 76 81 85 83 85 90 95 93 89 92 94 99 101 102 105 109 113 116 124 119 121
127 123 116 112 114 117 113 113 116 117 111 115 110 103 95 97 98 91 98 94 94 89 90 94 95 93 96 100 98 99 95 96 103 102 105 112 114 121 124 128 126 127 129
132 132 128 120 118 113 118 123 122 117 110 107 103 99 99 99 101 97 97 91 90 96 97 95 96 97 98 95 97 100 104 107 114 116 119 121 127 131 132 132 131 133 133
134 133 130 131 125 123 123 115 114 117 108 107 105 104 101 101 102 107 107 106 103 97 96 99 98 98 100 102 106 111 114 115 120 127 133 133 132 137 137 138 138 140 139
131 139 138 137 135 130 128 126 123 119 119 115 114 109 110 107 109 113 116 122 119 116 115 113 118 120 121 120 120 121 126 129 135 138 139 141 142 141 143 146 146 142 137
120 129 140 145 148 141 139 135 132 130 124 125 125 124 125 124 124 121 122 116 119 119 121 123 126 120 121 125 127 133 137 139 142 143 142 144 145 150 152 148 143 138 129
106 118 127 134 141 140 145 148 148 145 142 133 127 126 125 124 122 124 125 126 126 126 124 124 126 129 133 137 138 137 139 142 141 148 150 151 153 152 148 144 135 127 125
93 104 110 122 127 132 139 146 146 148 147 144 140 135 133 129 128 130 130 132 132 133 133 132 137 138 140 143 141 144 145 151 149 150 154 154 153 148 139 131 128 124 116
82 90 101 106 105 116 129 131 140 149 148 145 139 134 135 136 135 135 136 136 137 137 140 141 143 146 147 148 149 150 154 154 153 148 150 146 139 134 130 124 117 108 103
72 79 88 92 96 102 107 108 119 131 137 141 148 149 144 144 146 147 148 146 147 149 149 151 153 154 156 155 153 153 151 149 144 141 138 137 133 125 113 107 103 98 95
67 75 79 83 89 94 98 101 107 113 117 121 129 138 150 157 155 154 154 153 155 156 157 156 158 157 153 148 146 143 142 139 138 135 132 121 113 106 101 98 97 95 93
58 66 75 81 84 88 92 97 100 102 104 109 113 120 123 131 139 149 152 151 154 151 146 145 144 143 142 141 140 136 137 133 127 120 111 104 100 98 97 95 94 92 89
51 59 66 75 82 87 91 93 96 100 101 101 102 105 109 114 120 123 126 130 131 131 134 132 131 126 123 121 121 117 117 111 107 109 105 100 97 94 94 91 89 86 84
43 50 58 65 73 80 86 90 93 94 94 96 99 101 102 103 103 105 109 112 114 114 115 116 115 113 110 109 108 107 106 105 102 100 96 94 92 89 87 84 82 81 77
36 41 47 54 60 65 71 77 83 87 89 92 95 96 98 100 100 102 104 104 105 105 107 107 102 99 101 100 99 100 99 94 92 92 90 89 86 82 80 78 75 72 70
26 34 39 43 50 55 59 62 65 71 77 82 86 90 92 92 93 95 97 98 98 97 97 94 91 90 91 91 90 88 87 87 86 85 83 78 76 75 72 70 67 65 63
21 26 32 37 40 46 51 54 55 58 62 67 73 79 82 84 85 86 86 87 86 86 85 85 84 84 84 83 82 82 80 80 78 76 74 72 70 67 67 65 63 60 58
18 20 26 32 37 40 43 48 50 53 56 60 65 68 71 73 75 76 77 78 78 78 79 80 78 76 74 75 75 74 72 71 71 68 65 65 65 63 62 59 57 56 55

GFSMW_250_spd_111.txt.gz
Wind_Speed
79 77 73 86 77 77 65 55 63 55 56 51 53 52 53 56 60 63 64 64 65 64 63 63 64 64 58 52 54 56 55 60 59 64 64 60 60 57 54 58 62 62 62
87 88 77 71 77 76 78 67 59 62 59 57 50 53 57 60 54 58 58 58 62 61 56 61 59 62 62 57 57 60 61 64 66 68 67 64 64 67 60 63 65 63 61
91 94 81 79 76 83 76 80 68 66 61 50 54 59 60 58 59 60 58 60 60 57 56 56 56 57 56 55 62 66 66 70 71 65 63 64 67 73 69 64 63 71 82
100 93 78 78 82 86 79 77 81 74 57 59 58 62 57 57 56 55 54 54 59 59 57 61 61 56 59 62 64 66 69 70 75 67 75 82 81 70 63 66 75 82 80
110 104 89 90 84 83 82 73 68 79 66 64 72 64 60 62 64 65 60 62 58 56 66 67 68 65 63 63 70 66 68 62 69 72 71 71 66 61 65 75 81 79 78
117 115 105 99 97 83 88 79 75 76 71 67 71 68 68 62 65 67 65 66 62 57 65 69 66 65 66 66 57 52 63 63 68 65 65 67 65 67 70 79 76 79 83
123 115 114 106 101 93 87 85 84 82 78 71 70 73 69 71 71 73 70 71 70 65 60 64 63 60 61 63 64 70 68 66 69 64 65 67 71 69 78 73 86 82 88
128 122 116 107 97 98 85 93 95 89 83 76 72 66 72 74 73 73 69 65 64 60 66 66 65 63 68 68 70 74 78 71 70 66 70 72 75 77 80 81 81 87 97
129 128 117 109 102 98 92 86 97 99 99 88 80 83 73 72 78 77 72 67 67 62 67 70 73 77 74 74 81 82 82 80 81 74 73 76 85 84 91 94 102 103 103
134 131 123 116 109 105 101 95 98 100 104 103 92 92 84 79 74 79 81 80 79 80 81 80 80 76 73 76 78 81 85 86 87 83 89 89 92 97 105 100 104 98 106
136 135 129 123 117 111 100 105 103 109 92 105 106 98 96 87 76 75 78 81 84 90 87 82 79 80 85 84 79 82 86 91 94 94 99 101 104 102 110 99 114 110 113
135 139 137 131 125 122 107 104 116 107 99 94 106 107 103 100 95 84 83 85 83 89 87 91 89 89 90 95 92 95 98 101 104 107 109 110 114 107 115 116 116 125 127
129 145 143 138 133 127 130 115 122 114 115 114 110 110 105 104 97 98 95 92 94 97 97 95 98 98 102 102 109 109 109 107 105 111 114 113 117 118 120 122 136 134 131
131 138 148 150 142 139 132 132 126 124 115 110 112 118 120 121 119 113 109 99 92 94 95 102 107 103 107 113 104 103 102 105 108 112 114 119 125 127 135 137 138 138 140
133 141 141 142 145 143 132 133 130 118 126 130 120 116 122 118 118 121 124 121 116 115 117 114 113 110 116 113 113 115 113 117 121 127 129 134 139 143 142 142 141 140 145
134 136 140 139 141 142 138 147 141 134 128 130 131 122 109 116 124 122 126 128 129 127 124 122 118 118 116 119 121 123 126 131 132 137 140 142 142 139 142 143 146 147 149
117 143 148 148 149 147 148 145 141 147 140 137 131 129 132 128 127 128 126 124 124 131 131 132 131 129 128 127 127 131 134 137 138 139 143 145 144 146 148 149 150 151 155
98 119 149 157 155 153 153 152 152 148 145 144 141 133 135 139 133 129 134 139 135 134 133 131 128 131 134 134 136 141 143 144 143 143 145 148 150 152 152 152 153 155 157
69 90 110 149 158 159 160 161 159 156 156 154 149 145 143 140 139 138 139 137 133 133 137 140 144 146 144 144 142 142 145 144 148 147 151 153 154 155 155 156 157 159 161
51 65 80 104 135 156 156 160 159 159 158 156 158 158 155 155 153 152 150 149 150 151 151 149 150 149 145 148 149 150 151 154 157 158 155 157 158 161 161 162 161 164 144
41 50 60 77 93 111 126 152 163 161 163 165 164 165 163 162 161 161 159 160 161 160 159 161 165 166 161 157 161 164 163 160 161 163 164 164 167 160 160 164 156 134 119
26 37 49 57 66 80 92 108 134 143 156 162 171 168 168 172 174 172 177 174 172 171 169 174 171 173 173 174 175 170 169 167 168 166 166 169 169 168 158 140 123 110 101
23 27 35 45 54 61 69 82 93 106 116 132 145 143 141 139 143 146 152 157 152 156 158 156 158 152 150 152 153 153 151 151 150 150 148 141 136 127 119 113 105 98 93
27 24 27 35 42 50 58 63 69 76 87 96 103 110 115 119 120 126 129 132 134 135 136 137 137 137 136 138 139 135 133 132 128 122 117 111 108 105 100 95 90 87 83
36 28 26 28 34 39 45 52 57 64 69 74 78 83 88 93 97 101 105 108 112 113 114 115 116 117 116 114 112 110 107 105 104 101 97 96 95 90 85 83 81 77 73
49 37 28 26 29 32 37 43 48 54 59 63 67 71 74 78 82 86 89 91 94 97 100 102 102 101 101 101 100 97 94 93 91 88 84 82 79 78 76 74 71 67 65

GFSMW_250_spd_114.txt.gz
Wind_Speed
46 66 77 76 79 83 76 67 65 64 62 64 65 57 46 50 56 61 64 64 67 67 65 63 61 60 61 65 67 64 64 66 64 63 63 60 60 62 61 65 62 64 69
63 69 81 76 71 75 80 61 71 76 60 67 72 67 57 53 53 58 60 52 52 53 61 62 60 62 63 63 62 59 63 65 64 66 64 63 64 69 72 73 69 68 75
60 66 74 74 68 75 79 70 79 64 68 67 68 69 68 61 55 51 53 50 50 48 52 57 62 62 60 62 61 60 62 61 61 64 63 69 72 73 73 75 74 77 70
65 69 72 72 67 75 74 66 56 55 81 70 74 76 77 64 62 56 54 52 56 51 59 60 62 62 63 61 62 61 61 61 62 63 69 69 76 82 79 79 78 73 67
70 76 75 73 73 72 69 76 81 54 61 59 68 66 64 65 61 57 55 57 55 61 64 65 62 62 62 60 59 59 60 62 62 61 72 83 86 87 80 74 72 71 71
79 79 82 88 82 79 80 94 80 71 67 63 54 61 63 62 57 60 50 56 61 62 66 68 60 64 66 66 61 59 64 68 67 67 72 83 82 80 79 74 73 72 73
87 89 87 94 88 82 89 92 103 77 71 71 67 60 58 60 66 64 57 56 59 61 65 64 64 68 64 65 67 72 71 73 71 73 75 77 77 78 75 77 78 72 73
95 99 102 104 92 87 87 93 98 98 82 82 81 75 62 64 70 72 71 72 69 73 71 73 74 75 77 74 72 66 68 72 72 72 73 75 78 77 77 80 85 82 85
102 103 105 100 97 97 96 95 97 103 102 84 80 84 78 78 79 74 76 78 77 74 75 78 77 78 79 79 73 72 71 73 74 73 76 80 81 80 85 86 86 89 90
106 108 107 109 101 98 99 101 91 89 101 99 81 87 91 85 80 78 81 79 76 79 78 79 79 78 80 79 77 79 79 81 79 81 82 83 85 85 86 86 88 90 91
109 113 113 115 114 110 108 102 101 98 96 95 94 91 94 92 83 78 79 83 83 86 84 80 79 79 77 80 81 83 81 80 81 85 85 84 84 87 84 89 93 95 100
110 114 118 125 127 123 118 111 103 106 99 98 97 95 95 95 92 95 88 80 87 92 86 84 85 86 82 83 82 82 84 83 88 91 90 87 90 91 93 92 99 102 102
113 118 124 128 129 128 120 116 109 103 93 102 100 100 99 98 96 90 92 91 91 92 86 82 87 92 91 88 93 92 86 91 93 92 91 96 92 95 98 98 97 107 113
116 121 128 136 132 128 122 119 113 111 107 101 106 109 107 104 103 105 101 102 100 97 96 97 94 92 90 90 92 95 97 97 99 101 98 99 102 103 108 107 107 119 116
113 123 131 133 135 135 137 120 110 114 114 112 110 105 109 109 104 104 105 104 107 106 107 107 103 96 96 97 98 103 103 102 102 103 109 109 110 111 115 119 117 121 124
103 117 123 130 137 138 139 138 126 118 112 111 118 113 114 110 110 104 104 105 109 106 103 103 103 105 106 106 103 105 105 106 110 114 116 112 111 118 123 122 123 126 129
96 100 121 131 137 140 142 145 141 129 125 120 113 111 112 114 109 104 103 101 106 106 108 107 106 107 107 105 102 104 103 110 112 113 119 123 128 129 127 130 131 135 133
64 88 109 125 134 145 148 152 148 146 136 133 128 123 118 119 120 117 111 112 111 117 119 117 117 117 121 125 128 131 133 134 137 136 138 136 131 129 131 134 136 143 147
61 66 81 103 122 139 151 155 153 157 153 146 142 142 137 130 126 125 125 124 127 130 126 121 119 124 124 126 123 128 128 136 135 139 139 136 133 136 140 144 149 152 152
39 57 74 77 96 115 132 141 150 156 159 156 158 151 148 144 144 136 134 137 134 131 129 128 130 125 127 128 127 125 128 132 134 134 137 143 144 149 148 153 157 157 150
20 32 50 67 87 95 115 121 134 149 157 165 165 164 163 159 155 149 145 145 143 138 136 134 134 136 131 135 135 133 135 136 137 141 145 148 149 155 160 160 157 162 167
19 19 27 40 59 77 97 121 132 144 150 161 162 165 169 165 164 165 161 159 153 153 153 146 149 147 146 147 148 151 151 152 155 158 159 158 160 164 163 162 166 170 172
29 22 16 22 33 49 67 82 96 115 130 152 160 156 154 163 170 171 170 167 164 165 161 159 167 163 161 160 162 161 158 160 164 163 164 168 167 164 169 165 172 167 162
40 28 24 20 20 27 37 52 68 84 102 115 138 160 156 158 164 159 163 167 164 169 174 170 167 164 164 165 164 166 167 169 167 163 171 165 161 165 164 149 144 140 133
49 43 37 30 25 22 26 33 43 55 70 85 100 124 137 135 158 174 173 170 163 151 154 164 167 167 173 175 170 176 177 165 163 163 162 161 152 149 142 133 122 114 104
55 50 42 43 37 35 30 28 32 38 48 58 69 81 93 105 117 125 129 142 160 178 167 164 169 175 175 174 171 175 170 167 156 150 135 129 122 116 109 100 93 90 83

GFSMW_250_spd_117.txt.gz
Wind_Speed
78 93 86 90 97 102 71 67 66 63 67 57 52 50 44 46 42 47 54 64 71 71 72 71 67 67 68 65 65 66 65 67 69 66 68 70 67 66 64 65 63 57 56
89 76 95 97 92 72 70 73 68 68 59 52 61 58 55 50 47 43 41 44 53 56 57 58 58 58 57 57 64 65 64 72 69 68 67 68 66 63 65 64 64 64 63
92 92 91 102 90 80 70 80 66 57 53 56 59 59 60 63 58 54 48 41 49 54 60 63 65 52 46 54 58 66 72 71 68 68 67 67 65 69 64 67 68 68 70
100 97 100 85 84 67 79 80 66 71 65 56 53 60 58 61 60 63 62 57 56 53 55 57 62 60 51 46 58 65 68 69 68 68 66 68 70 69 69 73 74 73 75
104 100 89 75 75 68 80 96 83 78 74 56 53 60 61 64 60 66 67 63 59 61 59 54 59 58 56 56 61 67 66 67 68 69 68 70 71 72 76 77 79 77 78
100 81 62 67 90 80 80 93 80 85 72 58 60 58 57 62 69 65 62 65 63 62 68 66 63 59 56 67 70 71 71 71 70 74 72 72 75 78 78 80 78 81 83
100 84 55 65 75 84 83 88 83 82 75 67 72 76 70 74 77 76 68 68 68 72 73 68 63 58 63 69 72 71 73 74 72 73 74 72 74 78 80 81 84 87 81
92 91 61 59 81 90 93 89 83 75 74 72 75 73 71 72 75 76 80 60 65 67 63 65 63 52 62 69 74 72 76 80 77 77 77 79 80 85 87 87 85 82 84
92 84 84 65 80 87 91 87 82 84 80 81 77 82 80 72 73 69 70 69 73 75 76 67 67 70 69 68 67 73 74 77 77 79 81 87 90 87 87 89 85 84 80
99 93 85 90 73 81 84 82 85 83 82 81 88 88 81 73 73 70 69 78 82 83 73 73 75 71 71 74 74 74 76 78 83 86 88 89 86 89 88 85 85 86 84
100 93 93 101 80 84 86 88 88 85 92 96 92 85 83 82 81 78 76 78 87 86 81 82 79 78 81 80 80 81 80 84 86 91 87 90 89 89 84 88 87 86 88
86 94 99 103 96 88 94 92 98 100 97 99 100 98 90 85 86 86 89 88 91 87 88 85 88 91 91 88 88 88 84 87 90 93 92 93 89 89 90 91 90 91 91
92 93 97 105 103 92 102 102 102 101 100 97 105 100 93 92 89 92 91 91 91 88 87 86 89 90 90 91 90 88 87 90 94 99 98 97 92 92 90 94 94 96 97
90 96 99 99 106 96 104 107 110 102 105 97 103 106 107 101 94 93 93 92 95 94 92 88 90 90 93 91 90 92 91 93 93 97 94 95 92 96 93 99 99 99 101
90 95 103 103 109 111 107 115 113 112 108 108 103 108 102 101 100 98 100 100 96 98 98 94 91 91 90 91 90 91 92 94 95 94 94 97 103 94 101 101 101 103 104
61 87 101 107 110 113 111 121 119 118 119 114 115 110 107 109 106 105 101 101 102 104 100 100 98 97 94 93 95 98 97 99 98 105 104 108 103 105 104 105 104 105 111
55 66 90 105 109 116 116 126 126 124 121 121 117 117 116 113 110 115 114 109 105 104 103 103 107 108 109 108 105 103 99 101 107 103 106 109 108 109 107 108 112 111 122
40 53 66 96 109 114 121 126 130 131 128 128 125 123 119 120 116 114 113 117 120 116 112 115 114 114 111 110 113 110 112 111 113 116 115 111 111 115 115 110 123 119 127
27 40 56 75 86 95 119 127 136 136 137 133 132 131 131 129 124 122 118 115 116 115 117 116 118 118 118 117 111 116 114 115 115 116 119 115 118 110 119 122 123 133 139
10 23 38 53 71 90 106 120 129 134 137 143 146 142 142 139 132 129 126 127 123 122 122 124 124 123 123 117 121 125 123 121 124 122 120 121 126 127 129 137 146 140 135
26 14 20 32 46 62 80 109 127 131 136 140 147 146 150 144 146 145 136 131 130 125 128 129 128 128 128 128 122 123 124 123 125 129 129 130 134 137 141 142 140 142 141
31 29 24 18 31 44 54 67 87 118 139 137 150 150 156 157 157 155 151 147 145 141 143 140 137 134 137 137 134 134 135 136 135 136 140 142 145 145 143 144 148 146 152
44 36 33 30 21 23 33 48 60 74 90 107 131 148 152 161 164 164 161 157 157 159 159 151 155 155 153 151 151 150 153 150 153 147 150 153 159 158 159 163 160 162 158
55 52 45 40 32 31 28 27 37 47 60 74 89 107 119 135 154 159 161 164 167 169 170 170 168 165 165 164 166 165 168 165 163 163 159 160 158 153 156 151 150 149 155
62 59 54 51 47 42 36 33 30 31 39 49 60 71 83 97 112 125 135 143 152 161 161 163 169 169 170 165 158 159 166 169 168 159 154 159 154 153 157 146 147 149 160
67 66 66 62 60 53 50 44 44 35 34 38 43 51 60 70 81 90 101 110 120 130 142 150 157 159 159 156 160 168 165 160 161 162 161 161 165 148 147 148 145 142 136

GFSMW_250_spd_120.txt.gz
Wind_Speed
69 70 76 81 83 98 84 75 51 76 68 63 56 52 51 45 46 50 58 60 56 56 64 66 64 62 62 61 59 59 63 64 60 66 65 65 72 74 70 68 69 69 69
74 75 79 80 85 94 92 81 83 80 74 71 66 59 52 57 50 42 46 50 48 47 54 61 66 65 62 61 61 62 61 65 66 59 63 74 74 76 70 70 72 70 67
77 81 79 81 83 84 99 87 78 81 78 80 71 69 65 64 59 48 41 46 46 45 47 50 57 64 67 66 67 62 60 61 63 59 67 71 73 72 75 74 70 69 67
78 83 87 88 94 95 94 98 83 75 73 71 71 70 74 68 64 56 49 45 41 42 44 43 47 52 55 58 58 62 66 68 65 61 71 77 75 75 77 75 72 70 72
83 94 95 96 91 93 98 103 97 82 76 77 75 73 77 82 69 61 55 54 48 42 44 40 42 46 48 51 58 62 62 65 67 67 77 75 74 76 76 75 71 74 73
86 97 99 98 100 98 103 106 104 81 80 79 72 72 68 75 75 68 62 61 58 58 57 57 58 59 54 56 57 59 62 64 67 74 75 80 78 77 78 80 78 75 70
95 98 103 104 103 104 101 110 103 91 81 81 76 76 70 70 78 74 65 61 59 61 59 56 58 63 62 58 61 63 61 63 66 69 76 78 79 76 82 82 84 81 76
97 100 102 105 104 101 108 111 107 86 86 73 76 74 71 68 69 69 64 64 65 61 60 64 60 57 62 65 65 63 67 64 65 73 76 79 79 79 81 81 81 80 77
101 107 106 107 105 109 101 104 94 85 76 72 82 80 65 69 61 61 63 62 63 63 64 65 60 60 65 67 76 72 65 73 71 70 74 80 81 78 79 79 81 80 80
108 107 110 111 108 100 92 95 92 93 81 80 85 78 72 65 61 62 65 66 68 72 70 65 60 72 79 77 78 79 80 81 75 78 80 73 74 77 79 84 82 84 85
106 110 111 110 105 96 90 100 95 101 83 84 82 81 71 77 69 71 73 70 64 67 74 77 77 83 83 82 85 80 81 81 77 76 77 79 78 86 83 85 85 90 90
94 100 108 99 83 89 75 80 89 89 87 83 89 85 82 81 74 78 77 79 80 80 78 80 84 81 86 91 91 87 87 87 84 83 84 88 89 89 91 93 94 95 92
64 89 95 96 88 76 78 73 76 86 93 87 86 82 78 84 86 88 90 90 90 87 87 82 84 89 84 88 90 91 92 91 91 84 83 87 89 92 97 98 99 96 94
76 71 73 87 79 86 73 73 80 96 102 91 92 88 93 84 89 91 95 93 93 95 92 91 88 92 93 91 88 89 90 94 89 87 91 95 97 96 95 94 94 96 98
59 56 87 84 87 88 88 90 83 78 90 103 100 95 96 89 87 91 92 98 95 94 93 98 97 98 101 100 97 96 98 97 99 98 96 100 100 94 93 95 96 97 100
41 53 62 76 91 90 95 94 85 83 90 100 103 104 103 98 94 98 101 96 101 101 96 97 99 101 102 103 102 101 99 98 99 96 94 91 92 94 99 93 99 106 105
36 39 50 56 73 73 94 97 99 94 93 96 106 107 101 103 103 101 99 99 98 100 100 99 99 98 98 99 99 97 100 101 99 95 97 97 97 99 96 101 98 99 101
21 35 45 63 71 69 76 93 99 102 105 107 105 104 108 113 114 115 107 104 109 109 107 106 105 102 101 103 103 103 103 101 101 101 101 101 104 106 105 107 109 109 109
10 13 24 37 51 61 82 101 94 104 106 114 109 111 112 114 117 119 118 114 113 116 116 116 114 115 114 113 112 112 109 108 107 107 108 107 109 112 113 115 129 132 114
15 13 8 14 27 41 53 66 79 105 119 116 119 118 116 121 122 124 123 118 120 122 121 124 123 121 121 117 119 118 117 117 117 121 118 119 118 116 117 117 116 116 117
26 25 19 15 13 17 29 43 58 72 85 106 124 124 121 123 128 133 132 134 133 132 129 126 124 126 129 128 123 124 128 125 127 126 122 120 120 120 119 119 125 126 130
38 32 30 23 18 12 15 20 30 46 62 78 93 108 126 133 135 138 139 141 147 140 138 135 136 136 138 137 137 133 135 135 130 133 131 134 130 128 129 131 133 133 135
56 49 42 34 26 23 17 14 17 22 32 47 68 84 101 114 128 134 145 146 149 159 152 150 143 144 142 140 141 141 138 140 140 139 138 138 140 139 143 139 140 144 144
57 57 55 50 45 39 23 22 14 20 20 24 38 52 67 85 102 115 128 143 153 159 162 160 157 158 159 156 154 153 148 148 149 149 145 149 150 154 151 153 149 156 157
56 60 61 60 57 51 52 42 32 28 26 21 23 29 44 58 68 78 91 106 122 141 161 167 168 171 171 172 169 168 162 160 158 164 164 163 159 162 160 162 152 155 158
56 58 60 65 65 64 61 62 55 49 42 33 29 33 35 40 50 59 66 77 87 98 113 126 136 143 154 165 168 169 167 170 168 163 162 158 153 162 161 158 158 155 149